[[{"header":{"parameterUnit":"m.s-1","parameterCategory":1,"la1":31.0,"la2":29.5877,"lo1":-88.7671,"lo2":-86.6584,"dx":0.0162,"dy":0.0185,"nx":115,"ny":88,"refTime":"2022-11-18T18:00:00:Z","depth":0,"parameterNumber":2,"parameterNumberName":"U-component_of_WINDS"},"data":[0.0,0.0,0.0,0.0,0.0,0.0,0.0,0.0,0.0,0.0,0.0,0.0,0.0,0.0,0.0,0.0,0.0,0.0,0.0,0.0,0.0,0.0,0.0,0.0,0.0,0.0,0.0,0.0,0.0,0.0,0.0,0.0,0.0,0.0,0.0,0.0,0.0,0.0,0.0,0.0,0.0,0.0,0.0,0.0,0.0,0.0,0.0,0.0,0.0,0.0,0.0,0.0,0.0,0.0,0.0,0.0,0.0,0.0,0.0,0.0,0.0,0.0,0.0,0.0,0.0,0.0,0.0,0.0,0.0,0.0,0.0,0.0,0.0,0.0,0.0,0.0,0.0,0.0,0.0,0.0,0.0,0.0,0.0,0.0,0.0,0.0,0.0,0.0,0.0,0.0,0.0,0.0,0.0,0.0,0.0,0.0,0.0,0.0,0.0,0.0,0.0,0.0,0.0,0.0,0.0,0.0,0.0,0.0,0.0,0.0,0.0,0.0,0.0,0.0,0.0,0.0,0.0,0.0,0.0,0.0,0.0,0.0,0.0,0.0,0.0,0.0,0.0,0.0,0.0,0.0,0.0,0.0,0.0,0.0,0.0,0.0,0.0,0.0,0.0,0.0,0.0,0.0,0.0,0.0,0.0,0.0,0.0,0.0,0.0,0.0,0.0,0.0,0.0,0.0,0.0,0.0,0.0,0.0,0.0,0.0,0.0,0.0,0.0,0.0,0.0,0.0,0.0,0.0,0.0,0.0,0.0,0.0,0.0,0.0,0.0,0.0,0.0,0.0,0.0,0.0,0.0,0.0,0.0,0.0,0.0,0.0,0.0,0.0,0.0,0.0,0.0,0.0,0.0,0.0,0.0,0.0,0.0,0.0,0.0,0.0,0.0,0.0,0.0,0.0,0.0,0.0,0.0,0.0,0.0,0.0,0.0,0.0,0.0,0.0,0.0,0.0,0.0,0.0,0.0,0.0,0.0,0.0,0.0,0.0,0.0,0.0,0.0,0.0,0.0,0.0,0.0,0.0,0.0,0.0,0.0,0.0,0.0,0.0,0.0,0.0,0.0,0.0,0.0,0.0,0.0,0.0,0.0,0.0,0.0,0.0,0.0,0.0,0.0,0.0,0.0,0.0,0.0,0.0,0.0,0.0,0.0,0.0,0.0,0.0,0.0,0.0,0.0,0.0,0.0,0.0,0.0,0.0,0.0,0.0,0.0,0.0,0.0,0.0,0.0,0.0,0.0,0.0,0.0,0.0,0.0,0.0,0.0,0.0,0.0,0.0,0.0,0.0,0.0,0.0,0.0,0.0,0.0,0.0,0.0,0.0,0.0,0.0,0.0,0.0,0.0,0.0,0.0,0.0,0.0,0.0,0.0,0.0,0.0,0.0,0.0,0.0,0.0,0.0,0.0,0.0,0.0,0.0,0.0,0.0,0.0,0.0,0.0,0.0,0.0,0.0,0.0,0.0,0.0,0.0,0.0,0.0,0.0,0.0,0.0,0.0,0.0,0.0,0.0,0.0,0.0,0.0,0.0,0.0,0.0,0.0,0.0,0.0,0.0,0.0,0.0,0.0,0.0,0.0,0.0,0.0,0.0,0.0,0.0,0.0,0.0,0.0,0.0,0.0,0.0,0.0,0.0,0.0,0.0,0.0,0.0,0.0,0.0,0.0,0.0,0.0,0.0,0.0,0.0,0.0,0.0,0.0,0.0,0.0,0.0,0.0,0.0,0.0,0.0,0.0,0.0,0.0,0.0,0.0,0.0,0.0,0.0,0.0,0.0,0.0,0.0,0.0,0.0,0.0,0.0,0.0,0.0,0.0,0.0,0.0,0.0,0.0,0.0,0.0,0.0,0.0,0.0,0.0,0.0,0.0,0.0,0.0,0.0,0.0,0.0,0.0,0.0,0.0,0.0,0.0,0.0,0.0,0.0,0.0,0.0,0.0,0.0,0.0,0.0,0.0,0.0,0.0,0.0,0.0,0.0,0.0,0.0,0.0,0.0,0.0,0.0,0.0,0.0,0.0,0.0,0.0,0.0,0.0,0.0,0.0,0.0,0.0,0.0,0.0,0.0,0.0,0.0,0.0,0.0,0.0,0.0,0.0,0.0,0.0,0.0,0.0,0.0,0.0,0.0,0.0,0.0,0.0,0.0,0.0,0.0,0.0,0.0,0.0,0.0,0.0,0.0,0.0,0.0,0.0,0.0,0.0,0.0,0.0,0.0,0.0,0.0,0.0,0.0,0.0,0.0,0.0,0.0,0.0,0.0,0.0,0.0,0.0,0.0,0.0,0.0,0.0,0.0,0.0,0.0,0.0,0.0,0.0,0.0,0.0,0.0,0.0,0.0,0.0,0.0,0.0,0.0,0.0,0.0,0.0,0.0,0.0,0.0,0.0,0.0,0.0,0.0,0.0,0.0,0.0,0.0,0.0,0.0,0.0,0.0,0.0,0.0,0.0,0.0,0.0,0.0,0.0,0.0,0.0,0.0,0.0,0.0,0.0,0.0,0.0,0.0,0.0,0.0,0.0,0.0,0.0,0.0,0.0,0.0,0.0,0.0,0.0,0.0,0.0,0.0,0.0,0.0,0.0,0.0,0.0,0.0,0.0,0.0,0.0,0.0,0.0,0.0,0.0,0.0,0.0,0.0,0.0,0.0,0.0,0.0,0.0,0.0,0.0,0.0,0.0,0.0,0.0,0.0,0.0,0.0,0.0,0.0,0.0,0.0,0.0,0.0,0.0,0.0,0.0,0.0,0.0,0.0,0.0,0.0,0.0,0.0,0.0,0.0,0.0,0.0,0.0,0.0,0.0,0.0,0.0,0.0,0.0,0.0,0.0,0.0,0.0,0.0,0.0,0.0,0.0,0.0,0.0,0.0,0.0,0.0,0.0,0.0,0.0,0.0,0.0,0.0,0.0,0.0,0.0,0.0,0.0,0.0,0.0,0.0,0.0,0.0,0.0,0.0,0.0,0.0,0.0,0.0,0.0,0.0,0.0,0.0,0.0,0.0,0.0,0.0,0.0,0.0,0.0,0.0,0.0,0.0,0.0,0.0,0.0,0.0,0.0,0.0,0.0,0.0,0.0,0.0,0.0,0.0,0.0,0.0,0.0,0.0,0.0,0.0,0.0,0.0,0.0,0.0,0.0,0.0,0.0,0.0,0.0,0.0,0.0,0.0,0.0,0.0,0.0,0.0,0.0,0.0,0.0,0.0,0.0,0.0,0.0,0.0,0.0,0.0,0.0,0.0,0.0,0.0,0.0,0.0,0.0,0.0,0.0,0.0,0.0,0.0,0.0,0.0,0.0,0.0,0.0,0.0,0.0,0.0,0.0,0.0,0.0,0.0,0.0,0.0,0.0,0.0,0.0,0.0,0.0,0.0,0.0,0.0,0.0,0.0,0.0,0.0,0.0,0.0,0.0,0.0,0.0,0.0,0.0,0.0,0.0,0.0,0.0,0.0,0.0,0.0,0.0,0.0,0.0,0.0,0.0,0.0,0.0,0.0,0.0,0.0,0.0,0.0,0.0,0.0,0.0,0.0,0.0,0.0,0.0,0.0,0.0,0.0,0.0,0.0,0.0,0.0,0.0,0.0,0.0,0.0,0.0,0.0,0.0,0.0,0.0,0.0,0.0,0.0,0.0,0.0,0.0,0.0,0.0,0.0,0.0,0.0,0.0,0.0,0.0,0.0,0.0,0.0,0.0,0.0,0.0,0.0,0.0,0.0,0.0,0.0,0.0,0.0,0.0,0.0,0.0,0.0,0.0,0.0,0.0,0.0,0.0,0.0,0.0,0.0,0.0,0.0,0.0,0.0,0.0,0.0,0.0,0.0,0.0,0.0,0.0,0.0,0.0,0.0,0.0,0.0,0.0,0.0,0.0,0.0,0.0,0.0,0.0,0.0,0.0,0.0,0.0,0.0,0.0,0.0,0.0,0.0,0.0,0.0,0.0,0.0,0.0,0.0,0.0,0.0,0.0,0.0,0.0,0.0,0.0,0.0,0.0,0.0,0.0,0.0,0.0,0.0,0.0,0.0,0.0,0.0,0.0,0.0,0.0,0.0,0.0,0.0,0.0,0.0,0.0,0.0,0.0,0.0,0.0,0.0,0.0,0.0,0.0,0.0,0.0,0.0,0.0,0.0,0.0,0.0,0.0,0.0,0.0,0.0,0.0,0.0,0.0,0.0,0.0,0.0,0.0,0.0,0.0,0.0,0.0,0.0,0.0,0.0,0.0,0.0,0.0,0.0,0.0,4.2655,0.0,0.0,0.0,4.181,0.0,0.0,0.0,0.0,0.0,0.0,0.0,0.0,0.0,0.0,0.0,0.0,0.0,0.0,0.0,0.0,0.0,0.0,0.0,0.0,0.0,0.0,0.0,0.0,0.0,0.0,0.0,0.0,0.0,0.0,0.0,0.0,0.0,0.0,0.0,0.0,0.0,0.0,0.0,0.0,0.0,0.0,0.0,0.0,0.0,0.0,0.0,0.0,0.0,0.0,0.0,0.0,0.0,0.0,0.0,0.0,0.0,0.0,0.0,0.0,0.0,0.0,0.0,0.0,0.0,0.0,0.0,0.0,0.0,0.0,0.0,0.0,0.0,0.0,0.0,0.0,0.0,0.0,0.0,0.0,0.0,0.0,0.0,0.0,0.0,0.0,0.0,0.0,0.0,0.0,0.0,0.0,0.0,0.0,0.0,0.0,0.0,0.0,0.0,0.0,0.0,0.0,0.0,0.0,0.0,0.0,0.0,0.0,0.0,0.0,4.1584,4.1286,4.1622,4.166,4.1318,0.0,0.0,0.0,0.0,0.0,0.0,0.0,0.0,0.0,0.0,0.0,0.0,0.0,0.0,0.0,0.0,0.0,0.0,0.0,0.0,0.0,0.0,0.0,0.0,0.0,0.0,0.0,0.0,0.0,0.0,0.0,0.0,0.0,0.0,0.0,0.0,0.0,0.0,0.0,0.0,0.0,0.0,0.0,0.0,0.0,0.0,0.0,0.0,0.0,0.0,0.0,0.0,0.0,0.0,0.0,0.0,0.0,0.0,0.0,0.0,0.0,0.0,0.0,0.0,0.0,0.0,0.0,0.0,0.0,0.0,0.0,0.0,0.0,0.0,0.0,0.0,0.0,0.0,0.0,0.0,0.0,0.0,0.0,0.0,0.0,0.0,0.0,0.0,0.0,0.0,0.0,0.0,0.0,0.0,0.0,0.0,0.0,0.0,0.0,0.0,0.0,0.0,0.0,0.0,0.0,0.0,0.0,0.0,0.0,0.0,0.0,0.0,4.1036,4.1331,4.115,0.0,0.0,0.0,0.0,0.0,0.0,0.0,0.0,0.0,0.0,0.0,0.0,0.0,0.0,0.0,0.0,0.0,0.0,0.0,0.0,0.0,0.0,0.0,0.0,0.0,0.0,0.0,0.0,0.0,0.0,0.0,0.0,0.0,0.0,0.0,0.0,0.0,0.0,0.0,0.0,0.0,0.0,0.0,0.0,0.0,0.0,0.0,0.0,0.0,0.0,0.0,0.0,0.0,0.0,0.0,0.0,0.0,0.0,0.0,0.0,0.0,0.0,0.0,0.0,0.0,0.0,0.0,0.0,0.0,0.0,0.0,0.0,0.0,0.0,0.0,0.0,0.0,0.0,0.0,0.0,0.0,0.0,0.0,0.0,0.0,0.0,0.0,0.0,0.0,0.0,0.0,0.0,0.0,0.0,0.0,0.0,0.0,0.0,0.0,0.0,0.0,0.0,0.0,0.0,0.0,0.0,0.0,0.0,0.0,0.0,4.1418,4.085,4.0472,0.0,4.1647,0.0,0.0,0.0,0.0,0.0,0.0,0.0,0.0,0.0,0.0,0.0,0.0,0.0,0.0,0.0,0.0,0.0,0.0,0.0,0.0,0.0,0.0,0.0,0.0,0.0,0.0,0.0,0.0,0.0,0.0,0.0,0.0,0.0,0.0,0.0,0.0,0.0,0.0,0.0,0.0,0.0,0.0,0.0,0.0,0.0,0.0,0.0,0.0,0.0,0.0,0.0,0.0,0.0,0.0,0.0,0.0,0.0,0.0,0.0,0.0,0.0,0.0,0.0,0.0,0.0,0.0,0.0,0.0,0.0,0.0,0.0,0.0,0.0,0.0,0.0,0.0,0.0,0.0,0.0,0.0,0.0,0.0,0.0,0.0,0.0,0.0,0.0,0.0,0.0,0.0,0.0,0.0,0.0,0.0,0.0,0.0,0.0,0.0,0.0,0.0,0.0,0.0,0.0,0.0,0.0,0.0,0.0,0.0,0.0,0.0,4.113,4.0435,4.0516,4.1163,0.0,0.0,0.0,0.0,0.0,0.0,0.0,0.0,0.0,0.0,0.0,0.0,0.0,0.0,0.0,0.0,0.0,0.0,0.0,0.0,0.0,0.0,0.0,0.0,0.0,0.0,0.0,0.0,0.0,0.0,0.0,0.0,0.0,0.0,0.0,0.0,0.0,0.0,0.0,0.0,0.0,0.0,0.0,0.0,0.0,0.0,0.0,0.0,0.0,0.0,0.0,0.0,0.0,0.0,0.0,0.0,0.0,0.0,0.0,0.0,0.0,0.0,0.0,0.0,0.0,0.0,0.0,0.0,0.0,0.0,0.0,0.0,0.0,0.0,0.0,0.0,0.0,0.0,0.0,0.0,0.0,0.0,0.0,0.0,0.0,0.0,0.0,0.0,0.0,0.0,0.0,0.0,0.0,0.0,0.0,0.0,0.0,0.0,0.0,0.0,0.0,0.0,0.0,0.0,0.0,0.0,0.0,0.0,0.0,0.0,4.1577,4.128,4.0489,4.0997,4.1533,4.2028,0.0,0.0,0.0,0.0,0.0,0.0,0.0,0.0,0.0,0.0,0.0,0.0,0.0,0.0,0.0,0.0,0.0,0.0,0.0,0.0,0.0,0.0,0.0,0.0,0.0,0.0,0.0,0.0,0.0,0.0,0.0,0.0,0.0,0.0,0.0,0.0,0.0,0.0,0.0,0.0,0.0,0.0,0.0,0.0,0.0,0.0,0.0,0.0,0.0,0.0,0.0,0.0,0.0,0.0,0.0,0.0,0.0,0.0,0.0,0.0,0.0,0.0,0.0,0.0,0.0,0.0,0.0,0.0,0.0,0.0,0.0,0.0,0.0,0.0,0.0,0.0,0.0,0.0,0.0,0.0,0.0,0.0,0.0,0.0,0.0,0.0,0.0,0.0,0.0,0.0,0.0,0.0,0.0,0.0,0.0,0.0,0.0,0.0,0.0,0.0,0.0,0.0,0.0,0.0,0.0,0.0,0.0,0.0,4.281,4.2776,4.2265,4.1222,4.1852,4.1534,0.0,0.0,0.0,0.0,0.0,0.0,0.0,0.0,0.0,0.0,0.0,0.0,0.0,0.0,0.0,0.0,0.0,0.0,0.0,0.0,0.0,0.0,0.0,0.0,0.0,0.0,0.0,0.0,0.0,0.0,0.0,0.0,0.0,0.0,0.0,0.0,0.0,0.0,0.0,0.0,0.0,0.0,0.0,0.0,0.0,0.0,0.0,0.0,0.0,0.0,0.0,0.0,0.0,0.0,0.0,0.0,0.0,0.0,0.0,0.0,0.0,0.0,0.0,0.0,0.0,0.0,0.0,0.0,0.0,0.0,0.0,0.0,0.0,0.0,0.0,0.0,0.0,0.0,0.0,0.0,0.0,0.0,0.0,0.0,0.0,0.0,0.0,0.0,0.0,0.0,0.0,0.0,0.0,0.0,0.0,0.0,0.0,0.0,0.0,0.0,0.0,0.0,0.0,0.0,0.0,0.0,0.0,0.0,0.0,4.22,4.1493,4.1591,4.2516,4.1845,4.1368,0.0,0.0,0.0,0.0,0.0,0.0,0.0,0.0,0.0,0.0,0.0,0.0,0.0,0.0,0.0,0.0,0.0,0.0,0.0,0.0,0.0,0.0,0.0,0.0,0.0,0.0,0.0,0.0,0.0,0.0,0.0,0.0,0.0,0.0,0.0,0.0,0.0,0.0,0.0,0.0,0.0,0.0,0.0,0.0,0.0,0.0,0.0,0.0,0.0,0.0,0.0,0.0,0.0,0.0,0.0,0.0,0.0,0.0,0.0,0.0,0.0,0.0,0.0,0.0,0.0,0.0,0.0,0.0,0.0,0.0,0.0,0.0,0.0,0.0,0.0,0.0,0.0,0.0,0.0,0.0,0.0,0.0,0.0,0.0,0.0,0.0,0.0,0.0,0.0,0.0,0.0,0.0,0.0,0.0,0.0,0.0,0.0,0.0,0.0,0.0,0.0,0.0,0.0,0.0,0.0,0.0,0.0,0.0,0.0,4.287,4.2482,4.2631,4.3315,4.2302,4.1421,0.0,0.0,0.0,0.0,0.0,0.0,0.0,0.0,0.0,0.0,0.0,0.0,0.0,0.0,0.0,0.0,0.0,0.0,0.0,0.0,0.0,0.0,0.0,0.0,0.0,0.0,0.0,0.0,0.0,0.0,0.0,0.0,0.0,0.0,0.0,0.0,0.0,0.0,0.0,0.0,0.0,0.0,0.0,0.0,0.0,0.0,0.0,0.0,0.0,0.0,0.0,0.0,0.0,0.0,0.0,0.0,0.0,0.0,0.0,0.0,0.0,0.0,0.0,0.0,0.0,0.0,0.0,0.0,0.0,0.0,0.0,0.0,0.0,0.0,0.0,0.0,0.0,0.0,0.0,0.0,0.0,0.0,0.0,0.0,0.0,0.0,0.0,0.0,0.0,0.0,0.0,0.0,0.0,0.0,0.0,0.0,0.0,0.0,0.0,0.0,0.0,0.0,0.0,0.0,0.0,0.0,0.0,0.0,4.4058,4.5063,4.6012,4.5461,4.3545,4.3355,4.165,0.0,0.0,0.0,0.0,0.0,0.0,0.0,0.0,0.0,0.0,0.0,0.0,0.0,0.0,0.0,0.0,0.0,0.0,0.0,0.0,0.0,0.0,0.0,0.0,0.0,0.0,0.0,0.0,0.0,0.0,0.0,0.0,0.0,0.0,0.0,0.0,0.0,0.0,0.0,0.0,0.0,0.0,0.0,0.0,0.0,0.0,0.0,0.0,0.0,0.0,0.0,0.0,0.0,0.0,0.0,0.0,0.0,0.0,0.0,0.0,0.0,0.0,0.0,0.0,0.0,0.0,0.0,0.0,0.0,0.0,0.0,0.0,0.0,0.0,0.0,0.0,0.0,0.0,0.0,0.0,0.0,0.0,0.0,0.0,0.0,0.0,0.0,0.0,0.0,0.0,0.0,0.0,0.0,0.0,0.0,0.0,0.0,0.0,0.0,0.0,0.0,0.0,0.0,0.0,0.0,0.0,0.0,0.0,0.0,4.5139,4.566,4.5855,4.5612,4.37,4.2124,0.0,0.0,0.0,0.0,0.0,0.0,0.0,0.0,0.0,0.0,0.0,0.0,0.0,0.0,0.0,0.0,0.0,0.0,0.0,0.0,0.0,0.0,0.0,0.0,0.0,0.0,0.0,0.0,0.0,0.0,0.0,0.0,0.0,0.0,0.0,0.0,0.0,0.0,0.0,0.0,0.0,0.0,0.0,0.0,0.0,0.0,0.0,0.0,0.0,0.0,0.0,0.0,0.0,0.0,0.0,0.0,0.0,0.0,0.0,0.0,0.0,0.0,0.0,0.0,0.0,0.0,0.0,0.0,0.0,0.0,0.0,0.0,0.0,0.0,0.0,0.0,0.0,0.0,0.0,0.0,0.0,0.0,0.0,0.0,0.0,0.0,0.0,0.0,0.0,0.0,0.0,0.0,0.0,0.0,0.0,0.0,0.0,0.0,0.0,0.0,0.0,0.0,0.0,0.0,0.0,0.0,0.0,0.0,0.0,4.7791,4.8228,4.8205,4.7595,4.496,4.3037,4.1921,0.0,0.0,0.0,0.0,0.0,0.0,0.0,0.0,0.0,0.0,0.0,0.0,0.0,0.0,0.0,0.0,0.0,0.0,0.0,0.0,0.0,0.0,0.0,0.0,0.0,0.0,0.0,0.0,0.0,0.0,0.0,0.0,0.0,0.0,0.0,0.0,0.0,0.0,0.0,0.0,0.0,0.0,0.0,0.0,0.0,0.0,0.0,0.0,0.0,0.0,0.0,0.0,0.0,0.0,0.0,0.0,0.0,0.0,0.0,0.0,0.0,0.0,0.0,0.0,0.0,0.0,0.0,0.0,0.0,0.0,0.0,0.0,0.0,0.0,0.0,0.0,0.0,0.0,0.0,0.0,0.0,0.0,0.0,0.0,0.0,0.0,0.0,0.0,0.0,0.0,0.0,0.0,0.0,0.0,0.0,0.0,0.0,0.0,0.0,0.0,0.0,0.0,0.0,0.0,0.0,0.0,0.0,0.0,5.2127,5.3089,5.2164,4.9334,4.7018,4.4444,0.0,0.0,0.0,0.0,0.0,0.0,0.0,0.0,0.0,0.0,0.0,0.0,0.0,0.0,0.0,0.0,0.0,0.0,0.0,0.0,0.0,0.0,0.0,0.0,0.0,0.0,0.0,0.0,0.0,0.0,0.0,0.0,0.0,0.0,0.0,0.0,0.0,0.0,0.0,0.0,0.0,0.0,0.0,0.0,0.0,0.0,0.0,0.0,0.0,0.0,0.0,0.0,0.0,0.0,0.0,0.0,0.0,0.0,0.0,0.0,0.0,0.0,0.0,0.0,0.0,0.0,0.0,0.0,0.0,0.0,0.0,0.0,0.0,0.0,0.0,0.0,0.0,0.0,0.0,0.0,0.0,0.0,0.0,0.0,0.0,0.0,0.0,0.0,0.0,0.0,0.0,0.0,0.0,0.0,0.0,0.0,0.0,0.0,0.0,0.0,0.0,0.0,0.0,0.0,0.0,0.0,0.0,0.0,0.0,5.3743,5.5162,5.4753,5.2268,4.9052,4.6433,0.0,0.0,0.0,0.0,0.0,0.0,0.0,0.0,0.0,0.0,0.0,0.0,0.0,0.0,0.0,0.0,0.0,0.0,0.0,0.0,0.0,0.0,0.0,0.0,0.0,0.0,0.0,0.0,0.0,0.0,0.0,0.0,0.0,0.0,0.0,0.0,0.0,0.0,0.0,0.0,0.0,0.0,0.0,0.0,0.0,0.0,0.0,0.0,0.0,0.0,0.0,0.0,0.0,0.0,0.0,0.0,0.0,0.0,0.0,0.0,0.0,0.0,0.0,0.0,0.0,0.0,0.0,0.0,0.0,0.0,0.0,0.0,0.0,0.0,0.0,0.0,0.0,0.0,0.0,0.0,0.0,0.0,0.0,0.0,0.0,0.0,0.0,0.0,0.0,0.0,0.0,0.0,0.0,0.0,0.0,0.0,0.0,0.0,0.0,0.0,0.0,0.0,0.0,0.0,0.0,0.0,0.0,0.0,5.3557,5.4924,5.6473,5.649,5.4854,5.1253,4.8462,0.0,0.0,0.0,0.0,0.0,0.0,0.0,0.0,0.0,0.0,0.0,0.0,0.0,0.0,0.0,0.0,0.0,0.0,0.0,0.0,0.0,0.0,0.0,0.0,0.0,0.0,0.0,0.0,0.0,0.0,0.0,0.0,0.0,0.0,0.0,0.0,0.0,0.0,0.0,0.0,0.0,0.0,0.0,0.0,0.0,0.0,0.0,0.0,0.0,0.0,0.0,0.0,0.0,0.0,0.0,0.0,0.0,0.0,0.0,0.0,0.0,0.0,0.0,0.0,0.0,0.0,0.0,0.0,0.0,0.0,0.0,0.0,0.0,0.0,0.0,0.0,0.0,0.0,0.0,0.0,0.0,0.0,0.0,0.0,0.0,0.0,0.0,0.0,0.0,0.0,0.0,0.0,0.0,0.0,0.0,0.0,0.0,0.0,0.0,0.0,0.0,0.0,0.0,0.0,0.0,0.0,0.0,0.0,5.6263,5.5844,5.718,5.7577,5.6867,5.3382,5.0356,0.0,0.0,0.0,0.0,0.0,0.0,0.0,0.0,0.0,0.0,0.0,0.0,0.0,0.0,0.0,0.0,0.0,0.0,0.0,0.0,0.0,0.0,0.0,0.0,0.0,0.0,0.0,0.0,0.0,0.0,0.0,0.0,0.0,0.0,0.0,0.0,0.0,0.0,0.0,0.0,0.0,0.0,0.0,0.0,0.0,0.0,0.0,0.0,0.0,0.0,0.0,0.0,0.0,0.0,0.0,0.0,0.0,0.0,0.0,0.0,0.0,0.0,0.0,0.0,0.0,0.0,0.0,0.0,0.0,0.0,0.0,0.0,0.0,0.0,0.0,0.0,0.0,0.0,0.0,0.0,0.0,0.0,0.0,0.0,0.0,0.0,0.0,0.0,0.0,0.0,0.0,0.0,0.0,0.0,0.0,0.0,0.0,0.0,0.0,0.0,0.0,0.0,0.0,0.0,0.0,0.0,0.0,0.0,5.4966,5.6528,5.7451,5.7832,5.7654,5.4634,5.1649,0.0,0.0,0.0,0.0,0.0,0.0,0.0,0.0,0.0,0.0,0.0,0.0,0.0,0.0,0.0,0.0,0.0,0.0,0.0,0.0,0.0,0.0,0.0,0.0,0.0,0.0,0.0,0.0,0.0,0.0,0.0,0.0,0.0,0.0,0.0,0.0,0.0,0.0,0.0,0.0,0.0,0.0,0.0,0.0,0.0,0.0,0.0,0.0,4.2483,0.0,0.0,0.0,0.0,0.0,0.0,0.0,0.0,0.0,0.0,0.0,0.0,0.0,0.0,0.0,0.0,0.0,0.0,0.0,0.0,0.0,0.0,0.0,0.0,0.0,0.0,0.0,0.0,0.0,0.0,0.0,0.0,0.0,0.0,0.0,0.0,0.0,0.0,0.0,0.0,0.0,0.0,0.0,0.0,0.0,0.0,0.0,0.0,0.0,0.0,0.0,0.0,0.0,0.0,0.0,0.0,0.0,0.0,0.0,5.5766,5.7257,5.8017,5.8414,5.8321,5.6215,5.3475,0.0,0.0,0.0,0.0,0.0,0.0,0.0,0.0,0.0,0.0,0.0,0.0,0.0,0.0,0.0,0.0,0.0,0.0,0.0,0.0,0.0,0.0,0.0,0.0,0.0,0.0,0.0,0.0,0.0,0.0,0.0,0.0,0.0,0.0,0.0,0.0,0.0,0.0,0.0,0.0,0.0,0.0,0.0,0.0,0.0,0.0,0.0,0.0,0.0,0.0,0.0,0.0,0.0,0.0,0.0,0.0,0.0,0.0,0.0,0.0,0.0,0.0,0.0,0.0,0.0,0.0,0.0,0.0,0.0,0.0,0.0,0.0,0.0,0.0,0.0,0.0,0.0,0.0,0.0,0.0,0.0,0.0,0.0,0.0,0.0,0.0,0.0,0.0,0.0,0.0,0.0,0.0,0.0,0.0,0.0,0.0,0.0,0.0,0.0,0.0,0.0,0.0,0.0,0.0,0.0,0.0,0.0,5.4725,5.7253,5.841,5.9022,5.9284,5.9158,5.7737,5.5209,5.1514,0.0,0.0,0.0,0.0,0.0,0.0,0.0,0.0,0.0,0.0,0.0,0.0,0.0,0.0,0.0,0.0,0.0,0.0,0.0,0.0,0.0,0.0,0.0,0.0,0.0,0.0,0.0,0.0,0.0,0.0,0.0,0.0,0.0,0.0,0.0,0.0,0.0,0.0,4.1632,4.2757,0.0,0.0,0.0,0.0,0.0,0.0,0.0,0.0,4.2753,0.0,0.0,0.0,0.0,0.0,0.0,0.0,0.0,0.0,0.0,0.0,0.0,0.0,0.0,0.0,0.0,0.0,0.0,0.0,0.0,0.0,0.0,0.0,0.0,0.0,0.0,0.0,0.0,0.0,0.0,0.0,0.0,0.0,0.0,0.0,0.0,0.0,0.0,0.0,0.0,0.0,0.0,0.0,0.0,0.0,0.0,0.0,0.0,0.0,0.0,0.0,0.0,0.0,0.0,0.0,0.0,5.4669,5.6112,5.8052,6.0655,6.0858,6.0612,5.9945,5.85,5.5962,5.23,0.0,0.0,0.0,0.0,0.0,0.0,0.0,0.0,0.0,0.0,0.0,0.0,0.0,0.0,0.0,0.0,0.0,0.0,0.0,0.0,0.0,0.0,0.0,0.0,0.0,0.0,0.0,0.0,0.0,0.0,0.0,0.0,0.0,0.0,0.0,0.0,0.0,0.0,0.0,4.5126,4.5249,0.0,0.0,0.0,0.0,0.0,0.0,0.0,0.0,4.4729,0.0,0.0,0.0,0.0,0.0,0.0,0.0,0.0,0.0,0.0,0.0,0.0,0.0,0.0,0.0,0.0,0.0,0.0,0.0,0.0,0.0,0.0,0.0,0.0,0.0,0.0,0.0,0.0,0.0,0.0,0.0,0.0,0.0,0.0,0.0,0.0,0.0,0.0,0.0,0.0,0.0,0.0,0.0,0.0,0.0,0.0,0.0,0.0,0.0,0.0,0.0,0.0,0.0,0.0,0.0,5.5424,5.8309,6.0428,6.1849,6.2236,6.1897,6.0723,5.8896,5.6165,0.0,0.0,0.0,0.0,0.0,0.0,0.0,0.0,0.0,0.0,0.0,0.0,0.0,0.0,0.0,0.0,0.0,0.0,0.0,0.0,0.0,0.0,0.0,0.0,0.0,0.0,0.0,0.0,0.0,0.0,0.0,0.0,0.0,0.0,0.0,0.0,0.0,0.0,0.0,0.0,4.681,4.7548,4.8709,0.0,0.0,0.0,0.0,0.0,0.0,4.5548,4.4939,0.0,0.0,0.0,0.0,0.0,0.0,0.0,0.0,0.0,0.0,0.0,0.0,0.0,0.0,0.0,0.0,0.0,0.0,0.0,0.0,0.0,0.0,0.0,0.0,0.0,0.0,0.0,0.0,0.0,0.0,0.0,0.0,0.0,0.0,0.0,0.0,0.0,0.0,0.0,0.0,0.0,0.0,0.0,0.0,0.0,0.0,0.0,0.0,0.0,0.0,0.0,0.0,0.0,0.0,0.0,5.5998,6.0381,6.2864,6.3294,6.3859,6.3386,6.1762,5.9539,5.6537,0.0,0.0,0.0,0.0,0.0,0.0,0.0,0.0,0.0,0.0,0.0,0.0,0.0,0.0,0.0,0.0,0.0,0.0,0.0,0.0,0.0,0.0,0.0,0.0,0.0,0.0,0.0,0.0,0.0,0.0,0.0,0.0,0.0,0.0,0.0,0.0,0.0,0.0,0.0,0.0,0.0,4.9517,5.0916,4.9419,0.0,0.0,0.0,0.0,4.6981,4.6658,0.0,0.0,0.0,0.0,0.0,0.0,0.0,0.0,0.0,0.0,0.0,0.0,0.0,0.0,0.0,0.0,0.0,0.0,0.0,0.0,0.0,0.0,0.0,0.0,0.0,0.0,0.0,0.0,0.0,0.0,0.0,0.0,0.0,0.0,0.0,0.0,0.0,0.0,0.0,0.0,0.0,0.0,0.0,0.0,0.0,0.0,0.0,0.0,0.0,0.0,0.0,0.0,0.0,0.0,0.0,0.0,5.7534,6.1404,6.4333,6.6149,6.6362,6.5405,6.3308,6.1018,5.7805,0.0,0.0,0.0,0.0,0.0,0.0,0.0,0.0,0.0,0.0,0.0,0.0,0.0,0.0,0.0,0.0,0.0,0.0,0.0,0.0,0.0,0.0,0.0,0.0,0.0,0.0,0.0,0.0,0.0,0.0,0.0,0.0,0.0,0.0,0.0,0.0,0.0,0.0,0.0,0.0,0.0,5.0197,5.0853,4.9759,4.8808,0.0,0.0,5.0795,5.1454,5.2063,0.0,0.0,0.0,0.0,0.0,0.0,0.0,0.0,0.0,0.0,0.0,0.0,0.0,0.0,0.0,0.0,0.0,0.0,0.0,0.0,0.0,0.0,0.0,0.0,0.0,0.0,0.0,0.0,0.0,0.0,0.0,0.0,0.0,0.0,0.0,0.0,0.0,0.0,0.0,0.0,0.0,0.0,0.0,0.0,0.0,0.0,0.0,0.0,0.0,0.0,0.0,0.0,0.0,0.0,0.0,5.4372,5.7924,6.3226,6.6068,6.6203,6.6981,6.6362,6.4174,6.1492,5.8229,0.0,0.0,0.0,0.0,0.0,0.0,0.0,0.0,0.0,0.0,0.0,0.0,0.0,0.0,0.0,0.0,0.0,0.0,0.0,0.0,0.0,0.0,0.0,0.0,0.0,0.0,0.0,0.0,0.0,0.0,0.0,0.0,0.0,0.0,0.0,0.0,0.0,0.0,0.0,0.0,0.0,0.0,5.3384,5.2447,0.0,0.0,0.0,5.2164,5.1183,0.0,0.0,0.0,0.0,0.0,0.0,0.0,0.0,0.0,0.0,0.0,0.0,0.0,0.0,0.0,0.0,0.0,0.0,0.0,0.0,0.0,0.0,0.0,0.0,0.0,0.0,0.0,0.0,0.0,0.0,0.0,0.0,0.0,0.0,0.0,0.0,0.0,0.0,0.0,0.0,0.0,0.0,0.0,0.0,0.0,0.0,0.0,0.0,0.0,0.0,0.0,0.0,0.0,0.0,0.0,0.0,0.0,5.8804,6.4996,6.777,6.6891,6.7906,6.7421,6.5189,6.2797,0.0,0.0,0.0,0.0,0.0,0.0,0.0,0.0,0.0,0.0,0.0,0.0,0.0,0.0,0.0,0.0,0.0,0.0,0.0,0.0,0.0,0.0,0.0,0.0,0.0,0.0,0.0,0.0,0.0,0.0,0.0,0.0,0.0,0.0,0.0,0.0,0.0,0.0,0.0,0.0,0.0,0.0,5.3078,5.5133,5.4625,5.4253,0.0,0.0,5.3856,5.2545,5.3754,5.3678,0.0,0.0,0.0,0.0,0.0,0.0,0.0,0.0,0.0,0.0,0.0,0.0,0.0,0.0,0.0,0.0,0.0,0.0,0.0,0.0,0.0,0.0,0.0,0.0,0.0,0.0,0.0,0.0,0.0,0.0,0.0,0.0,0.0,0.0,0.0,0.0,0.0,0.0,0.0,0.0,0.0,0.0,0.0,0.0,0.0,0.0,0.0,0.0,0.0,0.0,0.0,0.0,0.0,0.0,0.0,6.1095,6.6305,6.9282,6.9868,7.0003,6.8988,6.6734,6.5797,6.1951,0.0,0.0,0.0,0.0,0.0,0.0,0.0,0.0,0.0,0.0,0.0,0.0,0.0,0.0,0.0,0.0,0.0,0.0,0.0,0.0,0.0,0.0,0.0,0.0,0.0,0.0,0.0,0.0,0.0,0.0,0.0,0.0,0.0,0.0,0.0,0.0,0.0,0.0,0.0,0.0,0.0,5.2959,5.4473,5.52,5.6274,0.0,0.0,5.6993,5.8201,5.8472,5.6891,5.1886,0.0,0.0,0.0,0.0,0.0,0.0,0.0,0.0,0.0,0.0,0.0,0.0,0.0,0.0,0.0,0.0,0.0,0.0,0.0,0.0,0.0,0.0,0.0,0.0,0.0,0.0,0.0,0.0,0.0,0.0,0.0,0.0,0.0,0.0,0.0,0.0,0.0,0.0,0.0,0.0,0.0,0.0,0.0,0.0,0.0,0.0,0.0,0.0,0.0,0.0,0.0,0.0,0.0,5.822,6.0588,6.6643,6.9699,6.9553,6.9969,6.9563,6.8267,6.6586,6.3507,0.0,0.0,0.0,0.0,0.0,0.0,0.0,0.0,0.0,0.0,0.0,0.0,0.0,0.0,0.0,0.0,0.0,0.0,0.0,0.0,0.0,0.0,0.0,0.0,0.0,0.0,0.0,0.0,4.5993,4.6297,4.4978,0.0,0.0,0.0,0.0,0.0,0.0,0.0,0.0,0.0,0.0,5.5649,5.7103,5.7568,0.0,0.0,5.9201,5.8863,5.8989,5.8616,5.7171,5.3822,5.2266,0.0,0.0,0.0,0.0,0.0,0.0,0.0,0.0,0.0,0.0,0.0,0.0,0.0,0.0,0.0,0.0,0.0,0.0,0.0,0.0,0.0,0.0,0.0,0.0,0.0,0.0,0.0,0.0,0.0,0.0,0.0,0.0,0.0,0.0,0.0,0.0,0.0,0.0,0.0,0.0,0.0,0.0,0.0,0.0,0.0,0.0,0.0,0.0,0.0,0.0,0.0,0.0,5.9404,6.1129,6.7557,7.0714,7.0432,7.0917,7.0748,6.9789,6.8199,6.5672,0.0,0.0,0.0,0.0,0.0,0.0,0.0,0.0,0.0,0.0,0.0,0.0,0.0,0.0,0.0,0.0,0.0,0.0,0.0,0.0,0.0,0.0,0.0,0.0,0.0,0.0,0.0,0.0,4.7928,4.7733,4.621,0.0,0.0,0.0,0.0,0.0,0.0,0.0,0.0,0.0,0.0,5.8017,5.9462,5.9462,5.9597,6.0351,5.9877,5.9336,5.9056,5.8549,5.7552,5.559,0.0,0.0,0.0,0.0,0.0,0.0,0.0,0.0,0.0,0.0,0.0,0.0,0.0,0.0,0.0,0.0,0.0,0.0,0.0,0.0,0.0,0.0,0.0,0.0,0.0,0.0,0.0,0.0,0.0,0.0,4.2401,0.0,0.0,0.0,0.0,0.0,0.0,0.0,0.0,0.0,0.0,0.0,0.0,0.0,0.0,0.0,0.0,0.0,0.0,0.0,0.0,0.0,0.0,0.0,6.3453,6.9271,7.2676,7.3319,7.3387,7.271,7.1334,7.1154,6.873,6.3589,0.0,0.0,0.0,0.0,0.0,0.0,0.0,0.0,0.0,0.0,0.0,0.0,0.0,0.0,0.0,0.0,0.0,0.0,0.0,0.0,0.0,0.0,0.0,0.0,0.0,0.0,4.3896,4.5568,4.6861,0.0,0.0,0.0,0.0,0.0,0.0,0.0,0.0,0.0,0.0,5.7094,5.953,6.1028,6.0612,6.0486,6.1255,5.9515,5.833,5.9056,5.9013,5.8472,0.0,0.0,0.0,0.0,0.0,0.0,0.0,0.0,0.0,0.0,0.0,0.0,0.0,0.0,0.0,0.0,0.0,0.0,0.0,0.0,0.0,0.0,0.0,0.0,0.0,0.0,0.0,4.8909,4.8199,0.0,0.0,0.0,0.0,0.0,0.0,0.0,0.0,0.0,0.0,0.0,5.4964,5.6181,0.0,0.0,0.0,0.0,0.0,0.0,0.0,0.0,0.0,0.0,0.0,0.0,6.2492,6.44,7.0094,7.3251,7.3488,7.3488,7.3251,7.2778,7.1808,6.8831,6.369,0.0,0.0,0.0,0.0,0.0,0.0,0.0,0.0,0.0,0.0,0.0,0.0,0.0,0.0,0.0,0.0,0.0,0.0,0.0,0.0,0.0,0.0,0.0,0.0,0.0,4.6406,0.0,0.0,0.0,0.0,0.0,0.0,0.0,0.0,0.0,0.0,0.0,5.548,5.7915,5.9979,6.1637,6.2642,6.2946,6.3521,0.0,0.0,0.0,0.0,0.0,0.0,0.0,0.0,0.0,0.0,0.0,0.0,0.0,0.0,5.6494,5.2021,5.1394,5.1741,5.2464,0.0,0.0,0.0,0.0,0.0,0.0,0.0,0.0,0.0,0.0,0.0,0.0,0.0,0.0,0.0,0.0,5.2164,0.0,0.0,0.0,0.0,0.0,0.0,0.0,0.0,5.7771,5.9235,5.9945,6.0883,6.1221,0.0,6.0496,5.85,0.0,0.0,0.0,0.0,0.0,0.0,0.0,0.0,6.414,6.6271,7.1492,7.4266,7.4266,7.4266,7.4131,7.3883,7.2699,7.0218,6.6328,6.4749,6.2202,0.0,0.0,0.0,0.0,0.0,0.0,0.0,0.0,0.0,0.0,0.0,0.0,0.0,0.0,0.0,0.0,0.0,0.0,0.0,0.0,0.0,0.0,0.0,4.8748,0.0,0.0,0.0,0.0,0.0,0.0,0.0,0.0,0.0,5.4761,5.6824,5.9268,6.1738,6.3125,6.4005,6.4231,0.0,0.0,0.0,0.0,0.0,0.0,0.0,6.0636,6.0907,5.9597,5.8727,5.9404,6.1119,6.2168,6.1424,0.0,0.0,5.6876,5.6021,5.6452,5.718,5.8477,5.9559,5.9737,6.0944,6.2126,0.0,0.0,0.0,0.0,0.0,0.0,0.0,0.0,5.7137,5.6368,0.0,5.5708,0.0,0.0,0.0,0.0,0.0,5.6639,0.0,0.0,6.4952,6.644,6.5842,6.5842,6.6237,6.6869,6.5517,6.4816,6.458,6.0496,0.0,0.0,0.0,0.0,0.0,0.0,6.6203,6.9147,7.3443,7.5687,7.5642,7.5676,7.5337,7.4615,7.3894,7.28,7.1334,6.8561,6.5946,6.3612,5.7433,0.0,0.0,0.0,0.0,0.0,0.0,0.0,0.0,0.0,0.0,0.0,0.0,0.0,0.0,0.0,0.0,0.0,0.0,0.0,0.0,5.0431,0.0,0.0,0.0,0.0,0.0,0.0,0.0,0.0,0.0,0.0,5.7703,5.9708,6.2482,6.5266,0.0,0.0,0.0,0.0,6.5639,6.5019,6.3057,6.2009,6.2763,6.3294,6.3893,6.4637,0.0,0.0,6.5121,6.5956,6.625,6.4197,6.6125,6.688,6.3304,6.2009,6.1772,6.2424,6.2623,6.2874,6.3609,6.4813,6.5806,6.1501,0.0,0.0,0.0,0.0,5.9361,6.0825,6.3135,6.3135,6.2627,6.1738,6.1424,0.0,0.0,0.0,0.0,0.0,0.0,6.211,6.5212,6.6328,6.7827,6.9688,6.9677,7.0094,7.0759,7.0364,7.0443,7.0883,6.9665,6.4657,5.6359,0.0,0.0,0.0,0.0,6.8764,7.0725,7.3984,7.5676,7.5676,7.5676,7.5337,7.4615,7.4412,7.3849,7.2902,7.2022,6.9789,6.6024,6.3531,0.0,0.0,0.0,0.0,0.0,0.0,0.0,0.0,0.0,0.0,0.0,0.0,0.0,0.0,0.0,0.0,0.0,0.0,0.0,4.9635,5.2562,5.3737,0.0,0.0,0.0,0.0,0.0,0.0,0.0,0.0,0.0,6.4681,6.4546,6.4749,0.0,0.0,6.7309,6.6576,6.7861,6.9022,6.9339,0.0,0.0,0.0,6.7895,6.7083,6.8413,6.9124,6.9327,6.8707,6.9383,6.9812,6.9125,6.9744,6.9947,6.9,6.7726,6.6981,6.7117,6.7184,6.7432,6.8142,6.865,6.9225,6.7297,6.5425,6.2313,6.1782,6.3024,6.3352,6.485,6.706,6.7364,6.6891,6.5933,6.6102,6.4749,6.2289,6.1559,0.0,0.0,0.0,6.6068,6.9034,6.9316,7.0421,7.2124,7.218,7.2394,7.2812,7.2529,7.2935,7.3916,7.3353,6.9394,6.2391,0.0,0.0,6.3599,6.7783,7.1165,7.3465,7.527,7.6318,7.6589,7.6318,7.5799,7.5067,7.5021,7.4695,7.395,7.3962,7.2575,6.9586,6.759,6.486,0.0,0.0,0.0,0.0,0.0,0.0,0.0,0.0,0.0,0.0,0.0,4.7353,0.0,0.0,0.0,0.0,5.1953,5.3086,5.4431,5.6587,0.0,0.0,0.0,0.0,0.0,0.0,0.0,6.37,6.6271,6.8233,6.9102,6.8751,6.8345,6.8345,6.9113,6.9417,6.8685,0.0,7.1244,7.1672,7.1492,7.1571,7.2259,7.0872,7.0105,7.1289,7.1537,7.1492,7.1526,7.1887,7.2157,7.2157,7.2157,7.2157,7.2146,7.1413,7.0737,7.0466,7.0669,7.1018,7.1424,7.1492,7.1797,7.2496,7.1954,6.5842,6.4454,6.6248,6.7015,6.8132,6.9485,7.0172,6.9665,6.847,6.9834,6.8921,6.6282,6.5595,0.0,6.8368,6.9113,7.0534,7.2597,7.3285,7.3635,7.3657,7.3725,7.3759,7.3759,7.3138,7.3544,7.4784,7.3544,7.2135,7.0748,7.006,6.9902,7.024,7.1142,7.3364,7.6826,7.6893,7.7266,7.7954,7.7345,7.6589,7.5845,7.5777,7.5439,7.475,7.4683,7.4356,7.3522,7.0263,6.776,6.6214,0.0,0.0,0.0,0.0,0.0,0.0,0.0,0.0,0.0,0.0,0.0,0.0,0.0,0.0,0.0,5.9733,0.0,6.167,6.1728,0.0,0.0,0.0,6.1197,6.283,6.5425,6.7377,6.8166,0.0,0.0,7.1571,0.0,7.2665,7.2766,7.2597,7.2225,7.1492,7.2045,7.2563,7.2631,7.2078,7.1943,7.2766,7.2699,7.2812,7.3488,7.3691,7.3624,7.3624,7.3657,7.3657,7.3691,7.3691,7.3657,7.3669,7.3657,7.3556,7.2902,7.3082,7.3421,7.3454,7.3454,7.3488,7.3218,7.3116,7.1526,7.0849,7.0872,7.1582,7.2101,7.2473,7.2654,7.2507,7.2203,7.2575,7.2304,7.1639,7.1458,7.1661,7.2169,7.2372,7.3037,7.4074,7.4255,7.4615,7.5202,7.5811,7.6082,7.6115,7.6487,7.686,7.7176,7.6838,7.6195,7.5337,7.5134,7.3409,7.0443,7.3138,7.5371,7.6893,7.6893,7.7266,7.7967,7.7819,7.7379,7.6657,7.6623,7.6251,7.5473,7.5439,7.51,7.4378,7.3465,7.2349,7.0804,6.441,0.0,0.0,0.0,0.0,0.0,0.0,0.0,0.0,0.0,5.4203,4.9906,0.0,5.6553,0.0,6.5233,6.7161,6.4905,6.5662,0.0,0.0,6.4918,6.5436,6.8041,6.8944,6.9902,7.1176,7.2293,7.3172,7.3736,7.4458,7.5134,7.5709,7.4322,7.2947,7.2293,7.3262,7.4074,7.4119,7.4378,7.4728,7.483,7.4931,7.4965,7.5134,7.5168,7.518,7.518,7.518,7.518,7.5168,7.518,7.5168,7.518,7.5654,7.5992,7.5743,7.4593,7.3691,7.4221,7.4345,7.4525,7.4314,7.4314,7.4301,7.4068,7.3717,7.3903,7.3793,7.3522,7.386,7.3793,7.3522,7.3849,7.4199,7.4503,7.483,7.4999,7.5045,7.5349,7.5721,7.6115,7.6115,7.6318,7.6736,7.7164,7.7367,7.7413,7.7819,7.8022,7.8022,7.8327,7.828,7.7896,7.8517,7.7447,7.4808,7.5709,7.6454,7.6893,7.757,7.7908,7.7988,7.8327,7.7671,7.5968,7.6543,7.6217,7.4774,7.5033,7.4547,7.3228,7.2822,7.2124,7.0939,6.6711,6.413,0.0,0.0,0.0,0.0,0.0,0.0,0.0,0.0,0.0,0.0,0.0,6.0926,0.0,6.7929,0.0,6.6958,6.8335,6.9372,6.9305,6.9214,6.9969,7.1954,7.2428,7.2947,7.3781,7.4525,7.5168,7.5608,7.6263,7.686,7.7333,7.6296,7.5349,7.5045,7.5642,7.6115,7.6115,7.6454,7.6736,7.6736,7.6724,7.6724,7.6736,7.6702,7.6736,7.6724,7.6724,7.6724,7.6736,7.6724,7.6724,7.677,7.7075,7.7379,7.7232,7.6398,7.5755,7.6026,7.6115,7.6251,7.5288,7.5288,7.5288,7.5288,7.5277,7.4875,7.4308,7.378,7.4528,7.4566,7.4097,7.4762,7.5405,7.6048,7.6724,7.7063,7.7063,7.7718,7.8022,7.8022,7.8022,7.8022,7.8022,7.809,7.8191,7.8293,7.8394,7.8462,7.8585,7.9194,7.9486,7.9452,8.0547,8.0698,7.9841,7.8052,7.719,7.7321,7.8505,7.8775,7.8157,7.8686,7.7638,7.4987,7.6251,7.6026,7.3928,7.439,7.3871,7.1977,7.1154,7.0511,6.9958,6.8741,6.7184,0.0,6.413,0.0,0.0,0.0,0.0,0.0,0.0,0.0,0.0,6.5527,6.5943,6.4468,6.9417,7.165,6.9113,7.0692,7.2146,7.2902,7.3556,7.4221,7.4953,7.5608,7.598,7.598,7.6623,7.7029,7.7029,7.7684,7.8157,7.8157,7.8191,7.8124,7.8191,7.7988,7.7819,7.8022,7.8022,7.7819,7.7853,7.7921,7.7921,7.7954,7.7887,7.8022,7.7921,7.7921,7.7954,7.7954,7.7887,7.7921,7.7988,7.8056,7.8157,7.8124,7.8124,7.8056,7.7887,7.7785,7.8022,7.5288,7.5288,7.5288,7.5288,7.5282,7.5207,7.5075,7.5029,7.5836,7.6583,7.7164,7.7312,7.7447,7.7582,7.7718,7.7785,7.7819,7.7921,7.8022,7.8022,7.8022,7.8022,7.8056,7.8619,7.9215,7.9803,8.039,8.0999,8.1562,8.1718,8.1494,8.0872,8.041,7.9487,7.8252,0.0,0.0,0.0,7.9249,7.9046,7.8877,7.8416,7.7345,7.5608,7.6973,0.0,7.5405,7.5405,7.5303,7.4864,7.4187,0.0,0.0,0.0,0.0,0.0,0.0,0.0,0.0,0.0,0.0,0.0,6.7151,6.6914,6.6328,6.9214,7.0545,6.9191,7.2124,7.4221,7.4221,7.4593,7.5202,7.5946,7.6149,7.6555,7.7278,7.7481,7.7582,7.7582,7.7684,7.7785,7.7853,7.8416,7.8889,7.8945,7.9397,7.9735,7.9803,7.88,7.8056,7.8022,7.8124,7.8056,7.8022,7.8056,7.8157,7.8022,7.8022,7.8056,7.809,7.8056,7.8022,7.8056,7.8022,7.8056,7.809,7.8462,7.8991,7.8911,7.9397,7.9443,7.8259,7.8022,7.8022,7.5093,0.0,7.5108,7.5283,0.0,7.5606,7.5794,7.6131,7.5998,7.6212,7.6678,7.7045,7.7456,7.7951,7.8643,7.9208,7.9646,8.0018,8.0175,8.0175,8.0175,7.9913,7.9503,7.9872,8.0254,8.059,8.0959,8.1585,8.2356,8.2299,8.2053,8.1684,8.1154,8.0501,7.9826,8.0124,8.0461,8.0737,8.0378,8.0378,8.0703,8.0378,7.9061,7.6864,0.0,0.0,0.0,0.0,0.0,0.0,0.0,0.0,0.0,0.0,0.0,7.1706,6.9688,6.8594,6.8967,6.9305,7.0319,7.2191,7.3037,7.2834,7.1312,7.3308,7.4458,7.4131,7.5439,7.642,7.6804,7.6838,7.6995,7.7367,7.7447,7.7604,7.7921,7.8022,7.8022,7.8056,7.8314,7.8551,7.8551,7.9194,7.9769,8.0107,8.0479,8.0864,8.1088,8.0006,7.9105,7.9092,7.9105,7.9092,7.9071,7.9071,7.9105,7.9092,7.9071,7.9058,7.9071,7.9105,7.9058,7.9092,7.9375,7.9612,7.968,8.0242,8.0703,8.0771,8.1008,8.1075,8.0242,7.96,7.9071,7.4875,7.4875,7.4875,7.5209,7.5745,7.587,7.6321,7.6962,0.0,0.0,0.0,7.6872,7.754,7.8206,7.9354,8.0275,8.1028,8.1647,8.1903,8.1903,8.1916,8.1498,8.0756,8.0925,8.0992,8.0942,8.1092,8.1604,8.2267,8.2149,8.2056,8.2053,8.1794,8.1595,8.146,8.1595,8.1595,8.1389,8.1023,8.1088,8.1681,8.1757,8.0487,7.7738,7.9306,7.8875,7.6233,7.6696,7.6156,7.4359,7.3565,7.324,7.3341,7.2687,7.3161,7.4987,7.4639,7.4571,7.5156,7.5777,7.6454,7.722,7.7841,7.7582,7.6183,7.6724,7.7333,7.7954,7.8022,7.7988,7.8022,7.7988,7.8056,7.8191,7.8293,7.8428,7.8597,7.8733,7.8936,7.8868,7.9397,7.9676,7.9756,8.0264,8.0796,8.1338,8.146,8.1663,8.2103,8.1325,8.0581,8.0581,8.0581,8.0615,8.0581,8.0581,8.0581,8.0581,8.0581,8.0581,8.0581,8.0581,8.0581,8.0581,8.1135,8.1372,8.1507,8.1832,8.2395,8.2395,8.2395,8.2395,8.2293,8.1447,8.0615,7.4905,7.4875,7.4875,7.4938,7.5066,7.5635,7.6321,7.7134,7.8471,7.906,7.9042,7.9944,7.9983,7.9346,7.9575,7.9711,7.9837,7.9936,8.0001,0.0,8.0001,7.9945,7.9828,8.0606,8.0909,8.0814,8.1553,8.1926,8.1957,8.195,8.1925,8.1828,8.1089,8.0405,7.9855,8.0373,8.1075,8.1774,7.988,7.8949,7.9029,7.9215,7.8815,7.7838,7.9162,7.9481,7.8384,7.7842,7.744,7.7119,7.6558,7.6555,7.7142,7.6487,7.6521,7.7413,7.7413,7.7413,7.7515,7.7616,7.801,7.8708,7.8877,7.8572,7.7785,7.7785,7.7887,7.8022,7.8157,7.8022,7.8022,7.8124,7.8428,7.8957,7.9532,8.0107,8.0695,8.127,8.1583,8.1549,8.1853,8.1853,8.1752,8.1921,8.2035,8.2192,8.2241,8.2301,8.241,8.2225,8.209,8.209,8.209,8.209,8.1921,8.2056,8.1955,8.209,8.1989,8.1921,8.1887,8.1887,8.1921,8.2022,8.2137,8.2238,8.2272,8.2293,8.2564,8.2631,8.2665,8.2598,8.2665,8.2327,8.209,7.4897,7.4897,7.4897,7.5341,7.6057,7.7069,7.7727,7.8195,7.9876,7.9693,7.8335,7.9019,7.9432,7.9523,7.9927,8.0366,8.0843,8.0843,8.0875,8.0875,8.1221,8.0913,8.0259,8.1308,8.1605,8.1204,8.1979,8.2588,8.2912,8.2514,8.2064,8.1559,8.0317,7.9457,7.9182,7.9457,7.9855,8.0267,8.0326,8.0352,8.0352,8.0419,7.9725,7.8141,7.9529,8.0,7.9318,7.8939,7.9188,8.022,7.951,7.9476,8.0319,7.9701,7.9443,7.9748,7.9397,7.9206,7.9206,7.9578,8.012,8.0805,8.0906,8.0737,8.0412,8.0018,7.9951,8.0344,8.0378,8.0378,8.0378,8.0378,8.0547,8.0872,8.1211,8.1528,8.1832,8.2158,8.2395,8.2395,8.2395,8.2395,8.2395,8.2395,8.2598,8.2889,8.305,8.3093,8.31,8.2811,8.2583,8.2441,8.2395,8.2395,8.2415,8.2395,8.2395,8.2395,8.2395,8.2395,8.2395,8.2428,8.2428,8.2428,8.2712,8.2983,8.3003,8.3342,8.368,8.42,8.4234,8.4234,8.4234,8.393,8.3477,7.5318,7.5335,7.5335,7.6018,7.7185,7.823,7.8766,7.9005,8.0269,7.9573,7.7716,7.8343,7.9061,7.9585,8.0174,8.0903,8.1655,8.1745,8.173,8.1795,8.2282,8.1844,8.0896,8.1984,8.2192,8.1605,8.2241,8.2743,8.2941,8.2341,8.1634,8.0787,7.9526,7.8834,7.8682,7.8834,7.8895,7.8991,8.0315,8.102,8.102,8.1214,8.038,7.8676,7.9547,7.9948,7.9423,7.9327,7.9903,8.1125,8.0937,8.1115,8.177,8.1548,8.1412,8.1481,8.1021,8.0682,8.0716,8.1236,8.1879,8.2577,8.2631,8.2699,8.2834,8.2374,8.2116,8.2361,8.2259,8.2293,8.2259,8.2293,8.2395,8.2395,8.2577,8.2611,8.2631,8.2813,8.2837,8.2771,8.2718,8.27,8.2547,8.2642,8.3073,8.3685,8.3944,8.3983,8.3946,8.3554,8.3218,8.3006,8.2849,8.2746,8.2718,8.3073,8.3261,8.3186,8.3422,8.3646,8.3646,8.3511,8.3477,8.3714,8.3998,8.4336,8.437,8.4728,8.5303,8.5757,8.5689,8.5635,8.5567,8.4979,8.4559,7.6617,7.6617,7.6587,7.7084,7.7784,7.7979,7.8369,7.8881,7.9103,7.9013,7.8822,8.0375,8.06,8.011,8.0078,8.0516,8.1237,8.1252,8.1237,8.1284,8.1332,8.1284,8.1173,8.2154,8.2107,8.1427,8.2155,8.1904,8.0748,8.0504,7.9981,7.9206,7.8955,7.8624,7.815,7.8611,7.8903,7.8899,7.8535,7.8354,7.842,7.9188,7.9242,7.8439,7.8518,7.8581,7.8612,7.8476,7.8217,7.794,7.9376,8.0197,8.0344,8.1008,8.171,8.2249,8.2246,8.2192,8.2225,8.2272,8.2678,8.3287,8.3503,8.3748,8.4309,8.4343,8.37,8.2902,8.2496,8.2598,8.2428,8.2564,8.2699,8.2834,8.3219,8.3389,8.3518,8.4018,8.419,8.363,8.3575,8.3383,8.3063,8.3397,8.4005,8.4603,8.4627,8.463,8.4602,8.4472,8.4403,8.4385,8.4077,8.3634,8.3724,8.4703,8.5087,8.5358,8.596,8.6048,8.5946,8.6081,8.642,8.5642,8.6183,8.6217,8.6318,8.6656,8.6589,8.667,8.6399,8.5872,8.5736,8.5317,8.4999,7.6826,7.6826,7.6826,7.7212,7.7836,7.8262,7.8602,7.887,7.9324,7.9255,7.9011,8.0039,8.0083,7.9385,7.9371,7.9801,8.0505,8.0049,8.0359,8.1152,8.1143,8.0947,8.0715,8.2234,8.2133,8.0716,8.1725,8.1732,8.073,8.02,7.9792,7.9481,7.9063,7.8695,7.8478,7.8695,7.8846,7.8839,7.8212,7.7685,7.7386,7.7738,7.7642,7.7098,7.7717,7.8447,7.8827,7.8426,7.8484,7.9192,7.9188,7.981,8.1334,8.0855,8.1523,8.3629,8.3878,8.4197,8.4972,8.4674,8.4742,8.5439,8.5506,8.5642,8.5912,8.598,8.5675,8.5182,8.4661,8.4573,8.4931,8.5033,8.5067,8.51,8.5351,8.5338,8.497,8.5144,8.5144,8.4564,8.4451,8.438,8.4204,8.4345,8.4676,8.4916,8.4764,8.4547,8.4503,8.4188,8.395,8.3959,8.3878,8.4309,8.479,8.5387,8.5968,8.6358,8.6656,8.6893,8.6961,8.6893,8.6859,8.6927,8.6995,8.6995,8.6758,8.6927,8.6961,8.7177,8.7448,8.709,8.711,8.6501,8.6352,7.7335,7.7365,7.7335,7.7634,7.81,7.8597,7.8789,7.8861,7.935,7.9309,7.8897,7.9368,7.9349,7.8949,7.908,7.959,8.0194,7.9726,8.0076,8.1084,8.1107,8.0827,8.055,8.1842,8.1807,8.0638,8.1319,8.1416,8.0688,7.9953,7.9599,7.9493,7.9076,7.8789,7.8789,7.8789,7.8789,7.8747,7.813,7.7574,7.7134,7.6827,7.6462,7.6051,7.6899,7.7805,7.8545,7.8208,7.8465,7.9536,7.8984,7.9527,8.1315,8.059,8.1472,8.4438,8.521,8.5799,8.6832,8.6399,8.6332,8.6825,8.6893,8.6893,8.6893,8.6893,8.6912,8.6828,8.6608,8.6528,8.6525,8.6612,8.6557,8.6438,8.6376,8.6167,8.5658,8.5668,8.5359,8.4877,8.4628,8.4771,8.4756,8.4733,8.4787,8.4988,8.4751,8.443,8.4402,8.4148,8.3872,8.3809,8.4174,8.4683,8.5511,8.6048,8.6396,8.7011,8.738,8.7637,8.7516,8.7516,8.7516,8.7922,8.7617,8.755,8.7786,8.7719,8.7448,8.782,8.7989,8.7955,8.7786,8.7333,8.7265,7.8717,7.8687,7.8699,7.8639,7.8747,7.8777,7.8789,7.8789,7.8861,7.8825,7.8789,7.8861,7.8837,7.8842,7.9458,8.0235,8.0829,8.0716,8.0784,8.1008,8.0949,8.0977,8.0977,8.1055,8.1038,8.0704,8.0904,8.0688,7.9935,7.9255,7.8843,7.8861,7.8825,7.8789,7.8789,7.8789,7.8789,7.8729,7.816,7.7753,7.7592,7.6572,7.6029,7.6037,7.602,7.6424,7.6999,7.7586,7.7694,7.7022,7.8399,7.9337,7.9552,8.0354,8.1899,8.4048,8.5785,8.6708,8.6782,8.6653,8.6701,8.6851,8.6883,8.692,8.6972,8.7,8.7042,8.7021,8.745,8.727,8.6261,8.6275,8.5996,8.5462,8.5266,8.5285,8.515,8.5268,8.4793,8.4388,8.4338,8.4405,8.4348,8.4244,8.4642,8.5096,8.5231,8.5183,8.5132,8.5136,8.5057,8.5024,8.51,8.5195,8.523,8.6053,8.7069,8.7747,8.8294,8.8801,8.8951,8.9018,8.8917,8.8897,8.8714,8.868,8.8917,8.8815,8.8511,8.8443,8.8226,8.8158,8.826,8.7468,8.7468,7.8789,7.8789,7.8789,7.8789,7.8789,7.8789,7.8789,7.8789,7.8789,7.8789,7.8789,7.8789,7.8789,7.8825,7.9076,7.9599,8.0217,7.9812,8.0094,8.0844,8.0531,8.0304,8.0357,8.0775,8.0462,7.9741,8.0059,7.9918,7.9273,7.8915,7.8789,7.8789,7.8789,7.8789,7.8789,7.8789,7.8789,7.8729,7.816,7.7783,7.7753,7.6916,7.6647,7.7083,7.6706,7.6766,7.7424,7.7707,7.7527,7.6826,7.7068,7.7676,7.8871,8.1062,8.2313,8.2604,8.3677,8.479,8.5526,8.5304,8.5271,8.5774,8.6786,8.73,8.7414,8.7576,8.7753,8.7769,8.7514,8.7023,8.6553,8.6838,8.7084,8.6545,8.6365,8.614,8.5923,8.5836,8.5611,8.5015,8.4879,8.4868,8.4826,8.4895,8.5024,8.5219,8.5283,8.5283,8.5283,8.5283,8.5283,8.5283,8.5315,8.5418,8.5835,8.6505,8.7379,8.8278,8.8917,8.8951,8.9086,8.9086,8.8998,8.8998,8.91,8.91,8.9066,8.9032,8.8849,8.8815,8.8612,8.8405,8.8714,8.8033,8.8143,7.8789,7.8789,7.8789,7.8789,7.8789,7.8789,7.8789,7.8789,7.8789,7.8789,7.8789,7.8789,7.8789,7.8789,7.8789,7.9058,7.9487,7.9041,7.9363,8.0199,7.9776,7.9576,7.9617,8.0059,7.9776,7.9005,7.9309,7.9261,7.8861,7.8789,7.8789,7.8789,7.8789,7.8789,7.8789,7.8789,7.8789,7.8699,7.834,7.813,7.8041,7.7454,7.7335,7.7664,7.7365,7.7424,7.8071,7.813,7.7921,7.7454,7.7035,7.7392,7.8716,8.1144,8.2297,8.1696,8.2681,8.3722,8.4583,8.4589,8.4602,8.4805,8.6383,8.7419,8.7297,8.7647,8.7827,8.7754,8.7504,8.6876,8.6348,8.6891,8.7297,8.6744,8.6608,8.6441,8.6029,8.5952,8.5718,8.5375,8.5233,8.5267,8.5283,8.5283,8.5283,8.5283,8.5283,8.5283,8.5283,8.5283,8.5283,8.5283,8.5283,8.5596,8.5955,8.6468,8.719,8.8041,8.8576,8.8756,8.8945,8.8988,8.9002,8.9044,8.9044,8.9072,8.9072,8.9044,8.9016,8.8945,8.8751,8.8404,8.859,8.8714,8.828,7.8789,7.8789,7.8789,7.8789,7.8789,7.8789,7.8789,7.8789,7.8789,7.8789,7.8789,7.8789,7.8789,7.8789,7.8789,7.8825,7.8861,7.8825,7.8861,7.9005,7.8915,7.8897,7.8915,7.9005,7.9023,7.8789,7.8825,7.8843,7.8807,7.8789,7.8789,7.8789,7.8789,7.8789,7.8789,7.8789,7.8789,7.8777,7.8717,7.8729,7.8699,7.813,7.7831,7.7891,7.7813,7.81,7.8747,7.8747,7.8657,7.8609,7.8579,7.8729,7.8878,8.0448,8.1377,8.1519,8.2875,8.3738,8.3883,8.452,8.4377,8.4267,8.5804,8.6582,8.6411,8.6642,8.6843,8.6768,8.6726,8.6393,8.5407,8.5641,8.5904,8.5455,8.5518,8.5487,8.5377,8.5315,8.5299,8.5283,8.5283,8.5283,8.5283,8.5283,8.5283,8.5283,8.5283,8.5283,8.5283,8.5283,8.5283,8.5283,8.5283,8.5471,8.5859,8.6256,8.6936,8.7574,8.7958,8.8219,8.8477,8.8577,8.852,8.852,8.8079,8.8065,8.7489,8.7503,8.7752,8.7785,8.7891,8.7677,8.7404,8.7183,8.7109,7.8789,7.8789,7.8789,7.8789,7.8789,7.8789,7.8789,7.8789,7.8789,7.8789,7.8789,7.8789,7.8789,7.8789,7.8789,7.8789,7.8789,7.8789,7.8789,7.8789,7.8789,7.8789,7.8789,7.8789,7.8789,7.8789,7.8789,7.8789,7.8789,7.8789,7.8789,7.8789,7.8789,7.8789,7.8789,7.8789,7.8789,7.8789,7.8789,7.8789,7.8789,7.8597,7.8489,7.8489,7.8507,7.8609,7.8777,7.8789,7.8549,7.819,7.81,7.81,7.8405,7.9539,8.03,8.0418,8.0821,8.12,8.1203,8.1545,8.2035,8.2354,8.3379,8.4219,8.4696,8.4538,8.4426,8.4315,8.3946,8.3458,8.326,8.3277,8.3961,8.5158,8.5283,8.5284,8.5283,8.5283,8.5283,8.5283,8.5283,8.5283,8.5252,8.5221,8.511,8.5126,8.5142,8.5142,8.5205,8.5063,8.5283,8.5283,8.53,8.4858,8.4746,8.4666,8.4982,8.5698,8.6328,8.6978,8.7393,8.7614,8.7643,8.7541,8.7135,8.6744,8.6151,8.5999,8.6257,8.5968,8.5554,8.5384,8.5321,8.5354,8.5449,7.8789,7.8789,7.8789,7.8789,7.8789,7.8789,7.8789,7.8789,7.8789,7.8789,7.8789,7.8789,7.8789,7.8789,7.8789,7.8789,7.8789,7.8789,7.8789,7.8789,7.8789,7.8789,7.8789,7.8789,7.8789,7.8789,7.8789,7.8789,7.8789,7.8789,7.8789,7.8789,7.8789,7.8789,7.8789,7.8789,7.8789,7.8789,7.8789,7.8789,7.8789,7.8789,7.8789,7.8789,7.8789,7.8789,7.8789,7.8789,7.8609,7.825,7.819,7.816,7.8256,7.9015,7.9493,7.9493,7.9493,7.9528,7.9511,8.0028,8.0099,8.0627,8.1627,8.2504,8.3001,8.2705,8.2753,8.2904,8.2552,8.2112,8.2146,8.2129,8.2781,8.3897,8.4443,8.4858,8.5142,8.5283,8.5047,8.4842,8.4667,8.4523,8.4235,8.4122,8.4122,8.4122,8.409,8.4122,8.4122,8.4026,8.4171,8.4171,8.3864,8.349,8.3195,8.3096,8.3015,8.3671,8.4379,8.5058,8.5663,8.5756,8.5802,8.5756,8.5461,8.5384,8.4883,8.4663,8.4679,8.4011,8.356,8.3834,8.4091,8.3979,8.3914,7.8789,7.8789,7.8849,7.8908,7.8908,7.8968,7.9058,7.8968,7.9016,7.9058,7.8998,7.9106,7.9028,7.8986,7.9136,7.9136,7.8938,7.9058,7.9118,7.9106,7.9076,7.9046,7.8837,7.8908,7.8908,7.8789,7.8789,7.8789,7.8789,7.8789,7.8789,7.8789,7.8789,7.8789,7.8789,7.8789,7.8789,7.8789,7.8789,7.8789,7.8789,7.8789,7.8789,7.8789,7.8789,7.8789,7.8789,7.8789,7.8789,7.8777,7.8717,7.8717,7.8759,7.8789,7.8879,7.8915,7.8825,7.8879,7.9041,7.9599,7.9905,7.9546,8.0696,8.1827,8.1545,8.161,8.1762,8.2189,8.1898,8.1675,8.1658,8.1655,8.1825,8.2112,8.3013,8.3945,8.4889,8.4953,8.4427,8.3799,8.3571,8.3293,8.2532,8.2414,8.2381,8.2381,8.2448,8.2548,8.2532,8.2665,8.2297,8.2381,8.2731,8.2398,8.2196,8.1994,8.181,8.1508,8.2239,8.3019,8.3882,8.4091,8.3818,8.3769,8.3754,8.3721,8.3348,8.2807,8.2692,8.2443,8.2393,8.274,8.2591,8.2241,8.2138,7.8789,7.8867,7.9327,7.9519,7.9608,8.0045,8.0255,8.0285,8.0225,8.0165,8.0255,8.0255,8.0195,8.0255,8.0225,8.0255,8.0195,8.0225,8.0285,8.0285,8.0285,7.9675,7.9106,7.9327,7.9297,7.8908,7.8938,7.8789,7.8789,7.8926,7.8878,7.8789,7.8908,7.8849,7.8789,7.8819,7.8789,7.8789,7.8789,7.8789,7.8789,7.8789,7.8789,7.8789,7.8789,7.8789,7.8789,7.8789,7.8789,7.8789,7.8789,7.8789,7.8789,7.8789,7.8789,7.8789,7.8789,7.8789,7.8861,7.9094,7.9404,7.987,7.9847,7.9958,8.0609,8.0028,7.9834,7.9875,7.9711,7.9759,7.9723,7.9776,8.0063,8.0865,8.1791,8.2615,8.298,8.2931,8.2798,8.2565,8.25,8.2297,8.2045,8.1878,8.1878,8.1878,8.1892,8.1875,8.1672,8.1723,8.1553,8.1943,8.2146,8.1621,8.121,8.0969,8.0536,7.9741,8.0086,8.0821,8.1796,8.2569,8.2066,8.1627,8.1683,8.17,8.0756,7.9932,8.0195,8.0932,8.0618,8.0596,8.0173,7.9822,7.9998,7.9627,7.9656,8.0045,8.0207,8.0285,8.0644,8.0823,8.0823,8.0823,8.0823,8.0823,8.0823,8.0823,8.0823,8.0794,8.0794,8.0823,8.0823,8.0794,8.0823,8.1081,8.0632,7.9986,8.0105,7.9997,7.9686,7.9627,7.9656,7.9656,7.9627,7.9627,7.9686,7.9627,7.9507,7.9238,7.9208,7.9076,7.8849,7.8789,7.8789,7.8789,7.8789,7.8789,7.8789,7.8789,7.8789,7.8789,7.8789,7.8789,7.8789,7.8789,7.8789,7.8789,7.8789,7.8789,7.8789,7.8789,7.8789,7.8789,7.8789,7.9094,7.9493,7.9076,7.9184,7.9511,7.913,7.8789,7.8897,7.8807,7.8789,7.8789,7.8789,7.9112,7.9688,8.0326,8.1107,8.1912,8.2196,8.1875,8.1604,8.1368,8.1145,8.0848,8.0762,8.0744,8.0657,8.0501,8.0536,8.0536,8.0744,8.0865,8.1004,8.0969,8.0396,8.0134,7.994,7.9923,7.9148,7.9076,7.9599,8.0116,8.1055,8.0588,8.0099,7.987,7.9617,7.9118,7.8789,7.9136,7.9445,7.8861,7.8789,7.8789,7.8789,7.8789,8.0823,8.0823,8.0883,8.0913,8.0913,8.1003,8.1153,8.1063,8.1141,8.1123,8.1123,8.1063,8.1212,8.1003,8.1242,8.1063,8.1093,8.1212,8.1153,8.1321,8.159,8.153,8.1111,8.0902,8.0794,8.0644,8.0764,8.0704,8.0584,8.0644,8.0734,8.0614,8.0644,8.0464,7.9997,7.9878,7.9597,7.9267,7.9238,7.9148,7.9058,7.8998,7.8968,7.8789,7.8789,7.8789,7.8789,7.8789,7.8789,7.8789,7.8789,7.8789,7.8789,7.8789,7.8789,7.8789,7.8789,7.8789,7.8789,7.8789,7.8789,7.8897,7.8879,7.8789,7.8897,7.8843,7.8789,7.8789,7.8789,7.8789,7.8819,7.8849,7.9022,7.9233,7.9167,7.9969,8.1268,8.1805,8.1351,8.0449,8.0256,7.9728,7.9172,7.8789,7.8897,7.9688,7.9546,7.9599,7.9599,7.9653,7.9582,7.9439,7.9297,7.9058,7.8969,7.8951,7.9023,7.8843,7.8843,7.9094,7.9112,7.9511,7.9172,7.8969,7.9207,7.9225,7.8987,7.8789,7.8789,7.8789,7.8789,7.8789,7.8789,7.8789,7.8789,8.0823,8.0853,8.1381,8.159,8.168,8.2129,8.2357,8.2327,8.2338,8.2249,8.2357,8.2338,8.2309,8.2309,8.2249,8.2387,8.2249,8.2249,8.2387,8.2368,8.2458,8.2537,8.2219,8.183,8.1321,8.1033,8.0853,8.0853,8.0853,8.0973,8.0823,8.0883,8.1003,8.0715,8.0625,8.0584,8.0524,8.0375,8.0345,8.0016,7.9638,7.9567,7.9387,7.8968,7.8867,7.8819,7.8789,7.8789,7.8789,7.8789,7.8789,7.8789,7.8789,7.8789,7.8789,7.8789,7.8789,7.8789,7.8789,7.8819,7.8789,7.8789,7.8849,7.8789,7.8789,7.8789,7.8789,7.8789,7.8789,7.8878,7.8968,7.9327,7.9519,7.9578,7.9615,7.9778,8.0128,7.9884,7.9576,7.9315,7.9238,7.9076,7.8843,7.8807,7.8789,7.8789,7.8819,7.8819,7.8849,7.8878,7.9028,7.9148,7.9028,7.9088,7.9297,7.9297,7.9327,7.9297,7.9238,7.9178,7.9178,7.9028,7.9118,7.8998,7.8843,7.8789,7.8789,7.8789,7.8789,7.8789,7.8789,7.8789,7.8789,7.8789,7.8789,8.174,8.177,8.2099,8.2268,8.2309,8.2627,8.2806,8.2806,8.2806,8.2806,8.2806,8.2806,8.2806,8.2806,8.2806,8.2776,8.2806,8.2806,8.2776,8.2776,8.2776,8.2776,8.2776,8.2477,8.2058,8.174,8.177,8.174,8.174,8.171,8.18,8.174,8.171,8.159,8.1302,8.1291,8.1063,8.0794,8.0794,8.0614,8.0345,8.0255,8.0195,7.9716,7.9447,7.9267,7.9297,7.8938,7.8819,7.8789,7.8819,7.8837,7.8807,7.8807,7.8789,7.8789,7.8789,7.8789,7.8819,7.9058,7.9148,7.8867,7.9058,7.9028,7.8908,7.8789,7.8998,7.9178,7.9327,7.9387,7.9686,7.9986,8.0237,8.0285,8.0266,8.0266,8.0117,7.9417,7.8789,7.8789,7.8861,7.8861,7.8789,7.8968,7.8878,7.8908,7.9387,7.9387,7.9387,7.9447,7.9686,7.9698,7.9477,7.9477,7.9776,7.9926,7.9986,8.0016,8.0045,8.0045,8.0045,7.9806,7.9597,7.9327,7.9058,7.8819,7.8789,7.8789,7.8897,7.8837,7.8837,7.8807,7.8789,7.8789,7.8789,8.2806,8.2806,8.2806,8.2806,8.2806,8.2806,8.2806,8.2806,8.2806,8.2806,8.2806,8.2806,8.2806,8.2806,8.2806,8.2836,8.2907,8.2806,8.2836,8.3027,8.2866,8.2806,8.2776,8.2717,8.2687,8.2806,8.2657,8.2657,8.2687,8.2776,8.2537,8.2717,8.2747,8.2387,8.2009,8.1919,8.177,8.1392,8.1321,8.1171,8.0992,8.0943,8.0883,8.0554,8.0207,7.9967,7.9848,7.9537,7.9178,7.9088,7.9088,7.9106,7.9076,7.8837,7.8878,7.8938,7.9028,7.9178,7.9387,7.9656,7.9716,7.9166,7.9597,7.9686,7.9327,7.9297,7.9537,7.9776,7.9986,8.0135,8.0704,8.0883,8.0913,8.0943,8.0943,8.0943,8.0734,7.9836,7.9357,7.9238,7.9447,7.9507,7.9417,7.9447,7.9238,7.9148,7.9638,7.9967,7.9937,7.9997,8.0207,8.0266,8.0075,7.9986,8.0225,8.0375,8.0464,8.0584,8.0674,8.0674,8.0674,8.0405,8.0045,7.9656,7.9357,7.9238,7.9267,7.9525,7.9465,7.9106,7.8986,7.9088,7.8998,7.8819,7.8849,8.2806,8.2806,8.2806,8.2806,8.2806,8.2806,8.2806,8.2806,8.2806,8.2806,8.2806,8.2806,8.2836,8.2836,8.2806,8.3087,8.3397,8.3217,8.3177,8.3397,8.3177,8.2986,8.3016,8.3046,8.2956,8.2806,8.2836,8.2866,8.2806,8.2806,8.2806,8.2806,8.2806,8.2657,8.2597,8.2627,8.2507,8.2249,8.2219,8.2039,8.174,8.162,8.1441,8.1033,8.0764,8.0644,8.0614,8.0524,8.0464,8.0464,8.0464,8.0405,8.0135,7.9435,7.9238,7.9537,7.9656,7.9806,8.0195,8.0494,8.0584,8.0524,8.0554,8.0584,8.0405,8.0375,8.0375,8.0554,8.0674,8.0764,8.0794,8.1351,8.159,8.162,8.165,8.165,8.15,8.1003,8.0464,8.0483,8.0464,8.0315,8.0135,8.0016,7.9986,8.0016,8.0375,8.0614,8.0644,8.0644,8.0734,8.0734,8.0674,8.0644,8.0704,8.0794,8.0883,8.0973,8.1063,8.1063,8.1003,8.0823,8.0554,8.0513,8.0333,8.0225,8.0285,8.0255,8.0045,7.9746,7.9597,7.9459,7.9417,7.9327,7.9166,8.2806,8.2806,8.2806,8.2806,8.2806,8.2806,8.2806,8.2806,8.2806,8.2806,8.2896,8.3117,8.3247,8.3337,8.3666,8.3965,8.4036,8.3946,8.3965,8.4096,8.3906,8.3805,8.3745,8.3775,8.3775,8.3666,8.3487,8.3087,8.2836,8.2806,8.2806,8.2806,8.2806,8.2806,8.2806,8.2776,8.2806,8.2806,8.2776,8.2657,8.2357,8.2297,8.2069,8.186,8.1471,8.1321,8.1242,8.0932,8.0794,8.0794,8.0794,8.0823,8.0614,8.0345,8.0004,8.0285,8.0345,8.0434,8.0853,8.1033,8.1171,8.0853,8.1093,8.1093,8.0913,8.0794,8.1003,8.1302,8.174,8.183,8.189,8.2129,8.2297,8.2309,8.2297,8.2297,8.2238,8.1979,8.18,8.159,8.1111,8.0794,8.0674,8.0674,8.0764,8.0943,8.1153,8.1242,8.1302,8.1332,8.1351,8.153,8.156,8.156,8.156,8.153,8.15,8.156,8.159,8.159,8.168,8.162,8.177,8.1848,8.165,8.1093,8.0794,8.0584,8.0494,8.0434,8.0315,8.0195,8.0016,7.9836,7.9686,8.2806,8.2806,8.2937,8.2986,8.2997,8.3166,8.3206,8.3196,8.3236,8.3236,8.3236,8.3666,8.3897,8.4017,8.4365,8.4724,8.4844,8.4754,8.4694,8.4833,8.4634,8.4654,8.4664,8.4694,8.4574,8.4365,8.4156,8.3587,8.3117,8.2896,8.2806,8.2806,8.2806,8.2806,8.2806,8.2806,8.2806,8.2806,8.2806,8.2806,8.2806,8.2806,8.2806,8.2776,8.2279,8.2028,8.1949,8.165,8.1381,8.1332,8.1302,8.1272,8.1231,8.1201,8.1201,8.1201,8.1093,8.1063,8.1332,8.165,8.18,8.1482,8.174,8.165,8.1471,8.1471,8.15,8.1979,8.2357,8.2657,8.2597,8.2747,8.2747,8.2747,8.2747,8.2776,8.2717,8.2597,8.2567,8.2208,8.162,8.1441,8.1441,8.153,8.168,8.171,8.189,8.1949,8.2009,8.2028,8.2118,8.2417,8.2537,8.2537,8.2507,8.2417,8.2357,8.2279,8.2279,8.2309,8.2447,8.2567,8.2627,8.2507,8.2178,8.162,8.1291,8.1111,8.1212,8.1212,8.1063,8.0823,8.0494,8.0405,8.0345,8.2806,8.2836,8.3397,8.3617,8.3707,8.4175,8.4444,8.4395,8.4354,8.4455,8.4325,8.4534,8.4604,8.4694,8.4724,8.5083,8.5282,8.5162,8.5192,8.5462,8.5113,8.4904,8.4784,8.4694,8.4933,8.4933,8.4724,8.4215,8.3726,8.3206,8.2866,8.2866,8.2836,8.2806,8.2806,8.2806,8.2806,8.2806,8.2806,8.2806,8.2806,8.2806,8.2806,8.2776,8.2687,8.2597,8.2567,8.2368,8.2357,8.2417,8.2477,8.2537,8.2567,8.2567,8.2567,8.2387,8.2129,8.1919,8.2338,8.2507,8.2537,8.2309,8.2537,8.2627,8.2387,8.2327,8.2387,8.2627,8.2776,8.2806,8.2806,8.2806,8.2806,8.2806,8.2806,8.2806,8.2806,8.2806,8.2806,8.2776,8.2178,8.2297,8.2417,8.2507,8.2597,8.2627,8.2627,8.2597,8.2597,8.2507,8.2477,8.2717,8.2806,8.2806,8.2806,8.2806,8.2806,8.2806,8.2806,8.2806,8.2806,8.2806,8.2806,8.2627,8.2357,8.2268,8.2118,8.2039,8.2099,8.1979,8.174,8.1302,8.0853,8.0883,8.1093,8.3895,8.3906,8.4156,8.4275,8.4305,8.4574,8.4694,8.4694,8.4694,8.4694,8.4784,8.5132,8.5462,8.5721,8.5821,8.599,8.617,8.591,8.596,8.617,8.591,8.5791,8.587,8.584,8.584,8.5641,8.5462,8.5192,8.4594,8.3876,8.3307,8.3247,8.2967,8.2806,8.2836,8.2806,8.2806,8.2806,8.2806,8.2806,8.2806,8.2806,8.2806,8.2806,8.2806,8.2806,8.2806,8.2806,8.2806,8.2806,8.2806,8.2806,8.2776,8.2776,8.2776,8.2776,8.2537,8.2488,8.2698,8.2776,8.2806,8.2806,8.2806,8.2747,8.2806,8.2806,8.2806,8.2776,8.2806,8.2806,8.2806,8.2806,8.2806,8.2806,8.2806,8.2806,8.2806,8.2806,8.2806,8.2806,8.2806,8.2806,8.2806,8.2776,8.2717,8.2717,8.2717,8.2717,8.2717,8.2687,8.2687,8.2747,8.2806,8.2806,8.2806,8.2806,8.2806,8.2806,8.2806,8.2806,8.2806,8.2806,8.2806,8.2806,8.2627,8.2657,8.2806,8.2687,8.2477,8.2398,8.2338,8.1979,8.168,8.189,8.2039,8.5192,8.5192,8.5013,8.4953,8.4983,8.5132,8.5222,8.5222,8.5252,8.5203,8.5312,8.5731,8.6229,8.6589,8.6619,8.6559,8.6648,8.6708,8.6708,8.6708,8.6708,8.6619,8.6529,8.6619,8.6619,8.6678,8.617,8.591,8.5581,8.4923,8.4186,8.3946,8.3397,8.3117,8.2997,8.2896,8.2806,8.2806,8.2806,8.2806,8.2806,8.2806,8.2806,8.2806,8.2806,8.2806,8.2806,8.2806,8.2806,8.2806,8.2806,8.2806,8.2806,8.2806,8.2806,8.2806,8.2717,8.2717,8.2776,8.2806,8.2806,8.2806,8.2806,8.2806,8.2806,8.2806,8.2806,8.2806,8.2806,8.2806,8.2806,8.2806,8.2806,8.2806,8.2806,8.2806,8.2806,8.2806,8.2806,8.2806,8.2806,8.2806,8.2806,8.2806,8.2776,8.2806,8.2806,8.2806,8.2806,8.2806,8.2806,8.2806,8.2806,8.2806,8.2806,8.2806,8.2806,8.2806,8.2806,8.2806,8.2806,8.2806,8.2806,8.2806,8.2806,8.2806,8.2806,8.2806,8.2776,8.2657,8.2597,8.2687,8.2657,8.2806,8.2747,8.6559,8.6499,8.5881,8.5641,8.5691,8.6289,8.6529,8.6379,8.6469,8.6439,8.6379,8.6589,8.6589,8.6678,8.6708,8.6708,8.6708,8.6708,8.6708,8.6708,8.6708,8.6708,8.6708,8.6708,8.6708,8.6708,8.6499,8.6499,8.6439,8.584,8.5162,8.4634,8.4006,8.3767,8.3408,8.3057,8.2836,8.2806,8.2806,8.2806,8.2806,8.2806,8.2806,8.2806,8.2806,8.2806,8.2806,8.2806,8.2806,8.2806,8.2806,8.2806,8.2806,8.2806,8.2806,8.2806,8.2806,8.2806,8.2806,8.2806,8.2806,8.2806,8.2806,8.2806,8.2806,8.2806,8.2806,8.2806,8.2806,8.2806,8.2806,8.2806,8.2806,8.2806,8.2806,8.2806,8.2806,8.2806,8.2806,8.2806,8.2806,8.2806,8.2806,8.2806,8.2806,8.2806,8.2806,8.2806,8.2806,8.2806,8.2806,8.2806,8.2806,8.2806,8.2806,8.2806,8.2806,8.2806,8.2806,8.2806,8.2806,8.2806,8.2806,8.2806,8.2806,8.2806,8.2806,8.2806,8.2806,8.2806,8.2806,8.2806,8.2806,8.2806,8.2806,8.6708,8.6698,8.6409,8.6319,8.6319,8.6589,8.6708,8.6708,8.6708,8.6708,8.6708,8.6708,8.6708,8.6708,8.6708,8.6708,8.6708,8.6708,8.6708,8.6708,8.6708,8.6708,8.6708,8.6708,8.6708,8.6708,8.6708,8.6708,8.6619,8.6349,8.6289,8.5701,8.4844,8.4126,8.3677,8.3247,8.2956,8.2866,8.2836,8.2806,8.2806,8.2806,8.2806,8.2806,8.2806,8.2806,8.2806,8.2806,8.2806,8.2806,8.2806,8.2806,8.2806,8.2806,8.2806,8.2806,8.2806,8.2806,8.2806,8.2806,8.2806,8.2806,8.2806,8.2806,8.2806,8.2806,8.2806,8.2806,8.2836,8.2896,8.2806,8.2806,8.2806,8.2806,8.2866,8.2926,8.2986,8.3076,8.2937,8.2997,8.2896,8.2806,8.2806,8.2806,8.2806,8.2806,8.2806,8.2806,8.2806,8.2806,8.2806,8.2806,8.2806,8.2806,8.2806,8.2806,8.2806,8.2806,8.2806,8.2806,8.2806,8.2806,8.2806,8.2806,8.2806,8.2806,8.2806,8.2806,8.2806,8.2806,8.2806,8.2806,8.2806,8.2806,8.2806,8.6708,8.6708,8.6708,8.6708,8.6708,8.6708,8.6708,8.6708,8.6708,8.6708,8.6708,8.6708,8.6708,8.6708,8.6708,8.6708,8.6708,8.6708,8.6708,8.6708,8.6708,8.6708,8.6708,8.6708,8.6708,8.6708,8.6708,8.6708,8.6708,8.6708,8.6589,8.6319,8.5791,8.5073,8.4365,8.3696,8.3356,8.3356,8.3356,8.3356,8.3416,8.3416,8.3236,8.3206,8.3147,8.2937,8.2866,8.2806,8.2806,8.2806,8.2806,8.2806,8.2806,8.2806,8.2806,8.2806,8.2806,8.2806,8.2806,8.2806,8.2806,8.2806,8.2806,8.2806,8.2806,8.2806,8.2806,8.2806,8.2926,8.3057,8.3087,8.3326,8.3536,8.3685,8.3655,8.3715,8.3685,8.3696,8.3397,8.3247,8.3147,8.3147,8.3158,8.3187,8.3027,8.2986,8.2806,8.2806,8.2806,8.2806,8.2806,8.2806,8.2806,8.2806,8.2806,8.2806,8.2806,8.2806,8.2806,8.2806,8.2806,8.2806,8.2806,8.2806,8.2806,8.2806,8.2806,8.2806,8.2806,8.2806,8.2806,8.2806,8.2806,8.2806,8.2806,8.6708,8.6708,8.6708,8.6708,8.6708,8.6708,8.6708,8.6708,8.6708,8.6708,8.6708,8.6708,8.6708,8.6708,8.6708,8.6708,8.6708,8.6708,8.6708,8.6708,8.6708,8.6708,8.6708,8.6708,8.6708,8.6708,8.6708,8.6708,8.6708,8.6708,8.6708,8.6708,8.6379,8.602,8.5581,8.4933,8.4634,8.4604,8.4515,8.4455,8.4395,8.4384,8.4066,8.3827,8.3707,8.3517,8.3266,8.3177,8.3226,8.3196,8.3147,8.3147,8.3136,8.3087,8.3057,8.3046,8.2986,8.2956,8.2896,8.2866,8.2986,8.3087,8.3236,8.3087,8.2926,8.2866,8.2907,8.3057,8.3277,8.3587,8.3856,8.4126,8.4325,8.4384,8.4325,8.4295,8.4235,8.4205,8.3916,8.3786,8.3707,8.3707,8.3688,8.3647,8.3397,8.3177,8.2896,8.2806,8.2836,8.2806,8.2806,8.2806,8.2806,8.2806,8.2806,8.2806,8.2806,8.2806,8.2806,8.2806,8.2806,8.2806,8.2806,8.2806,8.2806,8.2806,8.2806,8.2806,8.2806,8.2806,8.2806,8.2806,8.2806,8.2806,8.2806,8.6708,8.6708,8.6708,8.6708,8.6708,8.6708,8.6708,8.6708,8.6708,8.6708,8.6708,8.6708,8.6708,8.6708,8.6738,8.6738,8.6738,8.6708,8.6708,8.6708,8.6708,8.6708,8.6708,8.6708,8.6708,8.6708,8.6708,8.6708,8.6708,8.6708,8.6708,8.6708,8.6648,8.6319,8.5671,8.5083,8.4694,8.4694,8.4664,8.4664,8.4694,8.4724,8.4634,8.4376,8.4365,8.4235,8.3936,8.3876,8.3876,8.3925,8.3876,8.3906,8.3936,8.3936,8.3965,8.3995,8.4025,8.4055,8.4055,8.4085,8.4055,8.4055,8.3936,8.3726,8.3487,8.3408,8.3408,8.3457,8.3677,8.3987,8.4335,8.4485,8.4624,8.4604,8.4574,8.4574,8.4545,8.4574,8.4455,8.4395,8.4365,8.4305,8.4286,8.4305,8.4115,8.3726,8.3446,8.3087,8.3027,8.2896,8.2806,8.2806,8.2806,8.2806,8.2836,8.3106,8.3147,8.3117,8.2986,8.2806,8.2806,8.3016,8.2986,8.3106,8.2926,8.2806,8.2986,8.3087,8.2866,8.2806,8.2836,8.2836,8.2806,8.2806,8.2806,8.6708,8.6708,8.6708,8.6708,8.6708,8.6708,8.6708,8.6708,8.6708,8.6708,8.6738,8.6918,8.7067,8.7067,8.7038,8.7038,8.7038,8.6768,8.6708,8.6708,8.6708,8.6708,8.6708,8.6708,8.6708,8.6708,8.6708,8.6708,8.6708,8.6708,8.6708,8.6708,8.6678,8.6469,8.603,8.5671,8.5492,8.5551,8.5581,8.5521,8.5521,8.5432,8.5342,8.5132,8.5013,8.4923,8.4754,8.4694,8.4724,8.4724,8.4724,8.4724,8.4724,8.4724,8.4694,8.4694,8.4694,8.4803,8.4923,8.5013,8.5073,8.5372,8.5043,8.4515,8.4156,8.4066,8.4066,8.4096,8.4215,8.4574,8.4933,8.5073,8.5282,8.5282,8.5312,8.5342,8.5372,8.5402,8.5252,8.5192,8.5043,8.4963,8.4844,8.4933,8.4893,8.4444,8.3995,8.3715,8.3416,8.3326,8.3266,8.3296,8.3386,8.3536,8.3626,8.3715,8.3685,8.3506,8.3386,8.3266,8.3506,8.3816,8.3596,8.3416,8.3596,8.3636,8.3506,8.3416,8.3296,8.3087,8.2907,8.2896,8.2806,8.2806,8.2806,8.6708,8.6708,8.6708,8.6708,8.6738,8.6888,8.6828,8.6708,8.6738,8.6768,8.6798,8.7467,8.7736,8.7736,8.7736,8.7736,8.7676,8.7157,8.7038,8.6948,8.7127,8.6978,8.6888,8.6858,8.6828,8.6738,8.6708,8.6708,8.6708,8.6708,8.6708,8.6708,8.6708,8.6589,8.6499,8.6439,8.6349,8.6289,8.6289,8.6259,8.6259,8.6409,8.611,8.587,8.5701,8.5462,8.5252,8.5103,8.5013,8.4963,8.4904,8.4844,8.4814,8.4784,8.4754,8.4814,8.4904,8.5282,8.5611,8.5701,8.596,8.614,8.5521,8.4993,8.4724,8.4743,8.4743,8.4863,8.5043,8.5402,8.5701,8.608,8.6409,8.6409,8.6439,8.6439,8.6469,8.6349,8.614,8.599,8.581,8.5611,8.5372,8.5372,8.5551,8.5372,8.5043,8.4983,8.4673,8.4265,8.4235,8.4205,8.4305,8.4455,8.4485,8.4295,8.4205,8.4025,8.4205,8.4205,8.4455,8.4455,8.4235,8.4175,8.4455,8.4455,8.4145,8.3936,8.3797,8.3606,8.3457,8.3046,8.2986,8.2836,8.2806,8.6708,8.6708,8.6708,8.6958,8.7437,8.7935,8.7606,8.6828,8.7167,8.7407,8.7437,8.8095,8.8414,8.8414,8.8394,8.8394,8.8304,8.8235,8.8155,8.8085,8.7906,8.7726,8.7576,8.7377,8.7137,8.6888,8.6768,8.6768,8.6738,8.6708,8.6708,8.6708,8.6708,8.6708,8.6708,8.6708,8.6708,8.6708,8.6708,8.6708,8.6708,8.6708,8.6499,8.6379,8.6319,8.611,8.602,8.599,8.599,8.602,8.608,8.611,8.612,8.614,8.614,8.614,8.617,8.6259,8.6379,8.6409,8.6469,8.6619,8.6229,8.5881,8.5611,8.5432,8.5432,8.5551,8.5641,8.59,8.614,8.6499,8.6708,8.6708,8.6708,8.6708,8.6708,8.6648,8.6439,8.6409,8.6229,8.617,8.593,8.599,8.617,8.614,8.608,8.599,8.5791,8.5312,8.5103,8.5053,8.5023,8.5143,8.4904,8.4684,8.4664,8.4634,8.4874,8.4963,8.4874,8.4844,8.4754,8.4844,8.5053,8.4933,8.4604,8.4485,8.4425,8.4395,8.4245,8.3655,8.3166,8.3076,8.2937,8.6858,8.7097,8.7077,8.7467,8.8095,8.8534,8.8175,8.7636,8.7935,8.8095,8.8185,8.8803,8.9103,8.9123,8.9103,8.9073,8.9073,8.8714,8.8544,8.8544,8.8753,8.8424,8.8185,8.8065,8.7885,8.7516,8.7217,8.7167,8.7008,8.6768,8.6708,8.6708,8.6708,8.6708,8.6708,8.6708,8.6708,8.6708,8.6708,8.6708,8.6708,8.6708,8.6708,8.6708,8.6708,8.6708,8.6708,8.6708,8.6708,8.6708,8.6708,8.6678,8.6678,8.6648,8.6668,8.6619,8.6589,8.6559,8.6619,8.6648,8.6678,8.6708,8.6678,8.6469,8.6259,8.611,8.611,8.614,8.617,8.6259,8.6499,8.6708,8.6708,8.6708,8.6708,8.6708,8.6708,8.6708,8.6678,8.6678,8.6648,8.6648,8.6648,8.6708,8.6678,8.6529,8.6469,8.6439,8.6319,8.608,8.59,8.587,8.5761,8.5701,8.5432,8.5312,8.5432,8.5551,8.5731,8.5731,8.5462,8.5492,8.5641,8.5641,8.5611,8.5492,8.5432,8.5192,8.5103,8.5053,8.4933,8.4384,8.3865,8.3487,8.3367,8.7217,8.7796,8.7805,8.8215,8.8744,8.8873,8.8903,8.8863,8.8873,8.8813,8.8923,8.9492,8.9761,8.9761,8.9761,8.9761,8.9642,8.9322,8.9202,8.8873,8.9112,8.8993,8.8863,8.8774,8.8564,8.8444,8.8175,8.7676,8.7467,8.7097,8.6708,8.6708,8.6708,8.6708,8.6708,8.6708,8.6708,8.6708,8.6708,8.6708,8.6708,8.6708,8.6708,8.6708,8.6708,8.6708,8.6708,8.6708,8.6708,8.6708,8.6708,8.6708,8.6708,8.6708,8.6708,8.6708,8.6708,8.6708,8.6708,8.6708,8.6708,8.6708,8.6678,8.6619,8.6529,8.6499,8.6469,8.6469,8.6469,8.6469,8.6648,8.6708,8.6708,8.6708,8.6708,8.6708,8.6708,8.6708,8.6708,8.6708,8.6708,8.6708,8.6708,8.6708,8.6708,8.6708,8.6708,8.6708,8.6648,8.6529,8.6469,8.6409,8.6319,8.62,8.6259,8.62,8.6379,8.6529,8.6499,8.6439,8.614,8.6319,8.6619,8.6409,8.614,8.6379,8.6349,8.602,8.5751,8.5731,8.5521,8.5103,8.4654,8.4275,8.3946,8.8304,8.8534,8.9013,8.9312,8.9522,8.993,9.0139,9.0139,9.0139,8.986,8.9621,9.007,9.0348,9.0319,9.0319,9.0319,9.0229,9.007,9.0139,9.0049,9.0019,8.9681,8.9522,8.9432,8.9202,8.8783,8.8454,8.8185,8.7646,8.7127,8.6708,8.6708,8.6708,8.6708,8.6798,8.6768,8.6708,8.6708,8.6708,8.6708,8.6708,8.6708,8.6708,8.6708,8.6708,8.6708,8.6708,8.6708,8.6708,8.6708,8.6708,8.6708,8.6708,8.6708,8.6708,8.6708,8.6708,8.6708,8.6708,8.6708,8.6708,8.6708,8.6708,8.6708,8.6678,8.6708,8.6708,8.6708,8.6708,8.6708,8.6708,8.6708,8.6708,8.6708,8.6708,8.6708,8.6708,8.6708,8.6708,8.6708,8.6708,8.6708,8.6708,8.6708,8.6708,8.6708,8.6708,8.6708,8.6708,8.6619,8.6619,8.6589,8.6619,8.6589,8.6708,8.6708,8.6708,8.6708,8.6619,8.6648,8.6708,8.6708,8.6708,8.6708,8.6619,8.6708,8.6708,8.6619,8.6409,8.6289,8.62,8.581,8.5731,8.5462,8.5013,8.8893,8.9222,8.9851,9.01,9.016,9.0468,9.0597,9.0597,9.0597,9.0438,9.016,9.0438,9.0597,9.0597,9.0597,9.0597,9.0597,9.0597,9.0477,9.0537,9.0567,9.0378,9.0219,9.007,8.995,8.9561,8.9193,8.8744,8.7885,8.7467,8.7187,8.7067,8.6948,8.6858,8.7008,8.6918,8.6708,8.6708,8.6708,8.6708,8.6708,8.6708,8.6708,8.6708,8.6708,8.6708,8.6708,8.6708,8.6708,8.6708,8.6708,8.6708,8.6708,8.6708,8.6708,8.6708,8.6708,8.6708,8.6708,8.6708,8.6708,8.6708,8.6708,8.6708,8.6708,8.6708,8.6708,8.6708,8.6708,8.6708,8.6708,8.6708,8.6708,8.6708,8.6708,8.6708,8.6708,8.6708,8.6708,8.6708,8.6708,8.6708,8.6708,8.6708,8.6708,8.6708,8.6708,8.6708,8.6708,8.6708,8.6708,8.6708,8.6708,8.6708,8.6708,8.6708,8.6708,8.6708,8.6708,8.6708,8.6708,8.6708,8.6708,8.6708,8.6708,8.6708,8.6708,8.6708,8.6708,8.6529,8.6559,8.6559,8.6529,8.6409,8.594,8.9312,8.9881,9.0378,9.0597,9.0597,9.0597,9.0597,9.0597,9.0597,9.0597,9.0537,9.0567,9.0597,9.0597,9.0597,9.0597,9.0597,9.0597,9.0597,9.0597,9.0597,9.0507,9.0537,9.0537,9.0388,9.0169,8.9801,8.9073,8.8215,8.7945,8.7736,8.7616,8.7347,8.7127,8.7317,8.7107,8.6738,8.6858,8.6858,8.6708,8.6708,8.6708,8.6708,8.6708,8.6708,8.6708,8.6708,8.6708,8.6708,8.6708,8.6708,8.6708,8.6708,8.6708,8.6708,8.6708,8.6708,8.6708,8.6708,8.6708,8.6708,8.6708,8.6708,8.6708,8.6708,8.6708,8.6708,8.6708,8.6708,8.6708,8.6708,8.6708,8.6708,8.6708,8.6708,8.6708,8.6708,8.6708,8.6708,8.6708,8.6708,8.6708,8.6708,8.6708,8.6708,8.6708,8.6708,8.6708,8.6708,8.6708,8.6708,8.6708,8.6708,8.6708,8.6708,8.6708,8.6708,8.6708,8.6708,8.6708,8.6708,8.6708,8.6708,8.6708,8.6708,8.6708,8.6708,8.6708,8.6708,8.6708,8.6708,8.6708,8.6678,8.6589,8.6619,9.0319,9.0438,9.0537,9.0597,9.0597,9.0597,9.0597,9.0597,9.0597,9.0597,9.0597,9.0597,9.0597,9.0597,9.0597,9.0597,9.0597,9.0597,9.0597,9.0597,9.0597,9.0597,9.0597,9.0597,9.0597,9.0408,9.007,8.9582,8.8923,8.8624,8.8265,8.7826,8.7706,8.7556,8.7526,8.7287,8.7097,8.7227,8.7127,8.6948,8.6858,8.6798,8.6708,8.6708,8.6708,8.6708,8.6708,8.6708,8.6708,8.6708,8.6708,8.6708,8.6708,8.6708,8.6708,8.6708,8.6708,8.6708,8.6708,8.6708,8.6708,8.6708,8.6708,8.6708,8.6708,8.6708,8.6708,8.6708,8.6708,8.6708,8.6708,8.6708,8.6708,8.6708,8.6708,8.6708,8.6708,8.6708,8.6708,8.6708,8.6708,8.6708,8.6708,8.6708,8.6708,8.6708,8.6708,8.6708,8.6708,8.6708,8.6708,8.6708,8.6708,8.6708,8.6708,8.6708,8.6708,8.6708,8.6708,8.6708,8.6708,8.6708,8.6708,8.6708,8.6708,8.6708,8.6708,8.6708,8.6708,8.6708,8.6708,8.6708,8.6708,8.6708,8.6708]},{"header":{"parameterUnit":"m.s-1","parameterCategory":1,"la1":31.0,"la2":29.5877,"lo1":-88.7671,"lo2":-86.6584,"dx":0.0162,"dy":0.0185,"nx":115,"ny":88,"refTime":"2022-11-18T18:00:00:Z","depth":0,"parameterNumber":3,"parameterNumberName":"V-component_of_WINDS"},"data":[0.0,0.0,0.0,0.0,0.0,0.0,0.0,0.0,0.0,0.0,0.0,0.0,0.0,0.0,0.0,0.0,0.0,0.0,0.0,0.0,0.0,0.0,0.0,0.0,0.0,0.0,0.0,0.0,0.0,0.0,0.0,0.0,0.0,0.0,0.0,0.0,0.0,0.0,0.0,0.0,0.0,0.0,0.0,0.0,0.0,0.0,0.0,0.0,0.0,0.0,0.0,0.0,0.0,0.0,0.0,0.0,0.0,0.0,0.0,0.0,0.0,0.0,0.0,0.0,0.0,0.0,0.0,0.0,0.0,0.0,0.0,0.0,0.0,0.0,0.0,0.0,0.0,0.0,0.0,0.0,0.0,0.0,0.0,0.0,0.0,0.0,0.0,0.0,0.0,0.0,0.0,0.0,0.0,0.0,0.0,0.0,0.0,0.0,0.0,0.0,0.0,0.0,0.0,0.0,0.0,0.0,0.0,0.0,0.0,0.0,0.0,0.0,0.0,0.0,0.0,0.0,0.0,0.0,0.0,0.0,0.0,0.0,0.0,0.0,0.0,0.0,0.0,0.0,0.0,0.0,0.0,0.0,0.0,0.0,0.0,0.0,0.0,0.0,0.0,0.0,0.0,0.0,0.0,0.0,0.0,0.0,0.0,0.0,0.0,0.0,0.0,0.0,0.0,0.0,0.0,0.0,0.0,0.0,0.0,0.0,0.0,0.0,0.0,0.0,0.0,0.0,0.0,0.0,0.0,0.0,0.0,0.0,0.0,0.0,0.0,0.0,0.0,0.0,0.0,0.0,0.0,0.0,0.0,0.0,0.0,0.0,0.0,0.0,0.0,0.0,0.0,0.0,0.0,0.0,0.0,0.0,0.0,0.0,0.0,0.0,0.0,0.0,0.0,0.0,0.0,0.0,0.0,0.0,0.0,0.0,0.0,0.0,0.0,0.0,0.0,0.0,0.0,0.0,0.0,0.0,0.0,0.0,0.0,0.0,0.0,0.0,0.0,0.0,0.0,0.0,0.0,0.0,0.0,0.0,0.0,0.0,0.0,0.0,0.0,0.0,0.0,0.0,0.0,0.0,0.0,0.0,0.0,0.0,0.0,0.0,0.0,0.0,0.0,0.0,0.0,0.0,0.0,0.0,0.0,0.0,0.0,0.0,0.0,0.0,0.0,0.0,0.0,0.0,0.0,0.0,0.0,0.0,0.0,0.0,0.0,0.0,0.0,0.0,0.0,0.0,0.0,0.0,0.0,0.0,0.0,0.0,0.0,0.0,0.0,0.0,0.0,0.0,0.0,0.0,0.0,0.0,0.0,0.0,0.0,0.0,0.0,0.0,0.0,0.0,0.0,0.0,0.0,0.0,0.0,0.0,0.0,0.0,0.0,0.0,0.0,0.0,0.0,0.0,0.0,0.0,0.0,0.0,0.0,0.0,0.0,0.0,0.0,0.0,0.0,0.0,0.0,0.0,0.0,0.0,0.0,0.0,0.0,0.0,0.0,0.0,0.0,0.0,0.0,0.0,0.0,0.0,0.0,0.0,0.0,0.0,0.0,0.0,0.0,0.0,0.0,0.0,0.0,0.0,0.0,0.0,0.0,0.0,0.0,0.0,0.0,0.0,0.0,0.0,0.0,0.0,0.0,0.0,0.0,0.0,0.0,0.0,0.0,0.0,0.0,0.0,0.0,0.0,0.0,0.0,0.0,0.0,0.0,0.0,0.0,0.0,0.0,0.0,0.0,0.0,0.0,0.0,0.0,0.0,0.0,0.0,0.0,0.0,0.0,0.0,0.0,0.0,0.0,0.0,0.0,0.0,0.0,0.0,0.0,0.0,0.0,0.0,0.0,0.0,0.0,0.0,0.0,0.0,0.0,0.0,0.0,0.0,0.0,0.0,0.0,0.0,0.0,0.0,0.0,0.0,0.0,0.0,0.0,0.0,0.0,0.0,0.0,0.0,0.0,0.0,0.0,0.0,0.0,0.0,0.0,0.0,0.0,0.0,0.0,0.0,0.0,0.0,0.0,0.0,0.0,0.0,0.0,0.0,0.0,0.0,0.0,0.0,0.0,0.0,0.0,0.0,0.0,0.0,0.0,0.0,0.0,0.0,0.0,0.0,0.0,0.0,0.0,0.0,0.0,0.0,0.0,0.0,0.0,0.0,0.0,0.0,0.0,0.0,0.0,0.0,0.0,0.0,0.0,0.0,0.0,0.0,0.0,0.0,0.0,0.0,0.0,0.0,0.0,0.0,0.0,0.0,0.0,0.0,0.0,0.0,0.0,0.0,0.0,0.0,0.0,0.0,0.0,0.0,0.0,0.0,0.0,0.0,0.0,0.0,0.0,0.0,0.0,0.0,0.0,0.0,0.0,0.0,0.0,0.0,0.0,0.0,0.0,0.0,0.0,0.0,0.0,0.0,0.0,0.0,0.0,0.0,0.0,0.0,0.0,0.0,0.0,0.0,0.0,0.0,0.0,0.0,0.0,0.0,0.0,0.0,0.0,0.0,0.0,0.0,0.0,0.0,0.0,0.0,0.0,0.0,0.0,0.0,0.0,0.0,0.0,0.0,0.0,0.0,0.0,0.0,0.0,0.0,0.0,0.0,0.0,0.0,0.0,0.0,0.0,0.0,0.0,0.0,0.0,0.0,0.0,0.0,0.0,0.0,0.0,0.0,0.0,0.0,0.0,0.0,0.0,0.0,0.0,0.0,0.0,0.0,0.0,0.0,0.0,0.0,0.0,0.0,0.0,0.0,0.0,0.0,0.0,0.0,0.0,0.0,0.0,0.0,0.0,0.0,0.0,0.0,0.0,0.0,0.0,0.0,0.0,0.0,0.0,0.0,0.0,0.0,0.0,0.0,0.0,0.0,0.0,0.0,0.0,0.0,0.0,0.0,0.0,0.0,0.0,0.0,0.0,0.0,0.0,0.0,0.0,0.0,0.0,0.0,0.0,0.0,0.0,0.0,0.0,0.0,0.0,0.0,0.0,0.0,0.0,0.0,0.0,0.0,0.0,0.0,0.0,0.0,0.0,0.0,0.0,0.0,0.0,0.0,0.0,0.0,0.0,0.0,0.0,0.0,0.0,0.0,0.0,0.0,0.0,0.0,0.0,0.0,0.0,0.0,0.0,0.0,0.0,0.0,0.0,0.0,0.0,0.0,0.0,0.0,0.0,0.0,0.0,0.0,0.0,0.0,0.0,0.0,0.0,0.0,0.0,0.0,0.0,0.0,0.0,0.0,0.0,0.0,0.0,0.0,0.0,0.0,0.0,0.0,0.0,0.0,0.0,0.0,0.0,0.0,0.0,0.0,0.0,0.0,0.0,0.0,0.0,0.0,0.0,0.0,0.0,0.0,0.0,0.0,0.0,0.0,0.0,0.0,0.0,0.0,0.0,0.0,0.0,0.0,0.0,0.0,0.0,0.0,0.0,0.0,0.0,0.0,0.0,0.0,0.0,0.0,0.0,0.0,0.0,0.0,0.0,0.0,0.0,0.0,0.0,0.0,0.0,0.0,0.0,0.0,0.0,0.0,0.0,0.0,0.0,0.0,0.0,0.0,0.0,0.0,0.0,0.0,0.0,0.0,0.0,0.0,0.0,0.0,0.0,0.0,0.0,0.0,0.0,0.0,0.0,0.0,0.0,0.0,0.0,0.0,0.0,0.0,0.0,0.0,0.0,0.0,0.0,0.0,0.0,0.0,0.0,0.0,0.0,0.0,0.0,0.0,0.0,0.0,0.0,0.0,0.0,0.0,0.0,0.0,0.0,0.0,0.0,0.0,0.0,0.0,0.0,0.0,0.0,0.0,0.0,0.0,0.0,0.0,0.0,0.0,0.0,0.0,0.0,0.0,0.0,0.0,0.0,0.0,0.0,0.0,0.0,0.0,0.0,0.0,0.0,0.0,0.0,0.0,0.0,0.0,0.0,0.0,0.0,0.0,0.0,0.0,0.0,0.0,0.0,0.0,0.0,0.0,0.0,0.0,0.0,0.0,0.0,0.0,0.0,0.0,0.0,0.0,0.0,0.0,0.0,0.0,0.0,0.0,0.0,0.0,0.0,0.0,0.0,0.0,0.0,0.0,0.0,0.0,0.0,0.0,0.0,0.0,0.0,0.0,0.0,0.0,0.0,0.0,0.0,0.0,0.0,0.0,0.0,0.0,0.0,0.0,0.0,0.0,0.0,0.0,0.0,0.0,0.0,0.0,0.0,0.0,0.0,0.0,0.0,0.0,0.0,0.0,0.0,0.0,0.0,0.0,1.7777,0.0,0.0,0.0,1.9497,0.0,0.0,0.0,0.0,0.0,0.0,0.0,0.0,0.0,0.0,0.0,0.0,0.0,0.0,0.0,0.0,0.0,0.0,0.0,0.0,0.0,0.0,0.0,0.0,0.0,0.0,0.0,0.0,0.0,0.0,0.0,0.0,0.0,0.0,0.0,0.0,0.0,0.0,0.0,0.0,0.0,0.0,0.0,0.0,0.0,0.0,0.0,0.0,0.0,0.0,0.0,0.0,0.0,0.0,0.0,0.0,0.0,0.0,0.0,0.0,0.0,0.0,0.0,0.0,0.0,0.0,0.0,0.0,0.0,0.0,0.0,0.0,0.0,0.0,0.0,0.0,0.0,0.0,0.0,0.0,0.0,0.0,0.0,0.0,0.0,0.0,0.0,0.0,0.0,0.0,0.0,0.0,0.0,0.0,0.0,0.0,0.0,0.0,0.0,0.0,0.0,0.0,0.0,0.0,0.0,0.0,0.0,0.0,0.0,0.0,1.9974,2.0584,1.9895,1.9815,2.0432,0.0,0.0,0.0,0.0,0.0,0.0,0.0,0.0,0.0,0.0,0.0,0.0,0.0,0.0,0.0,0.0,0.0,0.0,0.0,0.0,0.0,0.0,0.0,0.0,0.0,0.0,0.0,0.0,0.0,0.0,0.0,0.0,0.0,0.0,0.0,0.0,0.0,0.0,0.0,0.0,0.0,0.0,0.0,0.0,0.0,0.0,0.0,0.0,0.0,0.0,0.0,0.0,0.0,0.0,0.0,0.0,0.0,0.0,0.0,0.0,0.0,0.0,0.0,0.0,0.0,0.0,0.0,0.0,0.0,0.0,0.0,0.0,0.0,0.0,0.0,0.0,0.0,0.0,0.0,0.0,0.0,0.0,0.0,0.0,0.0,0.0,0.0,0.0,0.0,0.0,0.0,0.0,0.0,0.0,0.0,0.0,0.0,0.0,0.0,0.0,0.0,0.0,0.0,0.0,0.0,0.0,0.0,0.0,0.0,0.0,0.0,0.0,2.1163,2.0494,2.0854,0.0,0.0,0.0,0.0,0.0,0.0,0.0,0.0,0.0,0.0,0.0,0.0,0.0,0.0,0.0,0.0,0.0,0.0,0.0,0.0,0.0,0.0,0.0,0.0,0.0,0.0,0.0,0.0,0.0,0.0,0.0,0.0,0.0,0.0,0.0,0.0,0.0,0.0,0.0,0.0,0.0,0.0,0.0,0.0,0.0,0.0,0.0,0.0,0.0,0.0,0.0,0.0,0.0,0.0,0.0,0.0,0.0,0.0,0.0,0.0,0.0,0.0,0.0,0.0,0.0,0.0,0.0,0.0,0.0,0.0,0.0,0.0,0.0,0.0,0.0,0.0,0.0,0.0,0.0,0.0,0.0,0.0,0.0,0.0,0.0,0.0,0.0,0.0,0.0,0.0,0.0,0.0,0.0,0.0,0.0,0.0,0.0,0.0,0.0,0.0,0.0,0.0,0.0,0.0,0.0,0.0,0.0,0.0,0.0,0.0,2.0229,2.1436,2.2304,0.0,1.9934,0.0,0.0,0.0,0.0,0.0,0.0,0.0,0.0,0.0,0.0,0.0,0.0,0.0,0.0,0.0,0.0,0.0,0.0,0.0,0.0,0.0,0.0,0.0,0.0,0.0,0.0,0.0,0.0,0.0,0.0,0.0,0.0,0.0,0.0,0.0,0.0,0.0,0.0,0.0,0.0,0.0,0.0,0.0,0.0,0.0,0.0,0.0,0.0,0.0,0.0,0.0,0.0,0.0,0.0,0.0,0.0,0.0,0.0,0.0,0.0,0.0,0.0,0.0,0.0,0.0,0.0,0.0,0.0,0.0,0.0,0.0,0.0,0.0,0.0,0.0,0.0,0.0,0.0,0.0,0.0,0.0,0.0,0.0,0.0,0.0,0.0,0.0,0.0,0.0,0.0,0.0,0.0,0.0,0.0,0.0,0.0,0.0,0.0,0.0,0.0,0.0,0.0,0.0,0.0,0.0,0.0,0.0,0.0,0.0,0.0,2.2158,2.237,2.2142,2.1343,0.0,0.0,0.0,0.0,0.0,0.0,0.0,0.0,0.0,0.0,0.0,0.0,0.0,0.0,0.0,0.0,0.0,0.0,0.0,0.0,0.0,0.0,0.0,0.0,0.0,0.0,0.0,0.0,0.0,0.0,0.0,0.0,0.0,0.0,0.0,0.0,0.0,0.0,0.0,0.0,0.0,0.0,0.0,0.0,0.0,0.0,0.0,0.0,0.0,0.0,0.0,0.0,0.0,0.0,0.0,0.0,0.0,0.0,0.0,0.0,0.0,0.0,0.0,0.0,0.0,0.0,0.0,0.0,0.0,0.0,0.0,0.0,0.0,0.0,0.0,0.0,0.0,0.0,0.0,0.0,0.0,0.0,0.0,0.0,0.0,0.0,0.0,0.0,0.0,0.0,0.0,0.0,0.0,0.0,0.0,0.0,0.0,0.0,0.0,0.0,0.0,0.0,0.0,0.0,0.0,0.0,0.0,0.0,0.0,0.0,2.215,2.2941,2.3229,2.2565,2.1563,2.0314,0.0,0.0,0.0,0.0,0.0,0.0,0.0,0.0,0.0,0.0,0.0,0.0,0.0,0.0,0.0,0.0,0.0,0.0,0.0,0.0,0.0,0.0,0.0,0.0,0.0,0.0,0.0,0.0,0.0,0.0,0.0,0.0,0.0,0.0,0.0,0.0,0.0,0.0,0.0,0.0,0.0,0.0,0.0,0.0,0.0,0.0,0.0,0.0,0.0,0.0,0.0,0.0,0.0,0.0,0.0,0.0,0.0,0.0,0.0,0.0,0.0,0.0,0.0,0.0,0.0,0.0,0.0,0.0,0.0,0.0,0.0,0.0,0.0,0.0,0.0,0.0,0.0,0.0,0.0,0.0,0.0,0.0,0.0,0.0,0.0,0.0,0.0,0.0,0.0,0.0,0.0,0.0,0.0,0.0,0.0,0.0,0.0,0.0,0.0,0.0,0.0,0.0,0.0,0.0,0.0,0.0,0.0,0.0,2.0034,2.0289,2.1419,2.368,2.4072,2.3127,0.0,0.0,0.0,0.0,0.0,0.0,0.0,0.0,0.0,0.0,0.0,0.0,0.0,0.0,0.0,0.0,0.0,0.0,0.0,0.0,0.0,0.0,0.0,0.0,0.0,0.0,0.0,0.0,0.0,0.0,0.0,0.0,0.0,0.0,0.0,0.0,0.0,0.0,0.0,0.0,0.0,0.0,0.0,0.0,0.0,0.0,0.0,0.0,0.0,0.0,0.0,0.0,0.0,0.0,0.0,0.0,0.0,0.0,0.0,0.0,0.0,0.0,0.0,0.0,0.0,0.0,0.0,0.0,0.0,0.0,0.0,0.0,0.0,0.0,0.0,0.0,0.0,0.0,0.0,0.0,0.0,0.0,0.0,0.0,0.0,0.0,0.0,0.0,0.0,0.0,0.0,0.0,0.0,0.0,0.0,0.0,0.0,0.0,0.0,0.0,0.0,0.0,0.0,0.0,0.0,0.0,0.0,0.0,0.0,1.9678,2.1213,2.2862,2.4485,2.321,2.2126,0.0,0.0,0.0,0.0,0.0,0.0,0.0,0.0,0.0,0.0,0.0,0.0,0.0,0.0,0.0,0.0,0.0,0.0,0.0,0.0,0.0,0.0,0.0,0.0,0.0,0.0,0.0,0.0,0.0,0.0,0.0,0.0,0.0,0.0,0.0,0.0,0.0,0.0,0.0,0.0,0.0,0.0,0.0,0.0,0.0,0.0,0.0,0.0,0.0,0.0,0.0,0.0,0.0,0.0,0.0,0.0,0.0,0.0,0.0,0.0,0.0,0.0,0.0,0.0,0.0,0.0,0.0,0.0,0.0,0.0,0.0,0.0,0.0,0.0,0.0,0.0,0.0,0.0,0.0,0.0,0.0,0.0,0.0,0.0,0.0,0.0,0.0,0.0,0.0,0.0,0.0,0.0,0.0,0.0,0.0,0.0,0.0,0.0,0.0,0.0,0.0,0.0,0.0,0.0,0.0,0.0,0.0,0.0,0.0,2.009,2.2277,2.3966,2.4976,2.3434,2.2358,0.0,0.0,0.0,0.0,0.0,0.0,0.0,0.0,0.0,0.0,0.0,0.0,0.0,0.0,0.0,0.0,0.0,0.0,0.0,0.0,0.0,0.0,0.0,0.0,0.0,0.0,0.0,0.0,0.0,0.0,0.0,0.0,0.0,0.0,0.0,0.0,0.0,0.0,0.0,0.0,0.0,0.0,0.0,0.0,0.0,0.0,0.0,0.0,0.0,0.0,0.0,0.0,0.0,0.0,0.0,0.0,0.0,0.0,0.0,0.0,0.0,0.0,0.0,0.0,0.0,0.0,0.0,0.0,0.0,0.0,0.0,0.0,0.0,0.0,0.0,0.0,0.0,0.0,0.0,0.0,0.0,0.0,0.0,0.0,0.0,0.0,0.0,0.0,0.0,0.0,0.0,0.0,0.0,0.0,0.0,0.0,0.0,0.0,0.0,0.0,0.0,0.0,0.0,0.0,0.0,0.0,0.0,0.0,1.7647,2.1208,2.3098,2.4331,2.5046,2.4984,2.4032,0.0,0.0,0.0,0.0,0.0,0.0,0.0,0.0,0.0,0.0,0.0,0.0,0.0,0.0,0.0,0.0,0.0,0.0,0.0,0.0,0.0,0.0,0.0,0.0,0.0,0.0,0.0,0.0,0.0,0.0,0.0,0.0,0.0,0.0,0.0,0.0,0.0,0.0,0.0,0.0,0.0,0.0,0.0,0.0,0.0,0.0,0.0,0.0,0.0,0.0,0.0,0.0,0.0,0.0,0.0,0.0,0.0,0.0,0.0,0.0,0.0,0.0,0.0,0.0,0.0,0.0,0.0,0.0,0.0,0.0,0.0,0.0,0.0,0.0,0.0,0.0,0.0,0.0,0.0,0.0,0.0,0.0,0.0,0.0,0.0,0.0,0.0,0.0,0.0,0.0,0.0,0.0,0.0,0.0,0.0,0.0,0.0,0.0,0.0,0.0,0.0,0.0,0.0,0.0,0.0,0.0,0.0,0.0,0.0,1.9423,2.2224,2.3919,2.438,2.4536,2.4305,0.0,0.0,0.0,0.0,0.0,0.0,0.0,0.0,0.0,0.0,0.0,0.0,0.0,0.0,0.0,0.0,0.0,0.0,0.0,0.0,0.0,0.0,0.0,0.0,0.0,0.0,0.0,0.0,0.0,0.0,0.0,0.0,0.0,0.0,0.0,0.0,0.0,0.0,0.0,0.0,0.0,0.0,0.0,0.0,0.0,0.0,0.0,0.0,0.0,0.0,0.0,0.0,0.0,0.0,0.0,0.0,0.0,0.0,0.0,0.0,0.0,0.0,0.0,0.0,0.0,0.0,0.0,0.0,0.0,0.0,0.0,0.0,0.0,0.0,0.0,0.0,0.0,0.0,0.0,0.0,0.0,0.0,0.0,0.0,0.0,0.0,0.0,0.0,0.0,0.0,0.0,0.0,0.0,0.0,0.0,0.0,0.0,0.0,0.0,0.0,0.0,0.0,0.0,0.0,0.0,0.0,0.0,0.0,0.0,2.0966,2.2923,2.4562,2.5641,2.5324,2.4832,2.4188,0.0,0.0,0.0,0.0,0.0,0.0,0.0,0.0,0.0,0.0,0.0,0.0,0.0,0.0,0.0,0.0,0.0,0.0,0.0,0.0,0.0,0.0,0.0,0.0,0.0,0.0,0.0,0.0,0.0,0.0,0.0,0.0,0.0,0.0,0.0,0.0,0.0,0.0,0.0,0.0,0.0,0.0,0.0,0.0,0.0,0.0,0.0,0.0,0.0,0.0,0.0,0.0,0.0,0.0,0.0,0.0,0.0,0.0,0.0,0.0,0.0,0.0,0.0,0.0,0.0,0.0,0.0,0.0,0.0,0.0,0.0,0.0,0.0,0.0,0.0,0.0,0.0,0.0,0.0,0.0,0.0,0.0,0.0,0.0,0.0,0.0,0.0,0.0,0.0,0.0,0.0,0.0,0.0,0.0,0.0,0.0,0.0,0.0,0.0,0.0,0.0,0.0,0.0,0.0,0.0,0.0,0.0,0.0,2.5091,2.5162,2.6168,2.8143,2.7078,2.5676,0.0,0.0,0.0,0.0,0.0,0.0,0.0,0.0,0.0,0.0,0.0,0.0,0.0,0.0,0.0,0.0,0.0,0.0,0.0,0.0,0.0,0.0,0.0,0.0,0.0,0.0,0.0,0.0,0.0,0.0,0.0,0.0,0.0,0.0,0.0,0.0,0.0,0.0,0.0,0.0,0.0,0.0,0.0,0.0,0.0,0.0,0.0,0.0,0.0,0.0,0.0,0.0,0.0,0.0,0.0,0.0,0.0,0.0,0.0,0.0,0.0,0.0,0.0,0.0,0.0,0.0,0.0,0.0,0.0,0.0,0.0,0.0,0.0,0.0,0.0,0.0,0.0,0.0,0.0,0.0,0.0,0.0,0.0,0.0,0.0,0.0,0.0,0.0,0.0,0.0,0.0,0.0,0.0,0.0,0.0,0.0,0.0,0.0,0.0,0.0,0.0,0.0,0.0,0.0,0.0,0.0,0.0,0.0,0.0,2.7716,2.8201,2.8313,2.8085,2.7611,2.6842,0.0,0.0,0.0,0.0,0.0,0.0,0.0,0.0,0.0,0.0,0.0,0.0,0.0,0.0,0.0,0.0,0.0,0.0,0.0,0.0,0.0,0.0,0.0,0.0,0.0,0.0,0.0,0.0,0.0,0.0,0.0,0.0,0.0,0.0,0.0,0.0,0.0,0.0,0.0,0.0,0.0,0.0,0.0,0.0,0.0,0.0,0.0,0.0,0.0,0.0,0.0,0.0,0.0,0.0,0.0,0.0,0.0,0.0,0.0,0.0,0.0,0.0,0.0,0.0,0.0,0.0,0.0,0.0,0.0,0.0,0.0,0.0,0.0,0.0,0.0,0.0,0.0,0.0,0.0,0.0,0.0,0.0,0.0,0.0,0.0,0.0,0.0,0.0,0.0,0.0,0.0,0.0,0.0,0.0,0.0,0.0,0.0,0.0,0.0,0.0,0.0,0.0,0.0,0.0,0.0,0.0,0.0,0.0,2.7565,3.0152,3.0902,3.0871,3.0036,2.9035,2.8015,0.0,0.0,0.0,0.0,0.0,0.0,0.0,0.0,0.0,0.0,0.0,0.0,0.0,0.0,0.0,0.0,0.0,0.0,0.0,0.0,0.0,0.0,0.0,0.0,0.0,0.0,0.0,0.0,0.0,0.0,0.0,0.0,0.0,0.0,0.0,0.0,0.0,0.0,0.0,0.0,0.0,0.0,0.0,0.0,0.0,0.0,0.0,0.0,0.0,0.0,0.0,0.0,0.0,0.0,0.0,0.0,0.0,0.0,0.0,0.0,0.0,0.0,0.0,0.0,0.0,0.0,0.0,0.0,0.0,0.0,0.0,0.0,0.0,0.0,0.0,0.0,0.0,0.0,0.0,0.0,0.0,0.0,0.0,0.0,0.0,0.0,0.0,0.0,0.0,0.0,0.0,0.0,0.0,0.0,0.0,0.0,0.0,0.0,0.0,0.0,0.0,0.0,0.0,0.0,0.0,0.0,0.0,0.0,2.888,3.2181,3.2992,3.3242,3.2832,3.082,2.9109,0.0,0.0,0.0,0.0,0.0,0.0,0.0,0.0,0.0,0.0,0.0,0.0,0.0,0.0,0.0,0.0,0.0,0.0,0.0,0.0,0.0,0.0,0.0,0.0,0.0,0.0,0.0,0.0,0.0,0.0,0.0,0.0,0.0,0.0,0.0,0.0,0.0,0.0,0.0,0.0,0.0,0.0,0.0,0.0,0.0,0.0,0.0,0.0,0.0,0.0,0.0,0.0,0.0,0.0,0.0,0.0,0.0,0.0,0.0,0.0,0.0,0.0,0.0,0.0,0.0,0.0,0.0,0.0,0.0,0.0,0.0,0.0,0.0,0.0,0.0,0.0,0.0,0.0,0.0,0.0,0.0,0.0,0.0,0.0,0.0,0.0,0.0,0.0,0.0,0.0,0.0,0.0,0.0,0.0,0.0,0.0,0.0,0.0,0.0,0.0,0.0,0.0,0.0,0.0,0.0,0.0,0.0,0.0,3.0881,3.2637,3.3148,3.3347,3.3265,3.1543,2.9838,0.0,0.0,0.0,0.0,0.0,0.0,0.0,0.0,0.0,0.0,0.0,0.0,0.0,0.0,0.0,0.0,0.0,0.0,0.0,0.0,0.0,0.0,0.0,0.0,0.0,0.0,0.0,0.0,0.0,0.0,0.0,0.0,0.0,0.0,0.0,0.0,0.0,0.0,0.0,0.0,0.0,0.0,0.0,0.0,0.0,0.0,0.0,0.0,2.4543,0.0,0.0,0.0,0.0,0.0,0.0,0.0,0.0,0.0,0.0,0.0,0.0,0.0,0.0,0.0,0.0,0.0,0.0,0.0,0.0,0.0,0.0,0.0,0.0,0.0,0.0,0.0,0.0,0.0,0.0,0.0,0.0,0.0,0.0,0.0,0.0,0.0,0.0,0.0,0.0,0.0,0.0,0.0,0.0,0.0,0.0,0.0,0.0,0.0,0.0,0.0,0.0,0.0,0.0,0.0,0.0,0.0,0.0,0.0,3.1291,3.3016,3.3496,3.3746,3.3672,3.2476,3.0893,0.0,0.0,0.0,0.0,0.0,0.0,0.0,0.0,0.0,0.0,0.0,0.0,0.0,0.0,0.0,0.0,0.0,0.0,0.0,0.0,0.0,0.0,0.0,0.0,0.0,0.0,0.0,0.0,0.0,0.0,0.0,0.0,0.0,0.0,0.0,0.0,0.0,0.0,0.0,0.0,0.0,0.0,0.0,0.0,0.0,0.0,0.0,0.0,0.0,0.0,0.0,0.0,0.0,0.0,0.0,0.0,0.0,0.0,0.0,0.0,0.0,0.0,0.0,0.0,0.0,0.0,0.0,0.0,0.0,0.0,0.0,0.0,0.0,0.0,0.0,0.0,0.0,0.0,0.0,0.0,0.0,0.0,0.0,0.0,0.0,0.0,0.0,0.0,0.0,0.0,0.0,0.0,0.0,0.0,0.0,0.0,0.0,0.0,0.0,0.0,0.0,0.0,0.0,0.0,0.0,0.0,0.0,2.929,3.143,3.3596,3.4098,3.4271,3.4176,3.3356,3.1875,2.976,0.0,0.0,0.0,0.0,0.0,0.0,0.0,0.0,0.0,0.0,0.0,0.0,0.0,0.0,0.0,0.0,0.0,0.0,0.0,0.0,0.0,0.0,0.0,0.0,0.0,0.0,0.0,0.0,0.0,0.0,0.0,0.0,0.0,0.0,0.0,0.0,0.0,0.0,2.1456,2.2258,0.0,0.0,0.0,0.0,0.0,0.0,0.0,0.0,2.4699,0.0,0.0,0.0,0.0,0.0,0.0,0.0,0.0,0.0,0.0,0.0,0.0,0.0,0.0,0.0,0.0,0.0,0.0,0.0,0.0,0.0,0.0,0.0,0.0,0.0,0.0,0.0,0.0,0.0,0.0,0.0,0.0,0.0,0.0,0.0,0.0,0.0,0.0,0.0,0.0,0.0,0.0,0.0,0.0,0.0,0.0,0.0,0.0,0.0,0.0,0.0,0.0,0.0,0.0,0.0,0.0,3.1167,3.1949,3.32,3.5019,3.5137,3.5016,3.4609,3.3754,3.2289,3.0195,0.0,0.0,0.0,0.0,0.0,0.0,0.0,0.0,0.0,0.0,0.0,0.0,0.0,0.0,0.0,0.0,0.0,0.0,0.0,0.0,0.0,0.0,0.0,0.0,0.0,0.0,0.0,0.0,0.0,0.0,0.0,0.0,0.0,0.0,0.0,0.0,0.0,0.0,0.0,2.3117,2.398,0.0,0.0,0.0,0.0,0.0,0.0,0.0,0.0,2.5808,0.0,0.0,0.0,0.0,0.0,0.0,0.0,0.0,0.0,0.0,0.0,0.0,0.0,0.0,0.0,0.0,0.0,0.0,0.0,0.0,0.0,0.0,0.0,0.0,0.0,0.0,0.0,0.0,0.0,0.0,0.0,0.0,0.0,0.0,0.0,0.0,0.0,0.0,0.0,0.0,0.0,0.0,0.0,0.0,0.0,0.0,0.0,0.0,0.0,0.0,0.0,0.0,0.0,0.0,0.0,3.0781,3.3221,3.4866,3.5686,3.5954,3.5759,3.5059,3.4004,3.2406,0.0,0.0,0.0,0.0,0.0,0.0,0.0,0.0,0.0,0.0,0.0,0.0,0.0,0.0,0.0,0.0,0.0,0.0,0.0,0.0,0.0,0.0,0.0,0.0,0.0,0.0,0.0,0.0,0.0,0.0,0.0,0.0,0.0,0.0,0.0,0.0,0.0,0.0,0.0,0.0,2.4873,2.5481,2.7104,0.0,0.0,0.0,0.0,0.0,0.0,2.6264,2.5913,0.0,0.0,0.0,0.0,0.0,0.0,0.0,0.0,0.0,0.0,0.0,0.0,0.0,0.0,0.0,0.0,0.0,0.0,0.0,0.0,0.0,0.0,0.0,0.0,0.0,0.0,0.0,0.0,0.0,0.0,0.0,0.0,0.0,0.0,0.0,0.0,0.0,0.0,0.0,0.0,0.0,0.0,0.0,0.0,0.0,0.0,0.0,0.0,0.0,0.0,0.0,0.0,0.0,0.0,0.0,3.0385,3.4162,3.6272,3.6543,3.6892,3.6619,3.5681,3.4375,3.2621,0.0,0.0,0.0,0.0,0.0,0.0,0.0,0.0,0.0,0.0,0.0,0.0,0.0,0.0,0.0,0.0,0.0,0.0,0.0,0.0,0.0,0.0,0.0,0.0,0.0,0.0,0.0,0.0,0.0,0.0,0.0,0.0,0.0,0.0,0.0,0.0,0.0,0.0,0.0,0.0,0.0,2.7096,2.8917,2.8388,0.0,0.0,0.0,0.0,2.7142,2.6921,0.0,0.0,0.0,0.0,0.0,0.0,0.0,0.0,0.0,0.0,0.0,0.0,0.0,0.0,0.0,0.0,0.0,0.0,0.0,0.0,0.0,0.0,0.0,0.0,0.0,0.0,0.0,0.0,0.0,0.0,0.0,0.0,0.0,0.0,0.0,0.0,0.0,0.0,0.0,0.0,0.0,0.0,0.0,0.0,0.0,0.0,0.0,0.0,0.0,0.0,0.0,0.0,0.0,0.0,0.0,0.0,3.2925,3.5363,3.7166,3.8239,3.8338,3.7809,3.6597,3.5251,3.3395,0.0,0.0,0.0,0.0,0.0,0.0,0.0,0.0,0.0,0.0,0.0,0.0,0.0,0.0,0.0,0.0,0.0,0.0,0.0,0.0,0.0,0.0,0.0,0.0,0.0,0.0,0.0,0.0,0.0,0.0,0.0,0.0,0.0,0.0,0.0,0.0,0.0,0.0,0.0,0.0,0.0,2.8364,2.7827,2.8027,2.8197,0.0,0.0,2.9364,2.9707,3.0059,0.0,0.0,0.0,0.0,0.0,0.0,0.0,0.0,0.0,0.0,0.0,0.0,0.0,0.0,0.0,0.0,0.0,0.0,0.0,0.0,0.0,0.0,0.0,0.0,0.0,0.0,0.0,0.0,0.0,0.0,0.0,0.0,0.0,0.0,0.0,0.0,0.0,0.0,0.0,0.0,0.0,0.0,0.0,0.0,0.0,0.0,0.0,0.0,0.0,0.0,0.0,0.0,0.0,0.0,0.0,3.1372,3.3422,3.6504,3.8144,3.8223,3.8672,3.8338,3.7051,3.5525,3.3597,0.0,0.0,0.0,0.0,0.0,0.0,0.0,0.0,0.0,0.0,0.0,0.0,0.0,0.0,0.0,0.0,0.0,0.0,0.0,0.0,0.0,0.0,0.0,0.0,0.0,0.0,0.0,0.0,0.0,0.0,0.0,0.0,0.0,0.0,0.0,0.0,0.0,0.0,0.0,0.0,0.0,0.0,3.0107,2.9938,0.0,0.0,0.0,3.0117,2.9551,0.0,0.0,0.0,0.0,0.0,0.0,0.0,0.0,0.0,0.0,0.0,0.0,0.0,0.0,0.0,0.0,0.0,0.0,0.0,0.0,0.0,0.0,0.0,0.0,0.0,0.0,0.0,0.0,0.0,0.0,0.0,0.0,0.0,0.0,0.0,0.0,0.0,0.0,0.0,0.0,0.0,0.0,0.0,0.0,0.0,0.0,0.0,0.0,0.0,0.0,0.0,0.0,0.0,0.0,0.0,0.0,0.0,3.3929,3.7502,3.9103,3.8595,3.9181,3.8926,3.7637,3.6233,0.0,0.0,0.0,0.0,0.0,0.0,0.0,0.0,0.0,0.0,0.0,0.0,0.0,0.0,0.0,0.0,0.0,0.0,0.0,0.0,0.0,0.0,0.0,0.0,0.0,0.0,0.0,0.0,0.0,0.0,0.0,0.0,0.0,0.0,0.0,0.0,0.0,0.0,0.0,0.0,0.0,0.0,3.0644,3.1851,3.1558,3.1343,0.0,0.0,3.1094,3.0318,3.1035,3.1011,0.0,0.0,0.0,0.0,0.0,0.0,0.0,0.0,0.0,0.0,0.0,0.0,0.0,0.0,0.0,0.0,0.0,0.0,0.0,0.0,0.0,0.0,0.0,0.0,0.0,0.0,0.0,0.0,0.0,0.0,0.0,0.0,0.0,0.0,0.0,0.0,0.0,0.0,0.0,0.0,0.0,0.0,0.0,0.0,0.0,0.0,0.0,0.0,0.0,0.0,0.0,0.0,0.0,0.0,0.0,3.5273,3.8281,4.0,4.0313,4.0391,3.9805,3.8553,3.7988,3.5745,0.0,0.0,0.0,0.0,0.0,0.0,0.0,0.0,0.0,0.0,0.0,0.0,0.0,0.0,0.0,0.0,0.0,0.0,0.0,0.0,0.0,0.0,0.0,0.0,0.0,0.0,0.0,0.0,0.0,0.0,0.0,0.0,0.0,0.0,0.0,0.0,0.0,0.0,0.0,0.0,0.0,3.0537,3.143,3.189,3.2531,0.0,0.0,3.2926,3.3645,3.3801,3.2867,2.9975,0.0,0.0,0.0,0.0,0.0,0.0,0.0,0.0,0.0,0.0,0.0,0.0,0.0,0.0,0.0,0.0,0.0,0.0,0.0,0.0,0.0,0.0,0.0,0.0,0.0,0.0,0.0,0.0,0.0,0.0,0.0,0.0,0.0,0.0,0.0,0.0,0.0,0.0,0.0,0.0,0.0,0.0,0.0,0.0,0.0,0.0,0.0,0.0,0.0,0.0,0.0,0.0,0.0,3.3613,3.498,3.8476,4.0215,4.0156,4.0371,4.0137,3.9414,3.8419,3.6643,0.0,0.0,0.0,0.0,0.0,0.0,0.0,0.0,0.0,0.0,0.0,0.0,0.0,0.0,0.0,0.0,0.0,0.0,0.0,0.0,0.0,0.0,0.0,0.0,0.0,0.0,0.0,0.0,2.6588,2.6763,2.6001,0.0,0.0,0.0,0.0,0.0,0.0,0.0,0.0,0.0,0.0,3.2129,3.2969,3.3258,0.0,0.0,3.418,3.3984,3.4079,3.3864,3.3008,3.1074,3.0176,0.0,0.0,0.0,0.0,0.0,0.0,0.0,0.0,0.0,0.0,0.0,0.0,0.0,0.0,0.0,0.0,0.0,0.0,0.0,0.0,0.0,0.0,0.0,0.0,0.0,0.0,0.0,0.0,0.0,0.0,0.0,0.0,0.0,0.0,0.0,0.0,0.0,0.0,0.0,0.0,0.0,0.0,0.0,0.0,0.0,0.0,0.0,0.0,0.0,0.0,0.0,0.0,3.4297,3.5293,3.9004,4.0801,4.0664,4.0918,4.082,4.0293,3.9375,3.7892,0.0,0.0,0.0,0.0,0.0,0.0,0.0,0.0,0.0,0.0,0.0,0.0,0.0,0.0,0.0,0.0,0.0,0.0,0.0,0.0,0.0,0.0,0.0,0.0,0.0,0.0,0.0,0.0,2.7689,2.7559,2.668,0.0,0.0,0.0,0.0,0.0,0.0,0.0,0.0,0.0,0.0,3.3496,3.4352,3.4352,3.443,3.4844,3.457,3.4258,3.4118,3.3824,3.3207,3.2075,0.0,0.0,0.0,0.0,0.0,0.0,0.0,0.0,0.0,0.0,0.0,0.0,0.0,0.0,0.0,0.0,0.0,0.0,0.0,0.0,0.0,0.0,0.0,0.0,0.0,0.0,0.0,0.0,0.0,0.0,2.4449,0.0,0.0,0.0,0.0,0.0,0.0,0.0,0.0,0.0,0.0,0.0,0.0,0.0,0.0,0.0,0.0,0.0,0.0,0.0,0.0,0.0,0.0,0.0,3.6658,4.0019,4.1933,4.2304,4.2343,4.1953,4.1211,4.1132,3.9706,3.6736,0.0,0.0,0.0,0.0,0.0,0.0,0.0,0.0,0.0,0.0,0.0,0.0,0.0,0.0,0.0,0.0,0.0,0.0,0.0,0.0,0.0,0.0,0.0,0.0,0.0,0.0,2.5375,2.6309,2.7038,0.0,0.0,0.0,0.0,0.0,0.0,0.0,0.0,0.0,0.0,3.2984,3.4391,3.5234,3.5016,3.4922,3.5388,3.4339,3.3656,3.4118,3.4114,3.3801,0.0,0.0,0.0,0.0,0.0,0.0,0.0,0.0,0.0,0.0,0.0,0.0,0.0,0.0,0.0,0.0,0.0,0.0,0.0,0.0,0.0,0.0,0.0,0.0,0.0,0.0,0.0,2.8255,2.7845,0.0,0.0,0.0,0.0,0.0,0.0,0.0,0.0,0.0,0.0,0.0,3.1753,3.2457,0.0,0.0,0.0,0.0,0.0,0.0,0.0,0.0,0.0,0.0,0.0,0.0,3.6057,3.7205,4.0469,4.2265,4.2402,4.2402,4.2265,4.1992,4.1484,3.9765,3.6795,0.0,0.0,0.0,0.0,0.0,0.0,0.0,0.0,0.0,0.0,0.0,0.0,0.0,0.0,0.0,0.0,0.0,0.0,0.0,0.0,0.0,0.0,0.0,0.0,0.0,2.6809,0.0,0.0,0.0,0.0,0.0,0.0,0.0,0.0,0.0,0.0,0.0,3.2031,3.3437,3.4629,3.5586,3.6189,3.6365,3.6697,0.0,0.0,0.0,0.0,0.0,0.0,0.0,0.0,0.0,0.0,0.0,0.0,0.0,0.0,3.2617,3.0053,2.9262,2.9125,2.9513,0.0,0.0,0.0,0.0,0.0,0.0,0.0,0.0,0.0,0.0,0.0,0.0,0.0,0.0,0.0,0.0,3.0117,0.0,0.0,0.0,0.0,0.0,0.0,0.0,0.0,3.3375,3.4199,3.4609,3.5173,3.5368,0.0,3.4905,3.3754,0.0,0.0,0.0,0.0,0.0,0.0,0.0,0.0,3.7031,3.8262,4.125,4.2851,4.2851,4.2851,4.2773,4.2656,4.1973,4.0566,3.8319,3.7383,3.5935,0.0,0.0,0.0,0.0,0.0,0.0,0.0,0.0,0.0,0.0,0.0,0.0,0.0,0.0,0.0,0.0,0.0,0.0,0.0,0.0,0.0,0.0,0.0,2.8144,0.0,0.0,0.0,0.0,0.0,0.0,0.0,0.0,0.0,3.1636,3.2828,3.4219,3.5644,3.6445,3.6953,3.7107,0.0,0.0,0.0,0.0,0.0,0.0,0.0,3.5053,3.5209,3.443,3.3906,3.4297,3.531,3.5915,3.5485,0.0,0.0,3.2816,3.2344,3.2613,3.2992,3.2686,3.2422,3.2667,3.2404,3.2169,0.0,0.0,0.0,0.0,0.0,0.0,0.0,0.0,3.2988,3.2524,0.0,3.2183,0.0,0.0,0.0,0.0,0.0,3.268,0.0,0.0,3.75,3.8359,3.799,3.799,3.8242,3.8631,3.785,3.7422,3.7285,3.4905,0.0,0.0,0.0,0.0,0.0,0.0,3.8223,3.9922,4.2402,4.3671,4.3672,4.3691,4.3496,4.3106,4.2636,4.2031,4.1211,3.9608,3.8122,3.6773,3.318,0.0,0.0,0.0,0.0,0.0,0.0,0.0,0.0,0.0,0.0,0.0,0.0,0.0,0.0,0.0,0.0,0.0,0.0,0.0,0.0,2.9135,0.0,0.0,0.0,0.0,0.0,0.0,0.0,0.0,0.0,0.0,3.3336,3.4473,3.6074,3.7658,0.0,0.0,0.0,0.0,3.7873,3.7539,3.6406,3.5801,3.6213,3.6543,3.6912,3.7342,0.0,0.0,3.7598,3.8104,3.8298,3.7088,3.8202,3.8613,3.6526,3.5801,3.5664,3.6018,3.6064,3.6255,3.6701,3.7114,3.7659,3.5508,0.0,0.0,0.0,0.0,3.4293,3.5117,3.6428,3.6428,3.6135,3.5644,3.5485,0.0,0.0,0.0,0.0,0.0,0.0,3.5859,3.7674,3.8319,3.916,4.0234,4.0253,4.0469,4.0879,4.0625,4.0645,4.0899,4.0196,3.7307,3.2539,0.0,0.0,0.0,0.0,3.9726,4.0859,4.2715,4.3691,4.3691,4.3691,4.3496,4.3106,4.2989,4.2637,4.209,4.1582,4.0293,3.8143,3.668,0.0,0.0,0.0,0.0,0.0,0.0,0.0,0.0,0.0,0.0,0.0,0.0,0.0,0.0,0.0,0.0,0.0,0.0,0.0,2.8639,3.0366,3.1064,0.0,0.0,0.0,0.0,0.0,0.0,0.0,0.0,0.0,3.7344,3.7266,3.7383,0.0,0.0,3.8885,3.8437,3.918,3.9825,4.0058,0.0,0.0,0.0,3.9199,3.873,3.9473,3.9883,4.0001,3.9668,4.0059,4.0331,3.9959,4.0292,4.041,3.9862,3.9101,3.8672,3.875,3.8789,3.8907,3.9317,3.961,3.9942,3.8829,3.7773,3.5976,3.5647,3.6387,3.6599,3.7441,3.8693,3.8868,3.8595,3.8066,3.8164,3.7383,3.594,3.5564,0.0,0.0,0.0,3.8144,3.9882,4.0019,4.0683,4.1641,4.1699,4.1797,4.2011,4.1875,4.2109,4.2676,4.2324,4.004,3.5999,0.0,0.0,3.6719,3.9159,4.1113,4.2442,4.3457,4.4062,4.4219,4.4062,4.379,4.334,4.3341,4.3125,4.2695,4.2675,4.1875,4.0176,3.9023,3.7424,0.0,0.0,0.0,0.0,0.0,0.0,0.0,0.0,0.0,0.0,0.0,2.7357,0.0,0.0,0.0,0.0,3.0014,3.063,3.1426,3.2691,0.0,0.0,0.0,0.0,0.0,0.0,0.0,3.6777,3.8262,3.9394,3.9921,3.9669,3.9434,3.9434,3.9902,4.0078,3.9705,0.0,4.1133,4.1406,4.1328,4.1348,4.1719,4.0918,4.045,4.1133,4.125,4.125,4.1269,4.1504,4.166,4.166,4.166,4.166,4.168,4.123,4.084,4.0684,4.0801,4.0977,4.1211,4.125,4.1426,4.1855,4.1543,3.799,3.7189,3.8224,3.8691,3.9336,4.0117,4.0489,4.0196,3.9531,4.0293,3.9766,3.8244,3.7871,0.0,3.9473,3.9902,4.0723,4.1914,4.2285,4.246,4.2499,4.2538,4.2558,4.2558,4.2226,4.2461,4.3204,4.2461,4.1621,4.082,4.0449,4.0332,4.0528,4.1074,4.2383,4.4355,4.4394,4.4609,4.4979,4.4627,4.4219,4.3789,4.375,4.3555,4.3184,4.3145,4.293,4.2421,4.0566,3.9121,3.8205,0.0,0.0,0.0,0.0,0.0,0.0,0.0,0.0,0.0,0.0,0.0,0.0,0.0,0.0,0.0,3.4508,0.0,3.5605,3.5661,0.0,0.0,0.0,3.5332,3.6252,3.7773,3.8925,3.9355,0.0,0.0,4.1348,0.0,4.1953,4.2012,4.1914,4.1699,4.1328,4.1621,4.1894,4.1933,4.1641,4.1562,4.2012,4.1973,4.2011,4.2402,4.2519,4.248,4.248,4.2499,4.2499,4.2519,4.2519,4.2499,4.2479,4.2499,4.2441,4.209,4.2167,4.2363,4.2382,4.2382,4.2402,4.2246,4.2187,4.1269,4.0879,4.0918,4.1328,4.1601,4.1816,4.1894,4.1836,4.166,4.1875,4.1718,4.1308,4.123,4.1348,4.164,4.1758,4.2168,4.2794,4.2871,4.3106,4.3418,4.3769,4.3926,4.3945,4.416,4.4375,4.453,4.4334,4.3963,4.3496,4.3379,4.2383,4.0645,4.2226,4.3516,4.4394,4.4394,4.4609,4.4957,4.4901,4.4647,4.4258,4.4238,4.4023,4.3574,4.3555,4.3359,4.2969,4.2442,4.1797,4.0879,3.7187,0.0,0.0,0.0,0.0,0.0,0.0,0.0,0.0,0.0,3.1274,2.8795,0.0,3.2672,0.0,3.7638,3.8751,3.7425,3.791,0.0,0.0,3.748,3.7756,3.9259,3.9805,4.0332,4.1094,4.1738,4.2246,4.2598,4.2988,4.3379,4.3711,4.291,4.2089,4.1738,4.2325,4.2794,4.2793,4.2969,4.3144,4.3203,4.3262,4.3281,4.3379,4.3398,4.3378,4.3378,4.3378,4.3378,4.3398,4.3378,4.3398,4.3378,4.3651,4.3846,4.373,4.3066,4.2519,4.2851,4.295,4.3027,4.5372,4.5372,4.5393,4.525,4.4925,4.3397,4.2577,4.2421,4.2616,4.2577,4.2421,4.2637,4.2812,4.2987,4.3203,4.3301,4.33,4.3475,4.369,4.3945,4.3945,4.4062,4.4276,4.4551,4.4668,4.4666,4.4901,4.5018,4.5018,4.5193,4.5195,4.5002,4.5332,4.4686,4.3163,4.3711,4.4141,4.4394,4.4785,4.498,4.4998,4.5193,4.4844,4.3888,4.422,4.4004,4.3144,4.332,4.3067,4.2305,4.2071,4.1641,4.0957,3.8516,3.7049,0.0,0.0,0.0,0.0,0.0,0.0,0.0,0.0,0.0,0.0,0.0,3.5176,0.0,3.9219,0.0,3.8634,3.9453,4.0077,4.0038,3.9961,4.0371,4.1543,4.1816,4.2089,4.2598,4.3027,4.3398,4.3652,4.4003,4.4375,4.4648,4.4022,4.3475,4.33,4.3672,4.3945,4.3945,4.4141,4.4276,4.4276,4.4297,4.4297,4.4276,4.4256,4.4276,4.4297,4.4297,4.4297,4.4276,4.4297,4.4297,4.4295,4.4471,4.4647,4.459,4.4081,4.371,4.3866,4.3945,4.4023,4.9097,4.9097,4.9097,4.9097,4.8827,4.5352,4.3634,4.3298,4.349,4.3268,4.2753,4.3164,4.3535,4.3906,4.4297,4.4492,4.4492,4.4842,4.5018,4.5018,4.5018,4.5018,4.5018,4.5057,4.5115,4.5174,4.5232,4.5271,4.5371,4.5723,4.592,4.59,4.6738,4.6944,4.6475,4.5433,4.4818,4.4669,4.5353,4.551,4.5096,4.543,4.4824,4.3321,4.4023,4.3866,4.2656,4.2949,4.2676,4.1582,4.1055,4.0684,4.0391,3.9687,3.8789,0.0,3.7049,0.0,0.0,0.0,0.0,0.0,0.0,0.0,0.0,3.7832,3.8048,3.7244,4.0078,4.1367,3.9902,4.0839,4.168,4.209,4.2441,4.2851,4.3302,4.3652,4.3867,4.3867,4.4238,4.4473,4.4473,4.4822,4.5096,4.5096,4.5115,4.5076,4.5115,4.4998,4.4901,4.5018,4.5018,4.4901,4.492,4.4959,4.4959,4.4979,4.494,4.5018,4.4959,4.4959,4.4979,4.4979,4.494,4.4959,4.4998,4.5037,4.5096,4.5076,4.5076,4.5037,4.494,4.4881,4.5018,4.9097,4.9097,4.9097,4.9097,4.9035,4.8288,4.7915,4.777,4.67,4.5619,4.4551,4.4608,4.4686,4.4764,4.4842,4.4881,4.4901,4.4959,4.5018,4.5018,4.5018,4.5018,4.5037,4.5391,4.5764,4.6074,4.6384,4.6736,4.709,4.721,4.7051,4.6721,4.8047,4.8293,4.7543,0.0,0.0,0.0,4.5783,4.5666,4.5568,4.5273,4.4627,4.3652,4.4413,0.0,4.3535,4.3535,4.3476,4.3223,4.2832,0.0,0.0,0.0,0.0,0.0,0.0,0.0,0.0,0.0,0.0,0.0,3.8769,3.8633,3.8319,3.9961,4.0703,3.9922,4.1641,4.2851,4.2851,4.3066,4.3418,4.3848,4.3965,4.4199,4.4588,4.4705,4.4764,4.4764,4.4822,4.4881,4.492,4.5273,4.5547,4.5607,4.584,4.6035,4.6074,4.5467,4.5037,4.5018,4.5076,4.5037,4.5018,4.5037,4.5096,4.5018,4.5018,4.5037,4.5057,4.5037,4.5018,4.5037,4.5018,4.5037,4.5057,4.5271,4.5605,4.5588,4.584,4.5838,4.5154,4.5018,4.5018,5.3811,0.0,5.379,5.3544,0.0,5.3155,5.2887,5.2262,4.9295,4.7651,4.7046,4.7271,4.6972,4.6376,4.6817,4.6628,4.5955,4.6169,4.6289,4.6289,4.6289,4.6662,4.7358,4.7578,4.7776,4.7976,4.8195,4.8057,4.7668,4.8538,4.8877,4.8657,5.0281,5.0884,5.0489,5.0676,4.9397,4.6643,4.6406,4.6406,4.6623,4.6406,4.6107,4.5758,0.0,0.0,0.0,0.0,0.0,0.0,0.0,0.0,0.0,0.0,0.0,4.1426,4.0234,3.9628,3.9843,4.0038,4.0625,4.168,4.2168,4.2051,4.1172,4.2324,4.2988,4.2773,4.3555,4.4121,4.4315,4.4334,4.4453,4.4668,4.4686,4.4805,4.4959,4.5018,4.5018,4.5037,4.5215,4.5351,4.5351,4.5723,4.6055,4.625,4.6465,4.6658,4.6816,4.6191,4.5642,4.5664,4.5642,4.5664,4.5623,4.5623,4.5642,4.5664,4.5623,4.5644,4.5623,4.5642,4.5644,4.5664,4.5799,4.5935,4.5974,4.6328,4.6623,4.6663,4.6799,4.6838,4.6328,4.5957,4.5623,5.8597,5.8597,5.8597,5.8167,5.7532,5.7367,5.6765,5.5628,0.0,0.0,0.0,4.9743,4.928,4.8513,4.9256,4.8952,4.7848,4.8184,4.8365,4.8365,4.8343,4.8969,5.0034,4.9834,4.9875,5.018,4.9937,4.9397,4.8671,5.0156,5.0902,5.1055,5.2706,5.3655,5.379,5.3655,5.1857,4.8542,4.7935,4.7824,4.8204,4.7919,4.7766,4.7784,4.7153,4.6809,4.6801,4.5658,4.4497,4.3392,4.266,4.2285,4.2344,4.1992,4.2266,4.3321,4.3065,4.3026,4.3419,4.375,4.4141,4.4611,4.4941,4.4764,4.3984,4.4297,4.4648,4.4979,4.5018,4.4998,4.5018,4.4998,4.5037,4.5115,4.5174,4.5252,4.535,4.5428,4.5545,4.5506,4.584,4.6059,4.6076,4.6369,4.6618,4.6931,4.7031,4.7148,4.7402,4.6953,4.6523,4.6523,4.6523,4.6543,4.6523,4.6523,4.6523,4.6523,4.6523,4.6523,4.6523,4.6523,4.6523,4.6523,4.6814,4.695,4.7028,4.7246,4.76,4.76,4.76,4.76,4.7542,4.7053,4.6543,5.8621,5.8597,5.8597,5.8515,5.8352,5.7612,5.6765,5.5656,5.2711,5.1465,5.1422,5.0228,5.0313,5.1313,5.1461,5.1395,5.1199,5.1262,5.1305,0.0,5.1305,5.1392,5.1501,5.0276,5.0527,5.1919,5.0898,5.1038,5.2307,5.268,5.2791,5.3013,5.4278,5.5423,5.6077,5.5401,5.4718,5.4093,5.1782,5.063,5.065,4.9109,4.812,4.7845,4.8451,4.8528,4.8151,4.7614,4.7223,4.6999,4.5124,4.4199,4.451,4.416,4.418,4.4666,4.4666,4.4666,4.4725,4.4783,4.5039,4.5471,4.5568,4.5392,4.4881,4.4881,4.494,4.5018,4.5096,4.5018,4.5018,4.5076,4.5252,4.5586,4.5918,4.625,4.656,4.6892,4.7132,4.7112,4.7288,4.7288,4.7229,4.7327,4.7363,4.7483,4.7632,4.7606,4.7729,4.7503,4.7425,4.7425,4.7425,4.7425,4.7327,4.7405,4.7346,4.7425,4.7366,4.7327,4.7307,4.7307,4.7327,4.7386,4.7422,4.748,4.75,4.7542,4.7698,4.7737,4.7757,4.7718,4.7757,4.7561,4.7425,6.0887,6.0887,6.0887,6.0772,6.0566,5.9976,5.9507,5.8891,5.6386,5.4804,5.409,5.3644,5.3452,5.3387,5.3626,5.3319,5.2594,5.2594,5.2615,5.2615,5.2872,5.327,5.3691,5.3594,5.3853,5.4387,5.4068,5.3922,5.4069,5.4745,5.5418,5.6021,5.7853,5.903,5.9398,5.903,5.882,5.872,5.45,5.2274,5.2274,5.1449,5.1373,5.215,5.1462,5.1089,5.1356,5.0502,4.9302,4.7756,4.7421,4.702,4.643,4.6016,4.5838,4.6013,4.584,4.5701,4.5701,4.5916,4.6228,4.6682,4.6741,4.6643,4.6426,4.6169,4.613,4.6387,4.6406,4.6406,4.6406,4.6406,4.6504,4.6721,4.6917,4.707,4.7246,4.7464,4.76,4.76,4.76,4.76,4.76,4.76,4.7718,4.7916,4.8494,4.9037,4.9103,4.9512,4.9285,4.7988,4.76,4.76,4.7643,4.76,4.76,4.76,4.76,4.76,4.76,4.762,4.762,4.762,4.7754,4.791,4.7952,4.8148,4.8343,4.8613,4.8633,4.8633,4.8633,4.8457,4.8226,6.3199,6.3178,6.3178,6.2908,6.2468,6.2227,6.199,6.1622,5.977,5.8345,5.731,5.7116,5.6589,5.5985,5.6302,5.5733,5.4625,5.4491,5.4513,5.4557,5.4882,5.5464,5.6087,5.6643,5.6754,5.671,5.682,5.6503,5.6142,5.7088,5.8095,5.9134,6.0884,6.1904,6.2097,6.1904,6.1952,6.1957,5.7454,5.4939,5.4939,5.4651,5.5115,5.6119,5.4671,5.4084,5.4714,5.3538,5.189,4.9957,4.9964,4.9525,4.8437,4.7736,4.727,4.7073,4.6777,4.6582,4.6601,4.6872,4.7243,4.7676,4.7737,4.7776,4.7855,4.7558,4.738,4.7581,4.7522,4.7542,4.7522,4.7542,4.76,4.76,4.7676,4.7695,4.7737,4.7812,4.8007,4.8119,4.821,4.832,4.8503,4.8649,4.8995,4.9571,5.0283,5.0899,5.1034,5.1674,5.1027,4.9567,4.8528,4.8317,4.821,4.8144,4.8131,4.8027,4.8164,4.8323,4.8323,4.8245,4.8226,4.8363,4.8496,4.8691,4.8711,4.8949,4.9281,4.9512,4.9473,4.941,4.9371,4.9062,4.8851,6.4325,6.4325,6.43,6.3826,6.3094,6.304,6.2617,6.1907,6.1559,6.142,6.103,5.9035,5.8795,5.9787,5.9831,5.924,5.8381,5.8426,5.8381,5.8315,5.8517,5.8583,5.847,5.7425,5.7492,5.8451,5.7559,5.8052,5.9648,5.9978,6.0544,6.1363,6.1686,6.2296,6.2827,6.225,6.2447,6.3642,6.1462,6.0293,6.0208,5.8998,5.8136,5.7778,5.7605,5.7519,5.7542,5.6332,5.5888,5.6141,5.2974,5.0999,5.0693,4.9551,4.8461,4.7696,4.7545,4.7483,4.7503,4.75,4.7734,4.8086,4.818,4.8382,4.8737,4.8757,4.8385,4.7894,4.7659,4.7718,4.762,4.7698,4.7776,4.7855,4.8047,4.8144,4.831,4.8538,4.9098,4.9971,5.0062,5.0381,5.1057,5.1482,5.1984,5.2131,5.2464,5.2755,5.2801,5.3008,5.319,5.241,5.127,5.0191,4.9965,4.9614,4.9342,4.9343,4.9629,4.9711,4.9652,4.973,4.9926,4.9476,4.9789,4.9809,4.9867,5.0063,5.0023,5.0039,4.9883,4.9547,4.9469,4.9258,4.9105,6.45,6.45,6.45,6.4466,6.4448,6.473,6.4686,6.4297,6.3736,6.3822,6.4124,6.2709,6.1762,6.1259,6.1214,6.0717,5.9911,6.039,6.0041,5.9164,5.9837,6.0103,5.976,5.9268,5.9742,6.0997,6.0232,6.0617,6.1946,6.2694,6.315,6.3541,6.406,6.4511,6.4836,6.4511,6.4635,6.5135,6.4115,6.3401,6.2841,6.077,5.9745,6.0066,5.9904,5.9787,5.9738,5.9233,5.8374,5.7076,5.5803,5.4564,5.3198,5.3074,5.2406,5.1029,5.0088,4.9472,4.9151,4.8887,4.8926,4.9359,4.9398,4.9476,4.9633,4.9672,4.9496,4.918,4.891,4.8828,4.9066,4.9125,4.9144,4.9164,4.9277,4.9612,5.0239,5.0404,5.0939,5.1821,5.2005,5.2121,5.2553,5.2769,5.2976,5.3255,5.3644,5.4057,5.4126,5.4542,5.4909,5.4752,5.3726,5.2458,5.1452,5.0989,5.0545,5.011,5.0063,5.0199,5.0238,5.0199,5.018,5.0219,5.0258,5.0258,5.0121,5.0219,5.0238,5.0332,5.0488,5.025,5.0293,4.9941,4.9887,6.4927,6.4953,6.4927,6.5179,6.5534,6.5914,6.6112,6.6026,6.5375,6.5486,6.5983,6.5353,6.4327,6.308,6.2727,6.2078,6.1361,6.1904,6.1514,6.0376,6.1257,6.1497,6.1217,6.1254,6.1821,6.2577,6.2398,6.272,6.3716,6.4636,6.5072,6.5202,6.5767,6.6112,6.6112,6.6112,6.6112,6.604,6.5559,6.5128,6.4437,6.2352,6.1436,6.2067,6.189,6.182,6.1955,6.1689,6.0789,5.8988,5.888,5.8078,5.6443,5.6594,5.5733,5.3502,5.1738,5.0602,5.0227,4.9883,4.9844,5.016,5.0199,5.0199,5.0199,5.0199,5.04,5.07,5.0224,5.0051,5.0523,5.0606,5.07,5.0979,5.1007,5.1359,5.1979,5.2113,5.2468,5.3392,5.3493,5.3778,5.4093,5.4274,5.4406,5.46,5.5038,5.5388,5.5501,5.6027,5.6439,5.6463,5.5846,5.4568,5.2594,5.1862,5.1432,5.0775,5.0449,5.0629,5.0527,5.0527,5.0527,5.0762,5.0586,5.0547,5.0683,5.0644,5.0488,5.0703,5.0801,5.0781,5.0683,5.0453,5.0414,6.6015,6.599,6.6036,6.5986,6.604,6.6065,6.6112,6.6112,6.6026,6.6069,6.6112,6.6026,6.5932,6.5682,6.4812,6.4036,6.3221,6.3239,6.3151,6.2864,6.3067,6.3159,6.3159,6.3185,6.3207,6.3444,6.3316,6.3716,6.4658,6.5551,6.6047,6.6026,6.6069,6.6112,6.6112,6.6112,6.6112,6.6061,6.5584,6.5279,6.5107,6.4074,6.3444,6.3556,6.3577,6.3702,6.4111,6.3461,6.3267,6.4023,6.2013,6.0809,6.0527,5.9459,5.7313,5.4256,5.1768,5.044,5.0546,5.0535,5.0531,5.0428,5.0605,5.031,5.053,5.0483,5.0953,5.2062,5.1416,5.1182,5.1735,5.1711,5.2023,5.2821,5.299,5.3034,5.3176,5.3282,5.3597,5.4378,5.4671,5.5141,5.636,5.6656,5.6623,5.6859,5.7219,5.722,5.7085,5.729,5.7338,5.7316,5.7063,5.6356,5.3711,5.283,5.2058,5.114,5.0976,5.1269,5.1323,5.1362,5.1304,5.126,5.1187,5.1167,5.1304,5.1245,5.1069,5.103,5.0937,5.0898,5.0957,5.0532,5.0532,6.6112,6.6112,6.6112,6.6112,6.6112,6.6112,6.6112,6.6112,6.6112,6.6112,6.6112,6.6112,6.6112,6.6069,6.5767,6.5072,6.4309,6.4811,6.4462,6.3518,6.3914,6.4199,6.4134,6.3606,6.4002,6.4898,6.4506,6.468,6.553,6.5961,6.6112,6.6112,6.6112,6.6112,6.6112,6.6112,6.6112,6.6061,6.5584,6.5304,6.5279,6.4576,6.435,6.468,6.44,6.445,6.5003,6.4664,6.4514,6.45,6.3354,6.2481,6.1794,6.0601,5.9359,5.794,5.6308,5.5195,5.4847,5.4541,5.452,5.4677,5.328,5.2358,5.2394,5.2199,5.2208,5.2639,5.3137,5.3491,5.3953,5.3345,5.2941,5.3817,5.4033,5.4318,5.4805,5.5014,5.5364,5.6204,5.648,5.6707,5.6981,5.7228,5.7316,5.7447,5.749,5.749,5.749,5.749,5.749,5.749,5.7444,5.6939,5.5377,5.4251,5.3284,5.1935,5.1304,5.1323,5.1401,5.1401,5.1319,5.1319,5.1377,5.1377,5.1358,5.1338,5.1265,5.1245,5.1128,5.133,5.1187,5.1115,5.1082,6.6112,6.6112,6.6112,6.6112,6.6112,6.6112,6.6112,6.6112,6.6112,6.6112,6.6112,6.6112,6.6112,6.6112,6.6112,6.5789,6.527,6.581,6.5421,6.4331,6.4854,6.5161,6.505,6.4506,6.4854,6.5853,6.5486,6.5483,6.6026,6.6112,6.6112,6.6112,6.6112,6.6112,6.6112,6.6112,6.6112,6.6036,6.5735,6.5559,6.5484,6.5028,6.4927,6.5204,6.4953,6.5003,6.5509,6.5559,6.5383,6.5028,6.4676,6.4188,6.3495,6.1983,6.1036,6.0797,5.9317,5.8317,5.7827,5.7123,5.6964,5.764,5.5464,5.3965,5.4087,5.3743,5.3524,5.3644,5.405,5.4981,5.5807,5.4957,5.4384,5.5262,5.5475,5.5734,5.6369,5.6486,5.6769,5.7214,5.7355,5.7445,5.749,5.749,5.749,5.749,5.749,5.749,5.749,5.749,5.749,5.749,5.749,5.7024,5.6053,5.5186,5.4186,5.2868,5.2045,5.1891,5.1644,5.1571,5.1547,5.1474,5.1474,5.1426,5.1426,5.1474,5.1523,5.1644,5.1823,5.2106,5.2021,5.1964,5.2391,6.6112,6.6112,6.6112,6.6112,6.6112,6.6112,6.6112,6.6112,6.6112,6.6112,6.6112,6.6112,6.6112,6.6112,6.6112,6.6069,6.6026,6.6069,6.6026,6.5853,6.5961,6.5983,6.5961,6.5853,6.5832,6.6112,6.6069,6.6047,6.609,6.6112,6.6112,6.6112,6.6112,6.6112,6.6112,6.6112,6.6112,6.6065,6.6015,6.6061,6.6036,6.5559,6.5308,6.5358,6.5329,6.5534,6.604,6.604,6.5965,6.5961,6.5936,6.6061,6.5456,6.3705,6.2514,6.22,6.0316,5.9112,5.8906,5.7987,5.8126,5.8492,5.6356,5.5225,5.5348,5.5131,5.496,5.5078,5.5217,5.5737,5.7236,5.6886,5.6488,5.7234,5.7141,5.7188,5.7351,5.7444,5.7467,5.749,5.749,5.749,5.749,5.749,5.749,5.749,5.749,5.749,5.749,5.749,5.749,5.749,5.749,5.7211,5.6627,5.5949,5.4886,5.3863,5.3309,5.2876,5.2442,5.2273,5.237,5.237,5.2956,5.298,5.3777,5.3754,5.3347,5.3368,5.3268,5.3695,5.3989,5.4346,5.4465,6.6112,6.6112,6.6112,6.6112,6.6112,6.6112,6.6112,6.6112,6.6112,6.6112,6.6112,6.6112,6.6112,6.6112,6.6112,6.6112,6.6112,6.6112,6.6112,6.6112,6.6112,6.6112,6.6112,6.6112,6.6112,6.6112,6.6112,6.6112,6.6112,6.6112,6.6112,6.6112,6.6112,6.6112,6.6112,6.6112,6.6112,6.6112,6.6112,6.6112,6.6112,6.5914,6.586,6.586,6.5839,6.5961,6.6065,6.6112,6.5911,6.5609,6.5534,6.5534,6.5353,6.4589,6.4017,6.3932,6.3358,6.2872,6.2804,6.236,6.1713,6.1287,5.9818,5.8629,5.7938,5.8169,5.833,5.8491,5.9087,5.9909,6.025,6.0227,5.9269,5.7676,5.749,5.7559,5.749,5.749,5.749,5.749,5.749,5.749,5.7537,5.7583,5.7746,5.7723,5.77,5.77,5.7607,5.7816,5.749,5.749,5.7536,5.8117,5.821,5.8258,5.7727,5.6588,5.5694,5.4746,5.4081,5.3723,5.3675,5.3842,5.4349,5.4897,5.568,5.5915,5.5516,5.5962,5.6593,5.685,5.6943,5.6964,5.6893,6.6112,6.6112,6.6112,6.6112,6.6112,6.6112,6.6112,6.6112,6.6112,6.6112,6.6112,6.6112,6.6112,6.6112,6.6112,6.6112,6.6112,6.6112,6.6112,6.6112,6.6112,6.6112,6.6112,6.6112,6.6112,6.6112,6.6112,6.6112,6.6112,6.6112,6.6112,6.6112,6.6112,6.6112,6.6112,6.6112,6.6112,6.6112,6.6112,6.6112,6.6112,6.6112,6.6112,6.6112,6.6112,6.6112,6.6112,6.6112,6.5961,6.566,6.5609,6.5584,6.5592,6.5352,6.5202,6.5202,6.5202,6.5158,6.518,6.4481,6.4394,6.3668,6.2317,6.1085,6.0408,6.0746,6.0747,6.0475,6.1085,6.1806,6.1761,6.1783,6.0906,5.9361,5.8649,5.8117,5.77,5.749,5.7839,5.814,5.8394,5.8534,5.8948,5.9108,5.9108,5.9108,5.9086,5.9108,5.9108,5.9178,5.904,5.904,5.9407,5.9931,6.0341,6.0477,6.0522,5.9544,5.8468,5.7406,5.6498,5.6358,5.6288,5.6358,5.6733,5.685,5.7524,5.7848,5.7825,5.8791,5.9431,5.9043,5.8745,5.8905,5.8997,6.6112,6.6112,6.6162,6.6212,6.6212,6.6262,6.6338,6.6262,6.6266,6.6338,6.6287,6.6341,6.6312,6.6241,6.6366,6.6366,6.6237,6.6338,6.6388,6.6341,6.6316,6.6291,6.6115,6.6212,6.6212,6.6112,6.6112,6.6112,6.6112,6.6112,6.6112,6.6112,6.6112,6.6112,6.6112,6.6112,6.6112,6.6112,6.6112,6.6112,6.6112,6.6112,6.6112,6.6112,6.6112,6.6112,6.6112,6.6112,6.6112,6.6065,6.6015,6.6015,6.6086,6.6112,6.6004,6.5961,6.6069,6.6004,6.581,6.5072,6.4634,6.5137,6.358,6.2117,6.236,6.2339,6.2138,6.1443,6.196,6.2318,6.234,6.2409,6.2186,6.1806,6.059,5.9361,5.8071,5.7978,5.8672,5.9566,5.9886,6.0204,6.1244,6.1402,6.1447,6.1447,6.1357,6.1222,6.1244,6.1064,6.1559,6.1447,6.0974,6.1424,6.1694,6.1962,6.214,6.2472,6.1376,6.0317,5.9111,5.8813,5.9134,5.9202,5.9157,5.9203,5.9727,6.0474,6.0632,6.097,6.1037,6.0633,6.0836,6.1308,6.151,6.6112,6.614,6.6564,6.6761,6.6836,6.7166,6.7342,6.7367,6.7317,6.7267,6.7342,6.7342,6.7292,6.7342,6.7317,6.7342,6.7292,6.7317,6.7367,6.7367,6.7367,6.6818,6.6341,6.6564,6.6538,6.6212,6.6237,6.6112,6.6112,6.619,6.6187,6.6112,6.6212,6.6162,6.6112,6.6137,6.6112,6.6112,6.6112,6.6112,6.6112,6.6112,6.6112,6.6112,6.6112,6.6112,6.6112,6.6112,6.6112,6.6112,6.6112,6.6112,6.6112,6.6112,6.6112,6.6112,6.6112,6.6112,6.6026,6.5746,6.531,6.4677,6.4767,6.4568,6.369,6.4481,6.4721,6.4609,6.4873,6.4876,6.492,6.4854,6.4437,6.3428,6.223,6.1132,6.0635,6.0703,6.0884,6.1199,6.1221,6.1559,6.1895,6.205,6.205,6.205,6.2096,6.2119,6.2386,6.2319,6.2542,6.2029,6.1761,6.2453,6.2986,6.3296,6.3846,6.4898,6.4347,6.3358,6.2094,6.1063,6.1736,6.2317,6.2113,6.2091,6.3378,6.4476,6.4148,6.3089,6.3554,6.3644,6.4238,6.4674,6.4457,6.6815,6.684,6.7166,6.7339,6.7367,6.7668,6.7819,6.7819,6.7819,6.7819,6.7819,6.7819,6.7819,6.7819,6.7794,6.7794,6.7819,6.7819,6.7794,6.7819,6.7998,6.7621,6.7116,6.7216,6.7163,6.6865,6.6815,6.684,6.684,6.6815,6.6815,6.6865,6.6815,6.6714,6.6488,6.6463,6.6316,6.6162,6.6112,6.6112,6.6112,6.6112,6.6112,6.6112,6.6112,6.6112,6.6112,6.6112,6.6112,6.6112,6.6112,6.6112,6.6112,6.6112,6.6112,6.6112,6.6112,6.6112,6.6112,6.6112,6.5746,6.5202,6.5767,6.5638,6.518,6.5702,6.6112,6.5983,6.609,6.6112,6.6112,6.6112,6.5724,6.4963,6.4109,6.3119,6.2006,6.1694,6.2119,6.2475,6.2718,6.3006,6.345,6.356,6.3582,6.3692,6.389,6.3846,6.3846,6.3582,6.3428,6.3251,6.3296,6.4022,6.435,6.459,6.4612,6.5681,6.5767,6.5072,6.4372,6.3185,6.378,6.4394,6.4677,6.505,6.5656,6.6112,6.5634,6.5199,6.6026,6.6112,6.6112,6.6112,6.6112,6.7819,6.7819,6.7869,6.7894,6.7894,6.797,6.8095,6.802,6.8048,6.807,6.807,6.802,6.8145,6.797,6.817,6.802,6.8045,6.8145,6.8095,6.8199,6.8424,6.8374,6.8023,6.7847,6.7794,6.7668,6.7769,6.7719,6.7618,6.7668,6.7744,6.7643,6.7668,6.7518,6.7163,6.7062,6.6789,6.6513,6.6488,6.6413,6.6338,6.6287,6.6262,6.6112,6.6112,6.6112,6.6112,6.6112,6.6112,6.6112,6.6112,6.6112,6.6112,6.6112,6.6112,6.6112,6.6112,6.6112,6.6112,6.6112,6.6112,6.5983,6.6004,6.6112,6.5983,6.6047,6.6112,6.6112,6.6112,6.6112,6.6137,6.6162,6.6198,6.6007,6.6025,6.4866,6.3102,6.2276,6.274,6.3956,6.4197,6.4851,6.5591,6.6112,6.5983,6.4963,6.5137,6.5072,6.5072,6.5006,6.5093,6.5267,6.544,6.5789,6.5896,6.5918,6.5832,6.6047,6.6047,6.5746,6.5724,6.518,6.5591,6.5896,6.5548,6.5526,6.5875,6.6112,6.6112,6.6112,6.6112,6.6112,6.6112,6.6112,6.6112,6.7819,6.7844,6.8249,6.8424,6.85,6.8876,6.9029,6.9004,6.9052,6.8977,6.9029,6.9052,6.9027,6.9027,6.8977,6.9055,6.8977,6.8977,6.9055,6.9077,6.9152,6.918,6.8952,6.8625,6.8199,6.7995,6.7844,6.7844,6.7844,6.7945,6.7819,6.7869,6.797,6.7766,6.769,6.7618,6.7568,6.7442,6.7417,6.7141,6.6861,6.6764,6.6614,6.6262,6.614,6.6137,6.6112,6.6112,6.6112,6.6112,6.6112,6.6112,6.6112,6.6112,6.6112,6.6112,6.6112,6.6112,6.6112,6.6137,6.6112,6.6112,6.6162,6.6112,6.6112,6.6112,6.6112,6.6112,6.6112,6.6187,6.6262,6.6564,6.6761,6.6811,6.6768,6.6572,6.5906,6.5341,6.5161,6.5418,6.5573,6.5767,6.6047,6.609,6.6112,6.6112,6.6137,6.6137,6.6162,6.6187,6.6312,6.6413,6.6312,6.6363,6.6538,6.6538,6.6564,6.6538,6.6488,6.6438,6.6438,6.6312,6.6388,6.6287,6.6047,6.6112,6.6112,6.6112,6.6112,6.6112,6.6112,6.6112,6.6112,6.6112,6.6112,6.855,6.8575,6.8851,6.8954,6.9027,6.9255,6.9406,6.9406,6.9406,6.9406,6.9406,6.9406,6.9406,6.9406,6.9406,6.9381,6.9406,6.9406,6.9381,6.9381,6.9381,6.9381,6.9381,6.913,6.8779,6.855,6.8575,6.855,6.855,6.8525,6.86,6.855,6.8525,6.8424,6.8221,6.8173,6.802,6.7794,6.7794,6.7643,6.7417,6.7342,6.7292,6.689,6.6664,6.6513,6.6538,6.6237,6.6137,6.6112,6.6137,6.6115,6.609,6.609,6.6112,6.6112,6.6112,6.6112,6.6137,6.6338,6.6413,6.614,6.6338,6.6312,6.6212,6.6112,6.6287,6.6438,6.6564,6.6614,6.6865,6.7116,6.7364,6.7367,6.7389,6.7389,6.7263,6.6639,6.6112,6.6112,6.6026,6.6026,6.6112,6.6262,6.6187,6.6212,6.6614,6.6614,6.6614,6.6664,6.6865,6.6912,6.6689,6.6689,6.694,6.7066,6.7116,6.7141,6.7166,6.7166,6.7166,6.6965,6.6789,6.6564,6.6338,6.6137,6.6112,6.6112,6.6165,6.6115,6.6115,6.609,6.6112,6.6112,6.6112,6.9406,6.9406,6.9406,6.9406,6.9406,6.9406,6.9406,6.9406,6.9406,6.9406,6.9406,6.9406,6.9406,6.9406,6.9406,6.9431,6.9529,6.9406,6.9431,6.9629,6.9456,6.9406,6.9381,6.9331,6.9306,6.9406,6.928,6.928,6.9306,6.9381,6.918,6.9331,6.9356,6.9055,6.8776,6.8701,6.8575,6.8296,6.8199,6.8073,6.7922,6.7919,6.7869,6.7593,6.7339,6.7138,6.7037,6.6739,6.6438,6.6363,6.6363,6.6341,6.6316,6.6115,6.6187,6.6237,6.6312,6.6438,6.6614,6.684,6.689,6.6391,6.6789,6.6865,6.6564,6.6538,6.6739,6.694,6.7116,6.7241,6.7719,6.7869,6.7894,6.7919,6.7919,6.7919,6.7744,6.699,6.6589,6.6488,6.6664,6.6714,6.6639,6.6664,6.6488,6.6413,6.6861,6.7138,6.7113,6.7163,6.7339,6.7389,6.7191,6.7116,6.7317,6.7442,6.7518,6.7618,6.7693,6.7693,6.7693,6.7467,6.7166,6.684,6.6589,6.6488,6.6513,6.6692,6.6642,6.6341,6.6241,6.6363,6.6287,6.6137,6.6162,6.9406,6.9406,6.9406,6.9406,6.9406,6.9406,6.9406,6.9406,6.9406,6.9406,6.9406,6.9406,6.9431,6.9431,6.9406,6.9679,6.9978,6.9828,6.9755,6.9978,6.9755,6.9556,6.9582,6.9607,6.9531,6.9406,6.9431,6.9456,6.9406,6.9406,6.9406,6.9406,6.9406,6.928,6.923,6.9255,6.9155,6.8977,6.8952,6.8801,6.855,6.845,6.8299,6.7995,6.7769,6.7668,6.7643,6.7568,6.7518,6.7518,6.7518,6.7467,6.7241,6.6617,6.6488,6.6739,6.684,6.6965,6.7292,6.7543,6.7618,6.7568,6.7593,6.7618,6.7467,6.7442,6.7442,6.7593,6.7693,6.7769,6.7794,6.8224,6.8424,6.845,6.8475,6.8475,6.8349,6.797,6.7518,6.7496,6.7518,6.7392,6.7241,6.7141,6.7116,6.7141,6.7442,6.7643,6.7668,6.7668,6.7744,6.7744,6.7693,6.7668,6.7719,6.7794,6.7869,6.7945,6.802,6.802,6.797,6.7819,6.7593,6.7521,6.737,6.7317,6.7367,6.7342,6.7166,6.6915,6.6789,6.6711,6.6639,6.6564,6.6391,6.9406,6.9406,6.9406,6.9406,6.9406,6.9406,6.9406,6.9406,6.9406,6.9406,6.9481,6.9705,6.9853,6.9928,7.0204,7.0455,7.0554,7.0478,7.0455,7.0604,7.0405,7.0282,7.0232,7.0257,7.0257,7.0204,7.0054,6.9679,6.9431,6.9406,6.9406,6.9406,6.9406,6.9406,6.9406,6.9381,6.9406,6.9406,6.9381,6.928,6.9029,6.8979,6.8826,6.865,6.8324,6.8199,6.817,6.7872,6.7794,6.7794,6.7794,6.7819,6.7643,6.7417,6.7094,6.7367,6.7417,6.7493,6.7844,6.7995,6.8073,6.7844,6.8045,6.8045,6.7894,6.7794,6.797,6.8221,6.855,6.8625,6.8675,6.8876,6.8979,6.9027,6.8979,6.8979,6.8929,6.8751,6.86,6.8424,6.8023,6.7794,6.7693,6.7693,6.7769,6.7919,6.8095,6.817,6.8221,6.8246,6.8224,6.8374,6.8399,6.8399,6.8399,6.8374,6.8349,6.8399,6.8424,6.8424,6.85,6.845,6.8575,6.8603,6.8475,6.8045,6.7794,6.7618,6.7543,6.7493,6.7392,6.7292,6.7141,6.699,6.6865,6.9406,6.9406,6.9554,6.9556,6.9604,6.9707,6.978,6.9732,6.9805,6.9805,6.9805,7.0204,7.0476,7.0577,7.083,7.1131,7.1232,7.1156,7.1106,7.1184,7.1056,7.1033,7.1081,7.1106,7.1006,7.083,7.0654,7.0177,6.9705,6.9481,6.9406,6.9406,6.9406,6.9406,6.9406,6.9406,6.9406,6.9406,6.9406,6.9406,6.9406,6.9406,6.9406,6.9381,6.9002,6.8753,6.8726,6.8475,6.8249,6.8246,6.8221,6.8196,6.8123,6.8098,6.8098,6.8098,6.8045,6.802,6.8246,6.8475,6.86,6.8371,6.855,6.8475,6.8324,6.8324,6.8349,6.8751,6.9029,6.928,6.923,6.9356,6.9356,6.9356,6.9356,6.9381,6.9331,6.923,6.9205,6.8904,6.845,6.8299,6.8299,6.8374,6.85,6.8525,6.8675,6.8726,6.8776,6.8753,6.8829,6.908,6.918,6.918,6.9155,6.908,6.9029,6.9002,6.9002,6.9027,6.9105,6.9205,6.9255,6.9155,6.8879,6.845,6.8173,6.8023,6.8145,6.8145,6.802,6.7819,6.7543,6.7467,6.7417,6.9406,6.9431,6.9978,7.0202,7.0277,7.0631,7.0857,7.0855,7.0782,7.0905,7.0757,7.0932,7.1031,7.1106,7.1131,7.1433,7.156,7.146,7.1485,7.1711,7.1458,7.1282,7.1182,7.1106,7.1307,7.1307,7.1131,7.0704,7.0255,6.978,6.9456,6.9456,6.9431,6.9406,6.9406,6.9406,6.9406,6.9406,6.9406,6.9406,6.9406,6.9406,6.9406,6.9381,6.9306,6.923,6.9205,6.9077,6.9029,6.908,6.913,6.918,6.9205,6.9205,6.9205,6.9055,6.8876,6.8701,6.9052,6.9155,6.918,6.9027,6.918,6.9255,6.9055,6.9004,6.9055,6.9255,6.9381,6.9406,6.9406,6.9406,6.9406,6.9406,6.9406,6.9406,6.9406,6.9406,6.9406,6.9381,6.8879,6.8979,6.908,6.9155,6.923,6.9255,6.9255,6.923,6.923,6.9155,6.913,6.9331,6.9406,6.9406,6.9406,6.9406,6.9406,6.9406,6.9406,6.9406,6.9406,6.9406,6.9406,6.9255,6.9029,6.8954,6.8829,6.8801,6.8851,6.8751,6.855,6.8221,6.7844,6.7869,6.8045,7.0357,7.0405,7.0654,7.0755,7.078,7.1006,7.1106,7.1106,7.1106,7.1106,7.1182,7.1435,7.1711,7.1888,7.2012,7.2114,7.2265,7.2087,7.2089,7.2265,7.2087,7.1987,7.2014,7.1989,7.1989,7.1861,7.1711,7.1485,7.0983,7.038,6.9903,6.9853,6.9579,6.9406,6.9431,6.9406,6.9406,6.9406,6.9406,6.9406,6.9406,6.9406,6.9406,6.9406,6.9406,6.9406,6.9406,6.9406,6.9406,6.9406,6.9406,6.9406,6.9381,6.9381,6.9381,6.9381,6.918,6.9177,6.9353,6.9381,6.9406,6.9406,6.9406,6.9356,6.9406,6.9406,6.9406,6.9381,6.9406,6.9406,6.9406,6.9406,6.9406,6.9406,6.9406,6.9406,6.9406,6.9406,6.9406,6.9406,6.9406,6.9406,6.9406,6.9381,6.9331,6.9331,6.9331,6.9331,6.9331,6.9306,6.9306,6.9356,6.9406,6.9406,6.9406,6.9406,6.9406,6.9406,6.9406,6.9406,6.9406,6.9406,6.9406,6.9406,6.9255,6.928,6.9406,6.9306,6.913,6.9102,6.9052,6.8751,6.85,6.8675,6.8801,7.1485,7.1485,7.1334,7.1284,7.1309,7.1435,7.151,7.151,7.1535,7.1533,7.1585,7.1937,7.2315,7.2616,7.2641,7.2591,7.2666,7.2717,7.2717,7.2717,7.2717,7.2641,7.2566,7.2641,7.2641,7.2692,7.2265,7.2087,7.1811,7.1259,7.0679,7.0478,6.9978,6.9705,6.9604,6.9481,6.9406,6.9406,6.9406,6.9406,6.9406,6.9406,6.9406,6.9406,6.9406,6.9406,6.9406,6.9406,6.9406,6.9406,6.9406,6.9406,6.9406,6.9406,6.9406,6.9406,6.9331,6.9331,6.9381,6.9406,6.9406,6.9406,6.9406,6.9406,6.9406,6.9406,6.9406,6.9406,6.9406,6.9406,6.9406,6.9406,6.9406,6.9406,6.9406,6.9406,6.9406,6.9406,6.9406,6.9406,6.9406,6.9406,6.9406,6.9406,6.9381,6.9406,6.9406,6.9406,6.9406,6.9406,6.9406,6.9406,6.9406,6.9406,6.9406,6.9406,6.9406,6.9406,6.9406,6.9406,6.9406,6.9406,6.9406,6.9406,6.9406,6.9406,6.9406,6.9406,6.9381,6.928,6.923,6.9306,6.928,6.9406,6.9356,7.2591,7.2541,7.2062,7.1861,7.1863,7.2365,7.2566,7.2441,7.2516,7.2491,7.2441,7.2616,7.2616,7.2692,7.2717,7.2717,7.2717,7.2717,7.2717,7.2717,7.2717,7.2717,7.2717,7.2717,7.2717,7.2717,7.2541,7.2541,7.2491,7.1989,7.146,7.1056,7.0529,7.0328,7.0026,6.9654,6.9431,6.9406,6.9406,6.9406,6.9406,6.9406,6.9406,6.9406,6.9406,6.9406,6.9406,6.9406,6.9406,6.9406,6.9406,6.9406,6.9406,6.9406,6.9406,6.9406,6.9406,6.9406,6.9406,6.9406,6.9406,6.9406,6.9406,6.9406,6.9406,6.9406,6.9406,6.9406,6.9406,6.9406,6.9406,6.9406,6.9406,6.9406,6.9406,6.9406,6.9406,6.9406,6.9406,6.9406,6.9406,6.9406,6.9406,6.9406,6.9406,6.9406,6.9406,6.9406,6.9406,6.9406,6.9406,6.9406,6.9406,6.9406,6.9406,6.9406,6.9406,6.9406,6.9406,6.9406,6.9406,6.9406,6.9406,6.9406,6.9406,6.9406,6.9406,6.9406,6.9406,6.9406,6.9406,6.9406,6.9406,6.9406,6.9406,7.2717,7.2668,7.2466,7.239,7.239,7.2616,7.2717,7.2717,7.2717,7.2717,7.2717,7.2717,7.2717,7.2717,7.2717,7.2717,7.2717,7.2717,7.2717,7.2717,7.2717,7.2717,7.2717,7.2717,7.2717,7.2717,7.2717,7.2717,7.2641,7.2415,7.2365,7.1912,7.1232,7.0629,7.0252,6.9853,6.9531,6.9456,6.9431,6.9406,6.9406,6.9406,6.9406,6.9406,6.9406,6.9406,6.9406,6.9406,6.9406,6.9406,6.9406,6.9406,6.9406,6.9406,6.9406,6.9406,6.9406,6.9406,6.9406,6.9406,6.9406,6.9406,6.9406,6.9406,6.9406,6.9406,6.9406,6.9406,6.9431,6.9481,6.9406,6.9406,6.9406,6.9406,6.9456,6.9506,6.9556,6.9632,6.9554,6.9604,6.9481,6.9406,6.9406,6.9406,6.9406,6.9406,6.9406,6.9406,6.9406,6.9406,6.9406,6.9406,6.9406,6.9406,6.9406,6.9406,6.9406,6.9406,6.9406,6.9406,6.9406,6.9406,6.9406,6.9406,6.9406,6.9406,6.9406,6.9406,6.9406,6.9406,6.9406,6.9406,6.9406,6.9406,6.9406,7.2717,7.2717,7.2717,7.2717,7.2717,7.2717,7.2717,7.2717,7.2717,7.2717,7.2717,7.2717,7.2717,7.2717,7.2717,7.2717,7.2717,7.2717,7.2717,7.2717,7.2717,7.2717,7.2717,7.2717,7.2717,7.2717,7.2717,7.2717,7.2717,7.2717,7.2616,7.239,7.1987,7.1384,7.083,7.0229,6.9905,6.9905,6.9905,6.9905,6.9956,6.9956,6.9805,6.978,6.973,6.9554,6.9456,6.9406,6.9406,6.9406,6.9406,6.9406,6.9406,6.9406,6.9406,6.9406,6.9406,6.9406,6.9406,6.9406,6.9406,6.9406,6.9406,6.9406,6.9406,6.9406,6.9406,6.9406,6.9506,6.9654,6.9679,6.988,7.0056,7.0181,7.0156,7.0207,7.0181,7.0229,6.9978,6.9853,6.973,6.973,6.9777,6.9803,6.9629,6.9556,6.9406,6.9406,6.9406,6.9406,6.9406,6.9406,6.9406,6.9406,6.9406,6.9406,6.9406,6.9406,6.9406,6.9406,6.9406,6.9406,6.9406,6.9406,6.9406,6.9406,6.9406,6.9406,6.9406,6.9406,6.9406,6.9406,6.9406,6.9406,6.9406,7.2717,7.2717,7.2717,7.2717,7.2717,7.2717,7.2717,7.2717,7.2717,7.2717,7.2717,7.2717,7.2717,7.2717,7.2717,7.2717,7.2717,7.2717,7.2717,7.2717,7.2717,7.2717,7.2717,7.2717,7.2717,7.2717,7.2717,7.2717,7.2717,7.2717,7.2717,7.2717,7.2441,7.2139,7.1811,7.1307,7.1056,7.1031,7.0956,7.0905,7.0855,7.0807,7.0579,7.0378,7.0277,7.0079,6.983,6.9755,6.9757,6.9732,6.973,6.973,6.9682,6.9679,6.9654,6.9607,6.9556,6.9531,6.9481,6.9456,6.9556,6.9679,6.9805,6.9679,6.9506,6.9456,6.9529,6.9654,6.9878,7.0177,7.0403,7.0629,7.0757,7.0807,7.0757,7.0732,7.0681,7.0656,7.0453,7.0305,7.0277,7.0277,7.03,7.0227,6.9978,6.9755,6.9481,6.9406,6.9431,6.9406,6.9406,6.9406,6.9406,6.9406,6.9406,6.9406,6.9406,6.9406,6.9406,6.9406,6.9406,6.9406,6.9406,6.9406,6.9406,6.9406,6.9406,6.9406,6.9406,6.9406,6.9406,6.9406,6.9406,6.9406,6.9406,7.2717,7.2717,7.2717,7.2717,7.2717,7.2717,7.2717,7.2717,7.2717,7.2717,7.2717,7.2717,7.2717,7.2717,7.2742,7.2742,7.2742,7.2717,7.2717,7.2717,7.2717,7.2717,7.2717,7.2717,7.2717,7.2717,7.2717,7.2717,7.2717,7.2717,7.2717,7.2717,7.2666,7.239,7.1887,7.1433,7.1106,7.1106,7.1081,7.1081,7.1106,7.1131,7.1056,7.0878,7.083,7.0681,7.043,7.038,7.038,7.0382,7.038,7.0405,7.043,7.043,7.0455,7.048,7.0506,7.0531,7.0531,7.0556,7.0531,7.0531,7.043,7.0255,7.0054,7.0026,7.0026,7.0029,7.0252,7.0551,7.0805,7.093,7.1008,7.1031,7.1006,7.1006,7.0981,7.1006,7.0905,7.0855,7.083,7.078,7.0803,7.078,7.0581,7.0255,6.9981,6.9679,6.9629,6.9481,6.9406,6.9406,6.9406,6.9406,6.9431,6.9657,6.973,6.9705,6.9556,6.9406,6.9406,6.9582,6.9556,6.9657,6.9506,6.9406,6.9556,6.9679,6.9456,6.9406,6.9431,6.9431,6.9406,6.9406,6.9406,7.2717,7.2717,7.2717,7.2717,7.2717,7.2717,7.2717,7.2717,7.2717,7.2717,7.2742,7.2892,7.3018,7.3018,7.2993,7.2993,7.2993,7.2767,7.2717,7.2717,7.2717,7.2717,7.2717,7.2717,7.2717,7.2717,7.2717,7.2717,7.2717,7.2717,7.2717,7.2717,7.2692,7.2516,7.2188,7.1887,7.1736,7.1786,7.1811,7.1761,7.1761,7.1686,7.161,7.1435,7.1334,7.1259,7.1156,7.1106,7.1131,7.1131,7.1131,7.1131,7.1131,7.1131,7.1106,7.1106,7.1106,7.1158,7.1259,7.1334,7.1384,7.1636,7.1359,7.0956,7.0654,7.0579,7.0579,7.0604,7.0704,7.1006,7.1307,7.1384,7.156,7.156,7.1585,7.161,7.1636,7.1661,7.1535,7.1485,7.1359,7.1332,7.1232,7.1307,7.1234,7.0857,7.048,7.0207,6.9956,6.988,6.983,6.9855,6.993,7.0056,7.0131,7.0207,7.0181,7.0031,6.993,6.983,7.0031,7.033,7.0106,6.9956,7.0106,7.0179,7.0031,6.9956,6.9855,6.9679,6.9529,6.9481,6.9406,6.9406,6.9406,7.2717,7.2717,7.2717,7.2717,7.2742,7.2867,7.2817,7.2717,7.2742,7.2767,7.2792,7.3393,7.3619,7.3619,7.3619,7.3619,7.3569,7.3093,7.2993,7.2917,7.3068,7.2943,7.2867,7.2842,7.2817,7.2742,7.2717,7.2717,7.2717,7.2717,7.2717,7.2717,7.2717,7.2616,7.2541,7.2491,7.2415,7.2365,7.2365,7.234,7.234,7.2466,7.2215,7.2014,7.1912,7.1711,7.1535,7.141,7.1334,7.1332,7.1282,7.1232,7.1207,7.1182,7.1156,7.1207,7.1282,7.156,7.1836,7.1912,7.2089,7.224,7.1761,7.1357,7.1131,7.1108,7.1108,7.1209,7.1359,7.1661,7.1912,7.219,7.2466,7.2466,7.2491,7.2491,7.2516,7.2415,7.224,7.2114,7.1964,7.1836,7.1636,7.1636,7.1786,7.1636,7.1359,7.1309,7.101,7.0706,7.0681,7.0656,7.078,7.0905,7.093,7.0732,7.0656,7.0506,7.0656,7.0656,7.0905,7.0905,7.0681,7.0631,7.0905,7.0905,7.0606,7.043,7.0353,7.0154,7.0029,6.9607,6.9556,6.9431,6.9406,7.2717,7.2717,7.2717,7.2966,7.3368,7.3746,7.347,7.2817,7.3142,7.3343,7.3368,7.392,7.4147,7.4147,7.4171,7.4171,7.4096,7.3997,7.3971,7.3871,7.3721,7.357,7.3445,7.3318,7.3117,7.2867,7.2767,7.2767,7.2742,7.2717,7.2717,7.2717,7.2717,7.2717,7.2717,7.2717,7.2717,7.2717,7.2717,7.2717,7.2717,7.2717,7.2541,7.2441,7.239,7.2215,7.2139,7.2114,7.2114,7.2139,7.219,7.2215,7.2263,7.224,7.224,7.224,7.2265,7.234,7.2441,7.2466,7.2516,7.2641,7.2315,7.2062,7.1836,7.1686,7.1686,7.1786,7.1861,7.2039,7.224,7.2541,7.2717,7.2717,7.2717,7.2717,7.2717,7.2666,7.2491,7.2466,7.2315,7.2265,7.2064,7.2114,7.2265,7.224,7.219,7.2114,7.1987,7.1585,7.141,7.1408,7.1382,7.1483,7.1282,7.1058,7.1081,7.1056,7.1257,7.1332,7.1257,7.1232,7.1156,7.1232,7.1408,7.1307,7.1031,7.093,7.088,7.0855,7.0729,7.0156,6.9707,6.9632,6.9554,7.2842,7.3043,7.3067,7.3393,7.392,7.4248,7.3947,7.3495,7.3746,7.392,7.3996,7.4474,7.4725,7.47,7.4725,7.47,7.47,7.4398,7.4297,7.4297,7.4473,7.4197,7.3996,7.3895,7.3745,7.3394,7.3143,7.3142,7.2968,7.2767,7.2717,7.2717,7.2717,7.2717,7.2717,7.2717,7.2717,7.2717,7.2717,7.2717,7.2717,7.2717,7.2717,7.2717,7.2717,7.2717,7.2717,7.2717,7.2717,7.2717,7.2717,7.2692,7.2692,7.2666,7.2643,7.2641,7.2616,7.2591,7.2641,7.2666,7.2692,7.2717,7.2692,7.2516,7.234,7.2215,7.2215,7.224,7.2265,7.234,7.2541,7.2717,7.2717,7.2717,7.2717,7.2717,7.2717,7.2717,7.2692,7.2692,7.2666,7.2666,7.2666,7.2717,7.2692,7.2566,7.2516,7.2491,7.239,7.219,7.2039,7.2014,7.1962,7.1912,7.1686,7.1585,7.1686,7.1786,7.1937,7.1937,7.1711,7.1736,7.1861,7.1861,7.1836,7.1736,7.1686,7.1485,7.141,7.1408,7.1307,7.0807,7.0332,7.0054,6.9953,7.3143,7.3669,7.3718,7.4021,7.4423,7.4573,7.4598,7.4524,7.4573,7.4523,7.4574,7.5051,7.5277,7.5277,7.5277,7.5277,7.5177,7.495,7.4849,7.4573,7.4774,7.4674,7.4524,7.4449,7.4273,7.4172,7.3947,7.3569,7.3393,7.3043,7.2717,7.2717,7.2717,7.2717,7.2717,7.2717,7.2717,7.2717,7.2717,7.2717,7.2717,7.2717,7.2717,7.2717,7.2717,7.2717,7.2717,7.2717,7.2717,7.2717,7.2717,7.2717,7.2717,7.2717,7.2717,7.2717,7.2717,7.2717,7.2717,7.2717,7.2717,7.2717,7.2692,7.2641,7.2566,7.2541,7.2516,7.2516,7.2516,7.2516,7.2666,7.2717,7.2717,7.2717,7.2717,7.2717,7.2717,7.2717,7.2717,7.2717,7.2717,7.2717,7.2717,7.2717,7.2717,7.2717,7.2717,7.2717,7.2666,7.2566,7.2516,7.2466,7.239,7.229,7.234,7.229,7.2441,7.2566,7.2541,7.2491,7.224,7.239,7.2641,7.2466,7.224,7.2441,7.2415,7.2139,7.1913,7.1937,7.1761,7.141,7.1033,7.0755,7.0478,7.4096,7.4248,7.4649,7.49,7.5076,7.5502,7.5678,7.5678,7.5678,7.5402,7.5201,7.5578,7.5853,7.5828,7.5828,7.5828,7.5753,7.5578,7.5678,7.5602,7.5577,7.5251,7.5076,7.5001,7.4849,7.4498,7.4222,7.3996,7.3544,7.3068,7.2717,7.2717,7.2717,7.2717,7.2792,7.2767,7.2717,7.2717,7.2717,7.2717,7.2717,7.2717,7.2717,7.2717,7.2717,7.2717,7.2717,7.2717,7.2717,7.2717,7.2717,7.2717,7.2717,7.2717,7.2717,7.2717,7.2717,7.2717,7.2717,7.2717,7.2717,7.2717,7.2717,7.2717,7.2692,7.2717,7.2717,7.2717,7.2717,7.2717,7.2717,7.2717,7.2717,7.2717,7.2717,7.2717,7.2717,7.2717,7.2717,7.2717,7.2717,7.2717,7.2717,7.2717,7.2717,7.2717,7.2717,7.2717,7.2717,7.2641,7.2641,7.2616,7.2641,7.2616,7.2717,7.2717,7.2717,7.2717,7.2641,7.2666,7.2717,7.2717,7.2717,7.2717,7.2641,7.2717,7.2717,7.2641,7.2466,7.2365,7.229,7.1964,7.1937,7.1711,7.1334,7.4549,7.4825,7.5352,7.5603,7.5653,7.5954,7.6104,7.6104,7.6104,7.5929,7.5653,7.5929,7.6104,7.6104,7.6104,7.6104,7.6104,7.6104,7.6004,7.6054,7.6079,7.5878,7.5703,7.5578,7.5477,7.5151,7.48,7.4423,7.3745,7.3393,7.3118,7.3018,7.2917,7.2842,7.2968,7.2892,7.2717,7.2717,7.2717,7.2717,7.2717,7.2717,7.2717,7.2717,7.2717,7.2717,7.2717,7.2717,7.2717,7.2717,7.2717,7.2717,7.2717,7.2717,7.2717,7.2717,7.2717,7.2717,7.2717,7.2717,7.2717,7.2717,7.2717,7.2717,7.2717,7.2717,7.2717,7.2717,7.2717,7.2717,7.2717,7.2717,7.2717,7.2717,7.2717,7.2717,7.2717,7.2717,7.2717,7.2717,7.2717,7.2717,7.2717,7.2717,7.2717,7.2717,7.2717,7.2717,7.2717,7.2717,7.2717,7.2717,7.2717,7.2717,7.2717,7.2717,7.2717,7.2717,7.2717,7.2717,7.2717,7.2717,7.2717,7.2717,7.2717,7.2717,7.2717,7.2717,7.2717,7.2566,7.2591,7.2591,7.2566,7.2466,7.2113,7.49,7.5377,7.5878,7.6104,7.6104,7.6104,7.6104,7.6104,7.6104,7.6104,7.6054,7.6079,7.6104,7.6104,7.6104,7.6104,7.6104,7.6104,7.6104,7.6104,7.6104,7.6029,7.6054,7.6054,7.5928,7.5703,7.5352,7.47,7.4021,7.3795,7.3619,7.3519,7.3293,7.3068,7.3268,7.3092,7.2742,7.2842,7.2842,7.2717,7.2717,7.2717,7.2717,7.2717,7.2717,7.2717,7.2717,7.2717,7.2717,7.2717,7.2717,7.2717,7.2717,7.2717,7.2717,7.2717,7.2717,7.2717,7.2717,7.2717,7.2717,7.2717,7.2717,7.2717,7.2717,7.2717,7.2717,7.2717,7.2717,7.2717,7.2717,7.2717,7.2717,7.2717,7.2717,7.2717,7.2717,7.2717,7.2717,7.2717,7.2717,7.2717,7.2717,7.2717,7.2717,7.2717,7.2717,7.2717,7.2717,7.2717,7.2717,7.2717,7.2717,7.2717,7.2717,7.2717,7.2717,7.2717,7.2717,7.2717,7.2717,7.2717,7.2717,7.2717,7.2717,7.2717,7.2717,7.2717,7.2717,7.2717,7.2717,7.2717,7.2692,7.2616,7.2641,7.5828,7.5929,7.6054,7.6104,7.6104,7.6104,7.6104,7.6104,7.6104,7.6104,7.6104,7.6104,7.6104,7.6104,7.6104,7.6104,7.6104,7.6104,7.6104,7.6104,7.6104,7.6104,7.6104,7.6104,7.6104,7.5904,7.5578,7.5126,7.4574,7.4323,7.4022,7.3694,7.3594,7.3468,7.3443,7.3242,7.3043,7.3192,7.3068,7.2917,7.2842,7.2792,7.2717,7.2717,7.2717,7.2717,7.2717,7.2717,7.2717,7.2717,7.2717,7.2717,7.2717,7.2717,7.2717,7.2717,7.2717,7.2717,7.2717,7.2717,7.2717,7.2717,7.2717,7.2717,7.2717,7.2717,7.2717,7.2717,7.2717,7.2717,7.2717,7.2717,7.2717,7.2717,7.2717,7.2717,7.2717,7.2717,7.2717,7.2717,7.2717,7.2717,7.2717,7.2717,7.2717,7.2717,7.2717,7.2717,7.2717,7.2717,7.2717,7.2717,7.2717,7.2717,7.2717,7.2717,7.2717,7.2717,7.2717,7.2717,7.2717,7.2717,7.2717,7.2717,7.2717,7.2717,7.2717,7.2717,7.2717,7.2717,7.2717,7.2717,7.2717,7.2717,7.2717]}]]